Time,TemperatureF,DewpointF,PressureIn,WindDirection,WindDirectionDegrees,WindSpeedMPH,WindSpeedGustMPH,Humidity,HourlyPrecipIn,Conditions,Clouds,dailyrainin,SoftwareType,DateUTC
2013-01-29 00:00:00,69.3,62.5,29.72,SE,140,5.0,14.0,79,0.00,,,0.00,VWS V14.01,2013-01-29 06:00:00,
2013-01-29 00:01:00,69.3,62.5,29.72,SSE,161,6.0,15.0,79,0.00,,,0.00,VWS V14.01,2013-01-29 06:01:00,
2013-01-29 00:02:00,69.3,62.5,29.72,SE,134,11.0,15.0,79,0.00,,,0.00,VWS V14.01,2013-01-29 06:02:00,
2013-01-29 00:03:00,69.5,62.3,29.72,South,169,6.0,25.0,78,0.00,,,0.00,VWS V14.01,2013-01-29 06:03:00,
2013-01-29 00:04:00,69.3,62.5,29.72,SSE,163,6.0,15.0,79,0.00,,,0.00,VWS V14.01,2013-01-29 06:04:00,
2013-01-29 00:05:00,69.4,62.6,29.72,SSE,152,14.0,18.0,79,0.00,,,0.00,VWS V14.01,2013-01-29 06:05:00,
2013-01-29 00:06:00,69.5,62.7,29.72,SE,142,10.0,18.0,79,0.00,,,0.00,VWS V14.01,2013-01-29 06:06:00,
2013-01-29 00:07:00,69.5,62.7,29.72,South,178,10.0,18.0,79,0.00,,,0.00,VWS V14.01,2013-01-29 06:07:00,
2013-01-29 00:08:00,69.4,62.6,29.72,South,179,6.0,25.0,79,0.00,,,0.00,VWS V14.01,2013-01-29 06:08:00,
2013-01-29 00:09:00,69.5,62.7,29.72,SE,144,9.0,18.0,79,0.00,,,0.00,VWS V14.01,2013-01-29 06:09:00,
2013-01-29 00:10:00,69.4,62.6,29.72,SE,145,6.0,18.0,79,0.00,,,0.00,VWS V14.01,2013-01-29 06:10:00,
2013-01-29 00:11:00,69.4,62.6,29.72,SSE,164,7.0,18.0,79,0.00,,,0.00,VWS V14.01,2013-01-29 06:11:00,
2013-01-29 00:12:00,69.4,62.6,29.72,SSE,153,8.0,18.0,79,0.00,,,0.00,VWS V14.01,2013-01-29 06:12:00,
2013-01-29 00:13:00,69.3,62.5,29.72,SSE,161,6.0,15.0,79,0.00,,,0.00,VWS V14.01,2013-01-29 06:13:00,
2013-01-29 00:14:00,69.4,62.6,29.73,SSE,160,11.0,18.0,79,0.00,,,0.00,VWS V14.01,2013-01-29 06:14:00,
2013-01-29 00:15:00,69.5,62.7,29.73,SSW,199,6.0,18.0,79,0.00,,,0.00,VWS V14.01,2013-01-29 06:15:00,
2013-01-29 00:16:00,69.5,62.7,29.73,SSE,149,7.0,18.0,79,0.00,,,0.00,VWS V14.01,2013-01-29 06:16:00,
2013-01-29 00:17:00,69.5,62.7,29.73,SSE,157,7.0,18.0,79,0.00,,,0.00,VWS V14.01,2013-01-29 06:17:00,
2013-01-29 00:18:00,69.5,62.7,29.72,SE,145,9.0,18.0,79,0.00,,,0.00,VWS V14.01,2013-01-29 06:18:00,
2013-01-29 00:19:00,69.4,62.6,29.73,South,169,12.0,18.0,79,0.00,,,0.00,VWS V14.01,2013-01-29 06:19:00,
2013-01-29 00:21:00,69.4,62.6,29.73,SSE,153,11.0,18.0,79,0.00,,,0.00,VWS V14.01,2013-01-29 06:21:00,
2013-01-29 00:23:00,69.4,62.6,29.73,SSE,158,6.0,18.0,79,0.00,,,0.00,VWS V14.01,2013-01-29 06:23:00,
2013-01-29 00:24:00,69.4,62.6,29.72,SE,129,6.0,18.0,79,0.00,,,0.00,VWS V14.01,2013-01-29 06:24:00,
2013-01-29 00:25:00,69.4,62.6,29.73,SE,145,12.0,18.0,79,0.00,,,0.00,VWS V14.01,2013-01-29 06:25:00,
2013-01-29 00:26:00,69.4,62.6,29.73,South,181,9.0,18.0,79,0.00,,,0.00,VWS V14.01,2013-01-29 06:26:00,
2013-01-29 00:27:00,69.3,62.5,29.73,South,169,7.0,18.0,79,0.00,,,0.00,VWS V14.01,2013-01-29 06:27:00,
2013-01-29 00:28:00,69.4,62.6,29.73,SSE,163,6.0,18.0,79,0.00,,,0.00,VWS V14.01,2013-01-29 06:28:00,
2013-01-29 00:29:00,69.2,62.4,29.73,SSE,150,12.0,18.0,79,0.00,,,0.00,VWS V14.01,2013-01-29 06:29:00,
2013-01-29 00:30:00,69.2,62.4,29.73,South,182,9.0,12.0,79,0.00,,,0.00,VWS V14.01,2013-01-29 06:30:00,
2013-01-29 00:31:00,69.2,62.4,29.73,SE,143,5.0,12.0,79,0.00,,,0.00,VWS V14.01,2013-01-29 06:31:00,
2013-01-29 00:32:00,69.2,62.4,29.73,SSE,164,3.0,12.0,79,0.00,,,0.00,VWS V14.01,2013-01-29 06:32:00,
2013-01-29 00:33:00,69.4,62.6,29.72,SSE,156,15.0,18.0,79,0.00,,,0.00,VWS V14.01,2013-01-29 06:33:00,
2013-01-29 00:34:00,69.2,62.4,29.73,SSE,154,4.0,14.0,79,0.00,,,0.00,VWS V14.01,2013-01-29 06:34:00,
2013-01-29 00:35:00,69.2,62.4,29.73,SSE,156,5.0,14.0,79,0.00,,,0.00,VWS V14.01,2013-01-29 06:35:00,
2013-01-29 00:36:00,69.1,62.3,29.73,SSE,163,7.0,14.0,79,0.00,,,0.00,VWS V14.01,2013-01-29 06:36:00,
2013-01-29 00:38:00,69.2,62.4,29.73,SSE,160,11.0,18.0,79,0.00,,,0.00,VWS V14.01,2013-01-29 06:38:00,
2013-01-29 00:39:00,69.1,62.3,29.73,SSE,148,6.0,18.0,79,0.00,,,0.00,VWS V14.01,2013-01-29 06:39:00,
2013-01-29 00:40:00,69.0,62.6,29.73,SSE,164,7.0,18.0,80,0.00,,,0.00,VWS V14.01,2013-01-29 06:40:00,
2013-01-29 00:41:00,69.0,62.6,29.73,SE,138,9.0,18.0,80,0.00,,,0.00,VWS V14.01,2013-01-29 06:41:00,
2013-01-29 00:42:00,69.0,62.6,29.73,SSE,153,9.0,18.0,80,0.00,,,0.00,VWS V14.01,2013-01-29 06:42:00,
2013-01-29 00:43:00,69.2,62.4,29.73,South,172,6.0,14.0,79,0.00,,,0.00,VWS V14.01,2013-01-29 06:43:00,
2013-01-29 00:45:00,68.9,62.5,29.73,SSE,166,12.0,18.0,80,0.00,,,0.00,VWS V14.01,2013-01-29 06:45:00,
2013-01-29 00:46:00,68.9,62.5,29.73,South,178,8.0,18.0,80,0.00,,,0.00,VWS V14.01,2013-01-29 06:46:00,
2013-01-29 00:47:00,68.9,62.5,29.73,South,180,3.0,18.0,80,0.00,,,0.00,VWS V14.01,2013-01-29 06:47:00,
2013-01-29 00:48:00,69.1,62.3,29.73,SSE,153,9.0,18.0,79,0.00,,,0.00,VWS V14.01,2013-01-29 06:48:00,
2013-01-29 00:49:00,68.9,62.5,29.73,South,183,9.0,18.0,80,0.00,,,0.00,VWS V14.01,2013-01-29 06:49:00,
2013-01-29 00:50:00,68.9,62.5,29.73,South,172,17.0,18.0,80,0.00,,,0.00,VWS V14.01,2013-01-29 06:50:00,
2013-01-29 00:51:00,68.9,62.5,29.73,SSE,148,10.0,21.0,80,0.00,,,0.00,VWS V14.01,2013-01-29 06:51:00,
2013-01-29 00:53:00,68.9,62.5,29.73,SSE,149,17.0,18.0,80,0.00,,,0.00,VWS V14.01,2013-01-29 06:53:00,
2013-01-29 00:54:00,68.9,62.8,29.73,SSE,161,6.0,21.0,81,0.00,,,0.00,VWS V14.01,2013-01-29 06:54:00,
2013-01-29 00:55:00,68.9,62.8,29.73,South,178,13.0,21.0,81,0.00,,,0.00,VWS V14.01,2013-01-29 06:55:00,
2013-01-29 00:56:00,68.8,62.7,29.73,ESE,118,12.0,21.0,81,0.00,,,0.00,VWS V14.01,2013-01-29 06:56:00,
2013-01-29 00:57:00,68.8,62.7,29.72,SE,141,6.0,21.0,81,0.00,,,0.00,VWS V14.01,2013-01-29 06:57:00,
2013-01-29 00:58:00,68.9,62.5,29.73,South,183,9.0,18.0,80,0.00,,,0.00,VWS V14.01,2013-01-29 06:58:00,
2013-01-29 00:59:00,68.6,62.5,29.72,SSE,156,6.0,21.0,81,0.00,,,0.00,VWS V14.01,2013-01-29 06:59:00,
2013-01-29 01:00:00,68.6,62.5,29.72,SSE,159,6.0,10.0,81,0.00,,,0.00,VWS V14.01,2013-01-29 07:00:00,
2013-01-29 01:01:00,68.5,62.5,29.72,SSE,162,9.0,13.0,81,0.00,,,0.00,VWS V14.01,2013-01-29 07:01:00,
2013-01-29 01:02:00,68.4,62.3,29.72,SE,146,15.0,15.0,81,0.00,,,0.00,VWS V14.01,2013-01-29 07:02:00,
2013-01-29 01:03:00,68.9,62.8,29.73,SSE,161,6.0,21.0,81,0.00,,,0.00,VWS V14.01,2013-01-29 07:03:00,
2013-01-29 01:04:00,68.3,62.6,29.72,South,171,5.0,15.0,82,0.00,,,0.00,VWS V14.01,2013-01-29 07:04:00,
2013-01-29 01:06:00,68.3,62.6,29.72,SSE,165,8.0,16.0,82,0.00,,,0.00,VWS V14.01,2013-01-29 07:06:00,
2013-01-29 01:07:00,68.3,62.6,29.71,SSE,167,10.0,17.0,82,0.00,,,0.00,VWS V14.01,2013-01-29 07:07:00,
2013-01-29 01:08:00,68.2,62.5,29.71,SE,140,10.0,17.0,82,0.00,,,0.00,VWS V14.01,2013-01-29 07:08:00,
2013-01-29 01:09:00,68.6,62.5,29.72,SSE,150,4.0,21.0,81,0.00,,,0.00,VWS V14.01,2013-01-29 07:09:00,
2013-01-29 01:11:00,68.1,62.4,29.71,South,175,10.0,17.0,82,0.00,,,0.00,VWS V14.01,2013-01-29 07:11:00,
2013-01-29 01:12:00,68.1,62.4,29.71,SSE,152,7.0,17.0,82,0.00,,,0.00,VWS V14.01,2013-01-29 07:12:00,
2013-01-29 01:13:00,68.1,62.8,29.71,SSE,148,13.0,17.0,83,0.00,,,0.00,VWS V14.01,2013-01-29 07:13:00,
2013-01-29 01:14:00,68.3,62.6,29.72,SE,146,7.0,15.0,82,0.00,,,0.00,VWS V14.01,2013-01-29 07:14:00,
2013-01-29 01:15:00,68.0,62.7,29.71,SSE,157,10.0,17.0,83,0.00,,,0.00,VWS V14.01,2013-01-29 07:15:00,
2013-01-29 01:16:00,68.0,62.7,29.71,SSE,149,8.0,17.0,83,0.00,,,0.00,VWS V14.01,2013-01-29 07:16:00,
2013-01-29 01:17:00,68.0,62.7,29.72,SSE,153,9.0,17.0,83,0.00,,,0.00,VWS V14.01,2013-01-29 07:17:00,
2013-01-29 01:18:00,68.0,62.7,29.71,SSE,165,8.0,17.0,83,0.00,,,0.00,VWS V14.01,2013-01-29 07:18:00,
2013-01-29 01:19:00,68.2,62.5,29.71,SE,129,7.0,17.0,82,0.00,,,0.00,VWS V14.01,2013-01-29 07:19:00,
2013-01-29 01:20:00,68.0,62.7,29.71,SSE,151,9.0,21.0,83,0.00,,,0.00,VWS V14.01,2013-01-29 07:20:00,
2013-01-29 01:21:00,68.0,62.7,29.71,SE,145,6.0,21.0,83,0.00,,,0.00,VWS V14.01,2013-01-29 07:21:00,
2013-01-29 01:22:00,68.0,62.7,29.71,SSE,150,4.0,21.0,83,0.00,,,0.00,VWS V14.01,2013-01-29 07:22:00,
2013-01-29 01:23:00,68.0,62.7,29.71,SE,146,12.0,21.0,83,0.00,,,0.00,VWS V14.01,2013-01-29 07:23:00,
2013-01-29 01:24:00,68.0,62.7,29.71,SE,126,5.0,17.0,83,0.00,,,0.00,VWS V14.01,2013-01-29 07:24:00,
2013-01-29 01:25:00,67.9,62.5,29.70,SSE,152,4.0,21.0,83,0.00,,,0.00,VWS V14.01,2013-01-29 07:25:00,
2013-01-29 01:26:00,67.8,62.5,29.70,SSE,153,6.0,21.0,83,0.00,,,0.00,VWS V14.01,2013-01-29 07:26:00,
2013-01-29 01:27:00,67.8,62.5,29.70,SSE,164,4.0,21.0,83,0.00,,,0.00,VWS V14.01,2013-01-29 07:27:00,
2013-01-29 01:28:00,67.8,62.5,29.70,SE,138,10.0,21.0,83,0.00,,,0.00,VWS V14.01,2013-01-29 07:28:00,
2013-01-29 01:29:00,68.0,62.7,29.71,SE,146,12.0,17.0,83,0.00,,,0.00,VWS V14.01,2013-01-29 07:29:00,
2013-01-29 01:30:00,67.7,62.7,29.70,SE,142,6.0,9.0,84,0.00,,,0.00,VWS V14.01,2013-01-29 07:30:00,
2013-01-29 01:31:00,67.6,62.6,29.70,SE,146,7.0,14.0,84,0.00,,,0.00,VWS V14.01,2013-01-29 07:31:00,
2013-01-29 01:32:00,67.6,62.6,29.70,SSE,165,11.0,14.0,84,0.00,,,0.00,VWS V14.01,2013-01-29 07:32:00,
2013-01-29 01:33:00,67.7,62.7,29.70,SE,126,7.0,17.0,84,0.00,,,0.00,VWS V14.01,2013-01-29 07:33:00,
2013-01-29 01:34:00,67.9,62.5,29.70,South,180,6.0,21.0,83,0.00,,,0.00,VWS V14.01,2013-01-29 07:34:00,
2013-01-29 01:35:00,67.6,62.6,29.70,SSE,166,9.0,17.0,84,0.00,,,0.00,VWS V14.01,2013-01-29 07:35:00,
2013-01-29 01:36:00,67.6,62.6,29.70,SSE,161,11.0,18.0,84,0.00,,,0.00,VWS V14.01,2013-01-29 07:36:00,
2013-01-29 01:37:00,67.6,62.6,29.70,SSE,152,2.0,18.0,84,0.00,,,0.00,VWS V14.01,2013-01-29 07:37:00,
2013-01-29 01:38:00,67.6,62.6,29.70,ESE,117,5.0,18.0,84,0.00,,,0.00,VWS V14.01,2013-01-29 07:38:00,
2013-01-29 01:39:00,67.7,62.7,29.70,SE,130,4.0,21.0,84,0.00,,,0.00,VWS V14.01,2013-01-29 07:39:00,
2013-01-29 01:40:00,67.6,62.6,29.70,SE,145,14.0,18.0,84,0.00,,,0.00,VWS V14.01,2013-01-29 07:40:00,
2013-01-29 01:41:00,67.6,62.6,29.69,South,171,2.0,18.0,84,0.00,,,0.00,VWS V14.01,2013-01-29 07:41:00,
2013-01-29 01:42:00,67.6,62.9,29.70,South,177,15.0,18.0,85,0.00,,,0.00,VWS V14.01,2013-01-29 07:42:00,
2013-01-29 01:43:00,67.6,62.6,29.69,SE,138,5.0,18.0,84,0.00,,,0.00,VWS V14.01,2013-01-29 07:43:00,
2013-01-29 01:44:00,67.6,62.6,29.70,South,169,5.0,17.0,84,0.00,,,0.00,VWS V14.01,2013-01-29 07:44:00,
2013-01-29 01:45:00,67.6,62.9,29.69,SSE,163,5.0,18.0,85,0.00,,,0.00,VWS V14.01,2013-01-29 07:45:00,
2013-01-29 01:46:00,67.6,62.9,29.70,SSE,153,7.0,18.0,85,0.00,,,0.00,VWS V14.01,2013-01-29 07:46:00,
2013-01-29 01:47:00,67.6,62.9,29.70,SE,141,6.0,18.0,85,0.00,,,0.00,VWS V14.01,2013-01-29 07:47:00,
2013-01-29 01:48:00,67.6,62.9,29.70,SE,125,13.0,19.0,85,0.00,,,0.00,VWS V14.01,2013-01-29 07:48:00,
2013-01-29 01:49:00,67.6,62.6,29.70,SSE,147,4.0,18.0,84,0.00,,,0.00,VWS V14.01,2013-01-29 07:49:00,
2013-01-29 01:50:00,67.7,63.0,29.70,SSE,163,10.0,19.0,85,0.00,,,0.00,VWS V14.01,2013-01-29 07:50:00,
2013-01-29 01:51:00,67.7,63.0,29.70,SE,143,14.0,19.0,85,0.00,,,0.00,VWS V14.01,2013-01-29 07:51:00,
2013-01-29 01:52:00,67.7,63.0,29.70,SE,126,10.0,19.0,85,0.00,,,0.00,VWS V14.01,2013-01-29 07:52:00,
2013-01-29 01:53:00,67.7,63.0,29.69,SE,146,12.0,19.0,85,0.00,,,0.00,VWS V14.01,2013-01-29 07:53:00,
2013-01-29 01:54:00,67.6,62.6,29.69,SSE,165,10.0,18.0,84,0.00,,,0.00,VWS V14.01,2013-01-29 07:54:00,
2013-01-29 01:55:00,67.8,63.1,29.69,SSE,155,5.0,19.0,85,0.00,,,0.00,VWS V14.01,2013-01-29 07:55:00,
2013-01-29 01:56:00,67.8,63.1,29.69,SSE,152,7.0,19.0,85,0.00,,,0.00,VWS V14.01,2013-01-29 07:56:00,
2013-01-29 01:57:00,67.8,63.1,29.69,SE,145,3.0,19.0,85,0.00,,,0.00,VWS V14.01,2013-01-29 07:57:00,
2013-01-29 01:58:00,67.8,63.1,29.69,SE,140,7.0,19.0,85,0.00,,,0.00,VWS V14.01,2013-01-29 07:58:00,
2013-01-29 01:59:00,67.6,62.9,29.70,SSE,149,9.0,19.0,85,0.00,,,0.00,VWS V14.01,2013-01-29 07:59:00,
2013-01-29 02:00:00,67.8,63.1,29.69,SSE,161,7.0,15.0,85,0.00,,,0.00,VWS V14.01,2013-01-29 08:00:00,
2013-01-29 02:02:00,67.8,63.1,29.69,SSW,196,6.0,15.0,85,0.00,,,0.00,VWS V14.01,2013-01-29 08:02:00,
2013-01-29 02:03:00,67.8,63.1,29.69,SSE,162,5.0,15.0,85,0.00,,,0.00,VWS V14.01,2013-01-29 08:03:00,
2013-01-29 02:04:00,67.8,63.1,29.69,SE,144,9.0,19.0,85,0.00,,,0.00,VWS V14.01,2013-01-29 08:04:00,
2013-01-29 02:05:00,67.8,63.1,29.69,SSE,163,6.0,16.0,85,0.00,,,0.00,VWS V14.01,2013-01-29 08:05:00,
2013-01-29 02:06:00,67.8,63.1,29.69,SSE,152,12.0,16.0,85,0.00,,,0.00,VWS V14.01,2013-01-29 08:06:00,
2013-01-29 02:07:00,67.8,63.1,29.69,SE,134,6.0,16.0,85,0.00,,,0.00,VWS V14.01,2013-01-29 08:07:00,
2013-01-29 02:08:00,67.8,63.1,29.69,SSE,148,5.0,16.0,85,0.00,,,0.00,VWS V14.01,2013-01-29 08:08:00,
2013-01-29 02:09:00,67.8,63.1,29.69,SSE,159,6.0,9.0,85,0.00,,,0.00,VWS V14.01,2013-01-29 08:09:00,
2013-01-29 02:10:00,67.8,63.1,29.69,ESE,107,9.0,16.0,85,0.00,,,0.00,VWS V14.01,2013-01-29 08:10:00,
2013-01-29 02:11:00,67.8,63.1,29.69,SE,145,5.0,16.0,85,0.00,,,0.00,VWS V14.01,2013-01-29 08:11:00,
2013-01-29 02:12:00,67.8,63.1,29.69,SSE,148,6.0,16.0,85,0.00,,,0.00,VWS V14.01,2013-01-29 08:12:00,
2013-01-29 02:13:00,67.8,63.1,29.69,SE,128,6.0,16.0,85,0.00,,,0.00,VWS V14.01,2013-01-29 08:13:00,
2013-01-29 02:14:00,67.8,63.1,29.69,SE,142,7.0,16.0,85,0.00,,,0.00,VWS V14.01,2013-01-29 08:14:00,
2013-01-29 02:15:00,67.8,63.1,29.68,SSE,159,13.0,16.0,85,0.00,,,0.00,VWS V14.01,2013-01-29 08:15:00,
2013-01-29 02:16:00,67.8,63.1,29.68,South,170,7.0,16.0,85,0.00,,,0.00,VWS V14.01,2013-01-29 08:16:00,
2013-01-29 02:17:00,67.8,63.1,29.68,SE,139,13.0,16.0,85,0.00,,,0.00,VWS V14.01,2013-01-29 08:17:00,
2013-01-29 02:18:00,67.7,63.0,29.68,SSE,148,8.0,16.0,85,0.00,,,0.00,VWS V14.01,2013-01-29 08:18:00,
2013-01-29 02:19:00,67.8,63.1,29.69,SE,134,7.0,16.0,85,0.00,,,0.00,VWS V14.01,2013-01-29 08:19:00,
2013-01-29 02:20:00,67.8,63.1,29.68,SSE,160,5.0,19.0,85,0.00,,,0.00,VWS V14.01,2013-01-29 08:20:00,
2013-01-29 02:21:00,67.8,63.1,29.68,SSE,167,15.0,19.0,85,0.00,,,0.00,VWS V14.01,2013-01-29 08:21:00,
2013-01-29 02:22:00,67.8,63.1,29.68,SSE,168,10.0,19.0,85,0.00,,,0.00,VWS V14.01,2013-01-29 08:22:00,
2013-01-29 02:23:00,67.8,63.1,29.68,SSE,161,5.0,19.0,85,0.00,,,0.00,VWS V14.01,2013-01-29 08:23:00,
2013-01-29 02:24:00,67.8,63.1,29.68,ESE,121,5.0,16.0,85,0.00,,,0.00,VWS V14.01,2013-01-29 08:24:00,
2013-01-29 02:25:00,67.8,63.1,29.68,South,184,4.0,19.0,85,0.00,,,0.00,VWS V14.01,2013-01-29 08:25:00,
2013-01-29 02:26:00,67.8,63.1,29.68,SSE,162,7.0,19.0,85,0.00,,,0.00,VWS V14.01,2013-01-29 08:26:00,
2013-01-29 02:27:00,67.8,63.1,29.68,SSE,150,10.0,19.0,85,0.00,,,0.00,VWS V14.01,2013-01-29 08:27:00,
2013-01-29 02:28:00,67.8,63.1,29.68,SSE,155,4.0,19.0,85,0.00,,,0.00,VWS V14.01,2013-01-29 08:28:00,
2013-01-29 02:29:00,67.8,63.1,29.68,SSE,154,10.0,19.0,85,0.00,,,0.00,VWS V14.01,2013-01-29 08:29:00,
2013-01-29 02:30:00,67.8,63.1,29.68,SSE,158,8.0,10.0,85,0.00,,,0.00,VWS V14.01,2013-01-29 08:30:00,
2013-01-29 02:31:00,67.8,63.5,29.68,SE,136,4.0,14.0,86,0.00,,,0.00,VWS V14.01,2013-01-29 08:31:00,
2013-01-29 02:32:00,67.8,63.5,29.68,South,178,3.0,14.0,86,0.00,,,0.00,VWS V14.01,2013-01-29 08:32:00,
2013-01-29 02:33:00,67.8,63.5,29.68,South,178,10.0,14.0,86,0.00,,,0.00,VWS V14.01,2013-01-29 08:33:00,
2013-01-29 02:34:00,67.8,63.1,29.68,SSE,160,9.0,19.0,85,0.00,,,0.00,VWS V14.01,2013-01-29 08:34:00,
2013-01-29 02:35:00,67.8,63.5,29.68,South,171,9.0,14.0,86,0.00,,,0.00,VWS V14.01,2013-01-29 08:35:00,
2013-01-29 02:36:00,67.8,63.5,29.68,SSE,150,11.0,14.0,86,0.00,,,0.00,VWS V14.01,2013-01-29 08:36:00,
2013-01-29 02:37:00,67.8,63.5,29.68,SE,146,7.0,14.0,86,0.00,,,0.00,VWS V14.01,2013-01-29 08:37:00,
2013-01-29 02:38:00,67.8,63.5,29.68,SE,138,4.0,14.0,86,0.00,,,0.00,VWS V14.01,2013-01-29 08:38:00,
2013-01-29 02:39:00,67.8,63.1,29.68,SSE,163,4.0,6.0,85,0.00,,,0.00,VWS V14.01,2013-01-29 08:39:00,
2013-01-29 02:40:00,67.9,63.6,29.68,SSE,153,13.0,18.0,86,0.00,,,0.00,VWS V14.01,2013-01-29 08:40:00,
2013-01-29 02:41:00,67.9,63.6,29.68,SSE,155,9.0,18.0,86,0.00,,,0.00,VWS V14.01,2013-01-29 08:41:00,
2013-01-29 02:42:00,67.8,63.5,29.68,SE,130,7.0,18.0,86,0.00,,,0.00,VWS V14.01,2013-01-29 08:42:00,
2013-01-29 02:43:00,67.8,63.5,29.68,SSE,159,3.0,18.0,86,0.00,,,0.00,VWS V14.01,2013-01-29 08:43:00,
2013-01-29 02:44:00,67.8,63.5,29.68,SSE,157,9.0,14.0,86,0.00,,,0.00,VWS V14.01,2013-01-29 08:44:00,
2013-01-29 02:45:00,67.8,63.5,29.68,SSE,161,9.0,18.0,86,0.00,,,0.00,VWS V14.01,2013-01-29 08:45:00,
2013-01-29 02:46:00,67.8,63.5,29.68,South,169,16.0,18.0,86,0.00,,,0.00,VWS V14.01,2013-01-29 08:46:00,
2013-01-29 02:47:00,67.9,63.6,29.68,ESE,122,11.0,18.0,86,0.00,,,0.00,VWS V14.01,2013-01-29 08:47:00,
2013-01-29 02:48:00,67.9,63.6,29.68,SSE,161,1.0,18.0,86,0.00,,,0.00,VWS V14.01,2013-01-29 08:48:00,
2013-01-29 02:49:00,67.8,63.5,29.68,SSE,149,8.0,18.0,86,0.00,,,0.00,VWS V14.01,2013-01-29 08:49:00,
2013-01-29 02:50:00,67.8,63.5,29.68,SSE,157,5.0,18.0,86,0.00,,,0.00,VWS V14.01,2013-01-29 08:50:00,
2013-01-29 02:51:00,67.8,63.5,29.68,South,175,3.0,18.0,86,0.00,,,0.00,VWS V14.01,2013-01-29 08:51:00,
2013-01-29 02:52:00,67.8,63.5,29.68,South,169,5.0,18.0,86,0.00,,,0.00,VWS V14.01,2013-01-29 08:52:00,
2013-01-29 02:53:00,67.8,63.5,29.68,ESE,107,10.0,18.0,86,0.00,,,0.00,VWS V14.01,2013-01-29 08:53:00,
2013-01-29 02:54:00,67.8,63.5,29.68,South,180,9.0,18.0,86,0.00,,,0.00,VWS V14.01,2013-01-29 08:54:00,
2013-01-29 02:55:00,67.7,63.4,29.68,ESE,123,6.0,18.0,86,0.00,,,0.00,VWS V14.01,2013-01-29 08:55:00,
2013-01-29 02:56:00,67.7,63.4,29.68,SSE,152,5.0,18.0,86,0.00,,,0.00,VWS V14.01,2013-01-29 08:56:00,
2013-01-29 02:57:00,67.7,63.4,29.68,SSE,148,9.0,18.0,86,0.00,,,0.00,VWS V14.01,2013-01-29 08:57:00,
2013-01-29 02:58:00,67.7,63.4,29.68,SSE,161,3.0,18.0,86,0.00,,,0.00,VWS V14.01,2013-01-29 08:58:00,
2013-01-29 02:59:00,67.8,63.5,29.68,SSE,150,10.0,18.0,86,0.00,,,0.00,VWS V14.01,2013-01-29 08:59:00,
2013-01-29 03:00:00,67.7,63.4,29.67,South,173,5.0,9.0,86,0.00,,,0.00,VWS V14.01,2013-01-29 09:00:00,
2013-01-29 03:01:00,67.6,63.3,29.68,SSE,153,10.0,15.0,86,0.00,,,0.00,VWS V14.01,2013-01-29 09:01:00,
2013-01-29 03:02:00,67.6,63.3,29.68,SE,145,10.0,18.0,86,0.00,,,0.00,VWS V14.01,2013-01-29 09:02:00,
2013-01-29 03:03:00,67.6,63.3,29.68,SE,142,11.0,18.0,86,0.00,,,0.00,VWS V14.01,2013-01-29 09:03:00,
2013-01-29 03:04:00,67.8,63.5,29.68,South,182,6.0,18.0,86,0.00,,,0.00,VWS V14.01,2013-01-29 09:04:00,
2013-01-29 03:05:00,67.6,63.3,29.68,SE,134,12.0,18.0,86,0.00,,,0.00,VWS V14.01,2013-01-29 09:05:00,
2013-01-29 03:06:00,67.7,63.4,29.68,SSE,149,7.0,18.0,86,0.00,,,0.00,VWS V14.01,2013-01-29 09:06:00,
2013-01-29 03:07:00,67.7,63.4,29.68,South,174,13.0,18.0,86,0.00,,,0.00,VWS V14.01,2013-01-29 09:07:00,
2013-01-29 03:08:00,67.6,63.3,29.67,SSE,161,6.0,18.0,86,0.00,,,0.00,VWS V14.01,2013-01-29 09:08:00,
2013-01-29 03:09:00,67.7,63.4,29.67,SSE,164,5.0,9.0,86,0.00,,,0.00,VWS V14.01,2013-01-29 09:09:00,
2013-01-29 03:10:00,67.6,63.3,29.67,South,173,9.0,18.0,86,0.00,,,0.00,VWS V14.01,2013-01-29 09:10:00,
2013-01-29 03:11:00,67.6,63.3,29.67,South,178,5.0,18.0,86,0.00,,,0.00,VWS V14.01,2013-01-29 09:11:00,
2013-01-29 03:12:00,67.6,63.3,29.67,SE,144,18.0,18.0,86,0.00,,,0.00,VWS V14.01,2013-01-29 09:12:00,
2013-01-29 03:13:00,67.6,63.3,29.67,SSE,155,9.0,18.0,86,0.00,,,0.00,VWS V14.01,2013-01-29 09:13:00,
2013-01-29 03:14:00,67.7,63.4,29.68,South,173,12.0,18.0,86,0.00,,,0.00,VWS V14.01,2013-01-29 09:14:00,
2013-01-29 03:15:00,67.5,63.2,29.67,SE,142,13.0,18.0,86,0.00,,,0.00,VWS V14.01,2013-01-29 09:15:00,
2013-01-29 03:16:00,67.5,63.2,29.67,South,184,12.0,18.0,86,0.00,,,0.00,VWS V14.01,2013-01-29 09:16:00,
2013-01-29 03:17:00,67.5,63.2,29.67,SSE,148,6.0,18.0,86,0.00,,,0.00,VWS V14.01,2013-01-29 09:17:00,
2013-01-29 03:18:00,67.5,63.2,29.67,SSE,163,11.0,18.0,86,0.00,,,0.00,VWS V14.01,2013-01-29 09:18:00,
2013-01-29 03:19:00,67.6,63.3,29.67,SSE,159,5.0,18.0,86,0.00,,,0.00,VWS V14.01,2013-01-29 09:19:00,
2013-01-29 03:20:00,67.5,63.2,29.67,SSE,167,9.0,18.0,86,0.00,,,0.00,VWS V14.01,2013-01-29 09:20:00,
2013-01-29 03:21:00,67.5,63.2,29.67,SE,146,4.0,18.0,86,0.00,,,0.00,VWS V14.01,2013-01-29 09:21:00,
2013-01-29 03:22:00,67.5,63.2,29.67,SSE,156,4.0,18.0,86,0.00,,,0.00,VWS V14.01,2013-01-29 09:22:00,
2013-01-29 03:23:00,67.5,63.2,29.67,South,180,5.0,18.0,86,0.00,,,0.00,VWS V14.01,2013-01-29 09:23:00,
2013-01-29 03:24:00,67.5,63.2,29.67,SSE,157,7.0,18.0,86,0.00,,,0.00,VWS V14.01,2013-01-29 09:24:00,
2013-01-29 03:25:00,67.5,63.2,29.67,South,169,9.0,18.0,86,0.00,,,0.00,VWS V14.01,2013-01-29 09:25:00,
2013-01-29 03:26:00,67.5,63.2,29.67,SSE,160,11.0,18.0,86,0.00,,,0.00,VWS V14.01,2013-01-29 09:26:00,
2013-01-29 03:27:00,67.5,63.2,29.67,SE,135,10.0,18.0,86,0.00,,,0.00,VWS V14.01,2013-01-29 09:27:00,
2013-01-29 03:28:00,67.5,63.2,29.67,SE,136,10.0,18.0,86,0.00,,,0.00,VWS V14.01,2013-01-29 09:28:00,
2013-01-29 03:29:00,67.5,63.2,29.67,SSE,167,5.0,18.0,86,0.00,,,0.00,VWS V14.01,2013-01-29 09:29:00,
2013-01-29 03:30:00,67.5,63.2,29.67,SSE,159,5.0,10.0,86,0.00,,,0.00,VWS V14.01,2013-01-29 09:30:00,
2013-01-29 03:31:00,67.5,63.2,29.67,SSE,168,5.0,12.0,86,0.00,,,0.00,VWS V14.01,2013-01-29 09:31:00,
2013-01-29 03:32:00,67.5,63.2,29.67,SSE,150,9.0,15.0,86,0.00,,,0.00,VWS V14.01,2013-01-29 09:32:00,
2013-01-29 03:33:00,67.5,63.2,29.67,SSE,157,7.0,15.0,86,0.00,,,0.00,VWS V14.01,2013-01-29 09:33:00,
2013-01-29 03:34:00,67.5,63.2,29.67,SE,140,7.0,18.0,86,0.00,,,0.00,VWS V14.01,2013-01-29 09:34:00,
2013-01-29 03:35:00,67.5,63.2,29.66,SSE,150,3.0,15.0,86,0.00,,,0.00,VWS V14.01,2013-01-29 09:35:00,
2013-01-29 03:37:00,67.5,63.2,29.66,South,169,4.0,15.0,86,0.00,,,0.00,VWS V14.01,2013-01-29 09:37:00,
2013-01-29 03:38:00,67.4,63.1,29.66,SSE,148,7.0,15.0,86,0.00,,,0.00,VWS V14.01,2013-01-29 09:38:00,
2013-01-29 03:39:00,67.5,63.2,29.67,SSE,153,10.0,10.0,86,0.00,,,0.00,VWS V14.01,2013-01-29 09:39:00,
2013-01-29 03:40:00,67.4,63.4,29.66,SSE,163,12.0,16.0,87,0.00,,,0.00,VWS V14.01,2013-01-29 09:40:00,
2013-01-29 03:41:00,67.4,63.4,29.66,South,169,4.0,16.0,87,0.00,,,0.00,VWS V14.01,2013-01-29 09:41:00,
2013-01-29 03:42:00,67.4,63.4,29.66,SSE,151,13.0,16.0,87,0.00,,,0.00,VWS V14.01,2013-01-29 09:42:00,
2013-01-29 03:43:00,67.4,63.4,29.66,South,189,3.0,16.0,87,0.00,,,0.00,VWS V14.01,2013-01-29 09:43:00,
2013-01-29 03:44:00,67.5,63.2,29.66,SSE,167,10.0,15.0,86,0.00,,,0.00,VWS V14.01,2013-01-29 09:44:00,
2013-01-29 03:45:00,67.4,63.4,29.66,SSE,165,5.0,16.0,87,0.00,,,0.00,VWS V14.01,2013-01-29 09:45:00,
2013-01-29 03:46:00,67.4,63.4,29.66,SSE,157,5.0,16.0,87,0.00,,,0.00,VWS V14.01,2013-01-29 09:46:00,
2013-01-29 03:47:00,67.4,63.4,29.65,SE,142,7.0,16.0,87,0.00,,,0.00,VWS V14.01,2013-01-29 09:47:00,
2013-01-29 03:48:00,67.5,63.5,29.65,South,177,6.0,16.0,87,0.00,,,0.00,VWS V14.01,2013-01-29 09:48:00,
2013-01-29 03:49:00,67.4,63.4,29.66,SSE,156,2.0,16.0,87,0.00,,,0.00,VWS V14.01,2013-01-29 09:49:00,
2013-01-29 03:50:00,67.5,63.5,29.65,SSE,167,3.0,16.0,87,0.00,,,0.00,VWS V14.01,2013-01-29 09:50:00,
2013-01-29 03:51:00,67.5,63.5,29.66,SE,137,16.0,16.0,87,0.00,,,0.00,VWS V14.01,2013-01-29 09:51:00,
2013-01-29 03:52:00,67.5,63.5,29.66,SSE,155,7.0,16.0,87,0.00,,,0.00,VWS V14.01,2013-01-29 09:52:00,
2013-01-29 03:53:00,67.6,63.6,29.66,SE,146,13.0,16.0,87,0.00,,,0.00,VWS V14.01,2013-01-29 09:53:00,
2013-01-29 03:54:00,67.4,63.4,29.66,South,171,6.0,16.0,87,0.00,,,0.00,VWS V14.01,2013-01-29 09:54:00,
2013-01-29 03:55:00,67.6,63.6,29.66,South,184,7.0,17.0,87,0.00,,,0.00,VWS V14.01,2013-01-29 09:55:00,
2013-01-29 03:56:00,67.6,63.3,29.66,SSE,163,4.0,17.0,86,0.00,,,0.00,VWS V14.01,2013-01-29 09:56:00,
2013-01-29 03:57:00,67.7,63.4,29.65,South,173,4.0,17.0,86,0.00,,,0.00,VWS V14.01,2013-01-29 09:57:00,
2013-01-29 03:58:00,67.7,63.4,29.65,SE,144,9.0,17.0,86,0.00,,,0.00,VWS V14.01,2013-01-29 09:58:00,
2013-01-29 03:59:00,67.5,63.5,29.65,South,169,6.0,16.0,87,0.00,,,0.00,VWS V14.01,2013-01-29 09:59:00,
2013-01-29 04:00:00,67.6,63.3,29.65,South,169,9.0,19.0,86,0.00,,,0.00,VWS V14.01,2013-01-29 10:00:00,
2013-01-29 04:01:00,67.6,63.3,29.65,SSE,153,11.0,19.0,86,0.00,,,0.00,VWS V14.01,2013-01-29 10:01:00,
2013-01-29 04:02:00,67.7,63.7,29.65,SSE,147,5.0,19.0,87,0.00,,,0.00,VWS V14.01,2013-01-29 10:02:00,
2013-01-29 04:03:00,67.7,63.7,29.65,SE,145,6.0,19.0,87,0.00,,,0.00,VWS V14.01,2013-01-29 10:03:00,
2013-01-29 04:04:00,67.6,63.6,29.66,ESE,103,9.0,17.0,87,0.00,,,0.00,VWS V14.01,2013-01-29 10:04:00,
2013-01-29 04:05:00,67.7,63.4,29.65,South,171,3.0,19.0,86,0.00,,,0.00,VWS V14.01,2013-01-29 10:05:00,
2013-01-29 04:06:00,67.7,63.4,29.65,SSE,152,14.0,19.0,86,0.00,,,0.00,VWS V14.01,2013-01-29 10:06:00,
2013-01-29 04:07:00,67.7,63.4,29.65,SE,145,5.0,19.0,86,0.00,,,0.00,VWS V14.01,2013-01-29 10:07:00,
2013-01-29 04:08:00,67.7,63.4,29.65,South,173,11.0,19.0,86,0.00,,,0.00,VWS V14.01,2013-01-29 10:08:00,
2013-01-29 04:09:00,67.6,63.3,29.65,South,182,11.0,19.0,86,0.00,,,0.00,VWS V14.01,2013-01-29 10:09:00,
2013-01-29 04:10:00,67.7,63.7,29.65,SSE,155,12.0,19.0,87,0.00,,,0.00,VWS V14.01,2013-01-29 10:10:00,
2013-01-29 04:11:00,67.7,63.7,29.65,SE,142,9.0,19.0,87,0.00,,,0.00,VWS V14.01,2013-01-29 10:11:00,
2013-01-29 04:12:00,67.7,63.7,29.65,SSE,149,9.0,19.0,87,0.00,,,0.00,VWS V14.01,2013-01-29 10:12:00,
2013-01-29 04:13:00,67.7,63.7,29.65,SSE,156,17.0,19.0,87,0.00,,,0.00,VWS V14.01,2013-01-29 10:13:00,
2013-01-29 04:14:00,67.7,63.4,29.65,SSE,154,10.0,19.0,86,0.00,,,0.00,VWS V14.01,2013-01-29 10:14:00,
2013-01-29 04:15:00,67.7,63.7,29.65,South,178,10.0,19.0,87,0.00,,,0.00,VWS V14.01,2013-01-29 10:15:00,
2013-01-29 04:16:00,67.7,63.7,29.65,SSE,165,7.0,19.0,87,0.00,,,0.00,VWS V14.01,2013-01-29 10:16:00,
2013-01-29 04:17:00,67.7,63.7,29.65,SSE,149,9.0,19.0,87,0.00,,,0.00,VWS V14.01,2013-01-29 10:17:00,
2013-01-29 04:18:00,67.7,63.7,29.64,SSE,156,9.0,19.0,87,0.00,,,0.00,VWS V14.01,2013-01-29 10:18:00,
2013-01-29 04:19:00,67.7,63.7,29.65,SSE,159,4.0,19.0,87,0.00,,,0.00,VWS V14.01,2013-01-29 10:19:00,
2013-01-29 04:20:00,67.7,63.7,29.64,SSE,165,12.0,19.0,87,0.00,,,0.00,VWS V14.01,2013-01-29 10:20:00,
2013-01-29 04:21:00,67.7,63.7,29.64,SE,139,12.0,19.0,87,0.00,,,0.00,VWS V14.01,2013-01-29 10:21:00,
2013-01-29 04:22:00,67.7,63.7,29.64,SSE,165,12.0,19.0,87,0.00,,,0.00,VWS V14.01,2013-01-29 10:22:00,
2013-01-29 04:23:00,67.8,63.8,29.64,SSE,156,3.0,19.0,87,0.00,,,0.00,VWS V14.01,2013-01-29 10:23:00,
2013-01-29 04:24:00,67.7,63.7,29.65,South,169,6.0,19.0,87,0.00,,,0.00,VWS V14.01,2013-01-29 10:24:00,
2013-01-29 04:25:00,67.7,63.7,29.64,SSE,158,16.0,19.0,87,0.00,,,0.00,VWS V14.01,2013-01-29 10:25:00,
2013-01-29 04:26:00,67.7,63.7,29.64,SE,136,13.0,19.0,87,0.00,,,0.00,VWS V14.01,2013-01-29 10:26:00,
2013-01-29 04:27:00,67.8,63.8,29.64,SSE,163,7.0,19.0,87,0.00,,,0.00,VWS V14.01,2013-01-29 10:27:00,
2013-01-29 04:28:00,67.8,63.8,29.64,SSE,165,11.0,19.0,87,0.00,,,0.00,VWS V14.01,2013-01-29 10:28:00,
2013-01-29 04:29:00,67.7,63.7,29.64,SE,124,12.0,19.0,87,0.00,,,0.00,VWS V14.01,2013-01-29 10:29:00,
2013-01-29 04:30:00,67.8,63.8,29.64,SE,130,8.0,10.0,87,0.00,,,0.00,VWS V14.01,2013-01-29 10:30:00,
2013-01-29 04:31:00,67.8,63.8,29.64,SSE,161,10.0,16.0,87,0.00,,,0.00,VWS V14.01,2013-01-29 10:31:00,
2013-01-29 04:32:00,67.8,63.8,29.64,South,169,13.0,16.0,87,0.00,,,0.00,VWS V14.01,2013-01-29 10:32:00,
2013-01-29 04:33:00,67.8,63.8,29.64,SSE,149,14.0,16.0,87,0.00,,,0.00,VWS V14.01,2013-01-29 10:33:00,
2013-01-29 04:34:00,67.7,63.7,29.64,SSE,155,7.0,19.0,87,0.00,,,0.00,VWS V14.01,2013-01-29 10:34:00,
2013-01-29 04:35:00,67.8,63.8,29.64,SE,144,4.0,17.0,87,0.00,,,0.00,VWS V14.01,2013-01-29 10:35:00,
2013-01-29 04:36:00,67.8,63.8,29.64,ESE,122,17.0,18.0,87,0.00,,,0.00,VWS V14.01,2013-01-29 10:36:00,
2013-01-29 04:37:00,67.8,63.8,29.64,SSE,165,4.0,18.0,87,0.00,,,0.00,VWS V14.01,2013-01-29 10:37:00,
2013-01-29 04:38:00,67.9,63.9,29.64,SSE,155,3.0,18.0,87,0.00,,,0.00,VWS V14.01,2013-01-29 10:38:00,
2013-01-29 04:39:00,67.8,63.8,29.64,SSE,160,6.0,10.0,87,0.00,,,0.00,VWS V14.01,2013-01-29 10:39:00,
2013-01-29 04:40:00,67.8,63.8,29.64,South,173,6.0,18.0,87,0.00,,,0.00,VWS V14.01,2013-01-29 10:40:00,
2013-01-29 04:41:00,67.8,63.8,29.65,SSE,150,5.0,18.0,87,0.00,,,0.00,VWS V14.01,2013-01-29 10:41:00,
2013-01-29 04:42:00,67.8,63.8,29.64,SSE,159,5.0,18.0,87,0.00,,,0.00,VWS V14.01,2013-01-29 10:42:00,
2013-01-29 04:43:00,67.8,63.8,29.64,South,169,12.0,18.0,87,0.00,,,0.00,VWS V14.01,2013-01-29 10:43:00,
2013-01-29 04:44:00,67.8,63.8,29.64,SSE,168,11.0,17.0,87,0.00,,,0.00,VWS V14.01,2013-01-29 10:44:00,
2013-01-29 04:45:00,67.8,63.8,29.64,SE,126,6.0,18.0,87,0.00,,,0.00,VWS V14.01,2013-01-29 10:45:00,
2013-01-29 04:46:00,67.7,63.7,29.64,SE,144,4.0,18.0,87,0.00,,,0.00,VWS V14.01,2013-01-29 10:46:00,
2013-01-29 04:47:00,67.7,63.7,29.64,SSE,163,21.0,21.0,87,0.00,,,0.00,VWS V14.01,2013-01-29 10:47:00,
2013-01-29 04:48:00,67.7,63.7,29.63,SE,140,13.0,21.0,87,0.00,,,0.00,VWS V14.01,2013-01-29 10:48:00,
2013-01-29 04:49:00,67.8,63.8,29.64,SSE,155,4.0,18.0,87,0.00,,,0.00,VWS V14.01,2013-01-29 10:49:00,
2013-01-29 04:50:00,67.8,63.8,29.63,SSE,167,5.0,21.0,87,0.00,,,0.00,VWS V14.01,2013-01-29 10:50:00,
2013-01-29 04:51:00,67.7,63.7,29.63,South,182,6.0,21.0,87,0.00,,,0.00,VWS V14.01,2013-01-29 10:51:00,
2013-01-29 04:52:00,67.7,63.7,29.63,SSE,164,10.0,21.0,87,0.00,,,0.00,VWS V14.01,2013-01-29 10:52:00,
2013-01-29 04:53:00,67.7,63.7,29.63,SE,134,3.0,21.0,87,0.00,,,0.00,VWS V14.01,2013-01-29 10:53:00,
2013-01-29 04:54:00,67.7,63.7,29.63,SE,133,11.0,21.0,87,0.00,,,0.00,VWS V14.01,2013-01-29 10:54:00,
2013-01-29 04:55:00,67.8,63.8,29.64,SE,131,7.0,18.0,87,0.00,,,0.00,VWS V14.01,2013-01-29 10:55:00,
2013-01-29 04:56:00,67.7,63.7,29.63,South,170,6.0,21.0,87,0.00,,,0.00,VWS V14.01,2013-01-29 10:56:00,
2013-01-29 04:57:00,67.7,63.7,29.63,South,188,12.0,21.0,87,0.00,,,0.00,VWS V14.01,2013-01-29 10:57:00,
2013-01-29 04:58:00,67.7,63.7,29.63,SE,146,5.0,21.0,87,0.00,,,0.00,VWS V14.01,2013-01-29 10:58:00,
2013-01-29 04:59:00,67.7,63.7,29.63,SSE,155,1.0,21.0,87,0.00,,,0.00,VWS V14.01,2013-01-29 10:59:00,
2013-01-29 05:00:00,67.8,63.8,29.63,SSE,165,4.0,21.0,87,0.00,,,0.00,VWS V14.01,2013-01-29 11:00:00,
2013-01-29 05:01:00,67.6,63.6,29.62,SE,135,5.0,14.0,87,0.00,,,0.00,VWS V14.01,2013-01-29 11:01:00,
2013-01-29 05:02:00,67.6,63.6,29.63,SSE,159,5.0,17.0,87,0.00,,,0.00,VWS V14.01,2013-01-29 11:02:00,
2013-01-29 05:03:00,67.6,63.6,29.62,SE,133,10.0,17.0,87,0.00,,,0.00,VWS V14.01,2013-01-29 11:03:00,
2013-01-29 05:04:00,67.5,63.5,29.62,SSE,163,5.0,17.0,87,0.00,,,0.00,VWS V14.01,2013-01-29 11:04:00,
2013-01-29 05:05:00,67.7,63.7,29.63,SE,146,6.0,21.0,87,0.00,,,0.00,VWS V14.01,2013-01-29 11:05:00,
2013-01-29 05:06:00,67.5,63.5,29.62,ESE,119,16.0,18.0,87,0.00,,,0.00,VWS V14.01,2013-01-29 11:06:00,
2013-01-29 05:07:00,67.5,63.5,29.62,ESE,119,6.0,18.0,87,0.00,,,0.00,VWS V14.01,2013-01-29 11:07:00,
2013-01-29 05:08:00,67.4,63.4,29.62,SE,142,9.0,18.0,87,0.00,,,0.00,VWS V14.01,2013-01-29 11:08:00,
2013-01-29 05:09:00,67.5,63.8,29.62,SSE,165,10.0,18.0,88,0.00,,,0.00,VWS V14.01,2013-01-29 11:09:00,
2013-01-29 05:10:00,67.7,63.7,29.63,SSE,149,6.0,13.0,87,0.00,,,0.00,VWS V14.01,2013-01-29 11:10:00,
2013-01-29 05:11:00,67.4,63.7,29.63,SSE,157,13.0,18.0,88,0.00,,,0.00,VWS V14.01,2013-01-29 11:11:00,
2013-01-29 05:12:00,67.4,63.7,29.63,SSE,149,7.0,18.0,88,0.00,,,0.00,VWS V14.01,2013-01-29 11:12:00,
2013-01-29 05:13:00,67.5,63.8,29.63,SSE,155,5.0,18.0,88,0.00,,,0.00,VWS V14.01,2013-01-29 11:13:00,
2013-01-29 05:14:00,67.4,63.7,29.63,SSE,158,5.0,18.0,88,0.00,,,0.00,VWS V14.01,2013-01-29 11:14:00,
2013-01-29 05:15:00,67.5,63.5,29.62,SSE,160,6.0,17.0,87,0.00,,,0.00,VWS V14.01,2013-01-29 11:15:00,
2013-01-29 05:16:00,67.4,63.7,29.63,SE,139,12.0,18.0,88,0.00,,,0.00,VWS V14.01,2013-01-29 11:16:00,
2013-01-29 05:17:00,67.5,63.8,29.63,SSE,150,11.0,18.0,88,0.00,,,0.00,VWS V14.01,2013-01-29 11:17:00,
2013-01-29 05:18:00,67.5,63.8,29.62,South,172,16.0,19.0,88,0.00,,,0.00,VWS V14.01,2013-01-29 11:18:00,
2013-01-29 05:19:00,67.5,63.8,29.62,South,184,4.0,19.0,88,0.00,,,0.00,VWS V14.01,2013-01-29 11:19:00,
2013-01-29 05:20:00,67.4,63.7,29.62,SE,144,7.0,18.0,88,0.00,,,0.00,VWS V14.01,2013-01-29 11:20:00,
2013-01-29 05:21:00,67.5,63.8,29.62,SSE,163,13.0,19.0,88,0.00,,,0.00,VWS V14.01,2013-01-29 11:21:00,
2013-01-29 05:22:00,67.5,63.8,29.62,SE,145,15.0,19.0,88,0.00,,,0.00,VWS V14.01,2013-01-29 11:22:00,
2013-01-29 05:23:00,67.5,63.8,29.62,South,184,13.0,19.0,88,0.00,,,0.00,VWS V14.01,2013-01-29 11:23:00,
2013-01-29 05:24:00,67.5,63.8,29.62,SE,136,10.0,19.0,88,0.00,,,0.00,VWS V14.01,2013-01-29 11:24:00,
2013-01-29 05:25:00,67.4,63.7,29.63,SSE,161,9.0,18.0,88,0.00,,,0.00,VWS V14.01,2013-01-29 11:25:00,
2013-01-29 05:26:00,67.5,63.8,29.62,SE,133,9.0,19.0,88,0.00,,,0.00,VWS V14.01,2013-01-29 11:26:00,
2013-01-29 05:27:00,67.6,63.9,29.63,SE,145,10.0,19.0,88,0.00,,,0.00,VWS V14.01,2013-01-29 11:27:00,
2013-01-29 05:28:00,67.6,63.9,29.63,SSE,150,18.0,19.0,88,0.00,,,0.00,VWS V14.01,2013-01-29 11:28:00,
2013-01-29 05:29:00,67.6,63.9,29.63,SSE,159,12.0,19.0,88,0.00,,,0.00,VWS V14.01,2013-01-29 11:29:00,
2013-01-29 05:30:00,67.5,63.8,29.62,South,169,14.0,19.0,88,0.00,,,0.00,VWS V14.01,2013-01-29 11:30:00,
2013-01-29 05:31:00,67.7,64.0,29.63,SE,142,5.0,16.0,88,0.00,,,0.00,VWS V14.01,2013-01-29 11:31:00,
2013-01-29 05:32:00,67.7,64.0,29.63,South,183,9.0,16.0,88,0.00,,,0.00,VWS V14.01,2013-01-29 11:32:00,
2013-01-29 05:33:00,67.7,64.0,29.63,SSE,148,12.0,16.0,88,0.00,,,0.00,VWS V14.01,2013-01-29 11:33:00,
2013-01-29 05:34:00,67.7,64.0,29.63,SSE,165,10.0,16.0,88,0.00,,,0.00,VWS V14.01,2013-01-29 11:34:00,
2013-01-29 05:35:00,67.6,63.9,29.62,SE,132,12.0,19.0,88,0.00,,,0.00,VWS V14.01,2013-01-29 11:35:00,
2013-01-29 05:36:00,67.6,63.9,29.62,SSE,151,4.0,16.0,88,0.00,,,0.00,VWS V14.01,2013-01-29 11:36:00,
2013-01-29 05:37:00,67.6,63.9,29.62,SSE,160,5.0,16.0,88,0.00,,,0.00,VWS V14.01,2013-01-29 11:37:00,
2013-01-29 05:38:00,67.6,63.9,29.62,SSE,156,9.0,16.0,88,0.00,,,0.00,VWS V14.01,2013-01-29 11:38:00,
2013-01-29 05:39:00,67.6,63.9,29.62,South,173,15.0,18.0,88,0.00,,,0.00,VWS V14.01,2013-01-29 11:39:00,
2013-01-29 05:40:00,67.7,64.0,29.63,South,169,6.0,16.0,88,0.00,,,0.00,VWS V14.01,2013-01-29 11:40:00,
2013-01-29 05:41:00,67.6,63.9,29.62,SE,144,4.0,18.0,88,0.00,,,0.00,VWS V14.01,2013-01-29 11:41:00,
2013-01-29 05:42:00,67.6,63.9,29.62,SSE,161,4.0,18.0,88,0.00,,,0.00,VWS V14.01,2013-01-29 11:42:00,
2013-01-29 05:43:00,67.6,63.9,29.62,SSE,153,11.0,18.0,88,0.00,,,0.00,VWS V14.01,2013-01-29 11:43:00,
2013-01-29 05:44:00,67.6,63.9,29.62,SSE,165,13.0,18.0,88,0.00,,,0.00,VWS V14.01,2013-01-29 11:44:00,
2013-01-29 05:45:00,67.7,64.0,29.62,SE,146,14.0,16.0,88,0.00,,,0.00,VWS V14.01,2013-01-29 11:45:00,
2013-01-29 05:46:00,67.6,63.9,29.62,SSE,153,7.0,18.0,88,0.00,,,0.00,VWS V14.01,2013-01-29 11:46:00,
2013-01-29 05:47:00,67.6,63.9,29.62,SSE,164,8.0,18.0,88,0.00,,,0.00,VWS V14.01,2013-01-29 11:47:00,
2013-01-29 05:48:00,67.6,63.9,29.62,South,177,3.0,18.0,88,0.00,,,0.00,VWS V14.01,2013-01-29 11:48:00,
2013-01-29 05:49:00,67.6,63.9,29.62,SSE,155,6.0,18.0,88,0.00,,,0.00,VWS V14.01,2013-01-29 11:49:00,
2013-01-29 05:50:00,67.6,63.9,29.62,SE,145,12.0,18.0,88,0.00,,,0.00,VWS V14.01,2013-01-29 11:50:00,
2013-01-29 05:51:00,67.5,63.8,29.61,SE,136,3.0,18.0,88,0.00,,,0.00,VWS V14.01,2013-01-29 11:51:00,
2013-01-29 05:52:00,67.5,63.8,29.62,SE,129,14.0,18.0,88,0.00,,,0.00,VWS V14.01,2013-01-29 11:52:00,
2013-01-29 05:53:00,67.5,63.8,29.62,SSE,163,5.0,18.0,88,0.00,,,0.00,VWS V14.01,2013-01-29 11:53:00,
2013-01-29 05:54:00,67.5,63.8,29.62,SE,136,3.0,18.0,88,0.00,,,0.00,VWS V14.01,2013-01-29 11:54:00,
2013-01-29 05:55:00,67.6,63.9,29.62,SSE,166,9.0,18.0,88,0.00,,,0.00,VWS V14.01,2013-01-29 11:55:00,
2013-01-29 05:56:00,67.5,63.8,29.61,SE,140,11.0,18.0,88,0.00,,,0.00,VWS V14.01,2013-01-29 11:56:00,
2013-01-29 05:57:00,67.5,63.8,29.61,SSE,167,9.0,18.0,88,0.00,,,0.00,VWS V14.01,2013-01-29 11:57:00,
2013-01-29 05:58:00,67.5,63.8,29.61,SSE,155,11.0,18.0,88,0.00,,,0.00,VWS V14.01,2013-01-29 11:58:00,
2013-01-29 05:59:00,67.5,63.8,29.62,SE,144,10.0,18.0,88,0.00,,,0.00,VWS V14.01,2013-01-29 11:59:00,
2013-01-29 06:00:00,67.5,63.8,29.61,ESE,121,13.0,18.0,88,0.00,,,0.00,VWS V14.01,2013-01-29 12:00:00,
2013-01-29 06:01:00,67.5,63.8,29.62,SE,145,4.0,14.0,88,0.00,,,0.00,VWS V14.01,2013-01-29 12:01:00,
2013-01-29 06:02:00,67.5,63.8,29.62,South,178,12.0,22.0,88,0.00,,,0.00,VWS V14.01,2013-01-29 12:02:00,
2013-01-29 06:03:00,67.5,63.8,29.62,SE,134,15.0,22.0,88,0.00,,,0.00,VWS V14.01,2013-01-29 12:03:00,
2013-01-29 06:04:00,67.5,63.8,29.61,SE,144,14.0,22.0,88,0.00,,,0.00,VWS V14.01,2013-01-29 12:04:00,
2013-01-29 06:05:00,67.5,63.8,29.61,SSE,156,10.0,18.0,88,0.00,,,0.00,VWS V14.01,2013-01-29 12:05:00,
2013-01-29 06:06:00,67.5,63.8,29.61,SE,145,6.0,22.0,88,0.00,,,0.00,VWS V14.01,2013-01-29 12:06:00,
2013-01-29 06:07:00,67.5,63.8,29.61,SE,141,7.0,22.0,88,0.00,,,0.00,VWS V14.01,2013-01-29 12:07:00,
2013-01-29 06:08:00,67.6,63.9,29.61,SE,128,5.0,22.0,88,0.00,,,0.00,VWS V14.01,2013-01-29 12:08:00,
2013-01-29 06:09:00,67.5,63.8,29.61,SSE,155,9.0,22.0,88,0.00,,,0.00,VWS V14.01,2013-01-29 12:09:00,
2013-01-29 06:10:00,67.5,63.8,29.62,SSE,163,5.0,14.0,88,0.00,,,0.00,VWS V14.01,2013-01-29 12:10:00,
2013-01-29 06:11:00,67.5,63.8,29.61,South,171,3.0,22.0,88,0.00,,,0.00,VWS V14.01,2013-01-29 12:11:00,
2013-01-29 06:12:00,67.5,63.8,29.61,South,176,3.0,22.0,88,0.00,,,0.00,VWS V14.01,2013-01-29 12:12:00,
2013-01-29 06:13:00,67.5,63.8,29.61,SE,139,13.0,22.0,88,0.00,,,0.00,VWS V14.01,2013-01-29 12:13:00,
2013-01-29 06:14:00,67.5,63.8,29.61,SE,145,15.0,22.0,88,0.00,,,0.00,VWS V14.01,2013-01-29 12:14:00,
2013-01-29 06:15:00,67.5,63.8,29.61,South,182,12.0,22.0,88,0.00,,,0.00,VWS V14.01,2013-01-29 12:15:00,
2013-01-29 06:16:00,67.5,63.8,29.61,SE,146,9.0,22.0,88,0.00,,,0.00,VWS V14.01,2013-01-29 12:16:00,
2013-01-29 06:17:00,67.5,63.8,29.60,South,169,12.0,22.0,88,0.00,,,0.00,VWS V14.01,2013-01-29 12:17:00,
2013-01-29 06:18:00,67.5,63.8,29.60,SSE,164,10.0,22.0,88,0.00,,,0.00,VWS V14.01,2013-01-29 12:18:00,
2013-01-29 06:19:00,67.5,63.8,29.61,SE,146,16.0,22.0,88,0.00,,,0.00,VWS V14.01,2013-01-29 12:19:00,
2013-01-29 06:20:00,67.5,63.8,29.61,SSE,148,5.0,22.0,88,0.00,,,0.00,VWS V14.01,2013-01-29 12:20:00,
2013-01-29 06:21:00,67.4,63.7,29.60,SE,136,10.0,22.0,88,0.00,,,0.00,VWS V14.01,2013-01-29 12:21:00,
2013-01-29 06:22:00,67.4,63.7,29.60,SE,137,16.0,22.0,88,0.00,,,0.00,VWS V14.01,2013-01-29 12:22:00,
2013-01-29 06:23:00,67.4,63.7,29.60,SSE,167,10.0,22.0,88,0.00,,,0.00,VWS V14.01,2013-01-29 12:23:00,
2013-01-29 06:24:00,67.4,63.7,29.60,SSE,165,10.0,22.0,88,0.00,,,0.00,VWS V14.01,2013-01-29 12:24:00,
2013-01-29 06:25:00,67.5,63.8,29.61,SSE,167,3.0,22.0,88,0.00,,,0.00,VWS V14.01,2013-01-29 12:25:00,
2013-01-29 06:26:00,67.4,64.1,29.61,South,173,5.0,23.0,89,0.00,,,0.00,VWS V14.01,2013-01-29 12:26:00,
2013-01-29 06:27:00,67.4,64.1,29.60,SSE,158,10.0,23.0,89,0.00,,,0.00,VWS V14.01,2013-01-29 12:27:00,
2013-01-29 06:28:00,67.3,64.0,29.60,SSE,162,15.0,23.0,89,0.00,,,0.00,VWS V14.01,2013-01-29 12:28:00,
2013-01-29 06:29:00,67.3,63.6,29.61,SSE,156,7.0,23.0,88,0.00,,,0.00,VWS V14.01,2013-01-29 12:29:00,
2013-01-29 06:30:00,67.4,63.7,29.60,South,169,16.0,22.0,88,0.00,,,0.00,VWS V14.01,2013-01-29 12:30:00,
2013-01-29 06:31:00,67.3,64.0,29.60,SSE,153,15.0,19.0,89,0.00,,,0.00,VWS V14.01,2013-01-29 12:31:00,
2013-01-29 06:32:00,67.2,63.8,29.60,SSE,164,10.0,19.0,89,0.00,,,0.00,VWS V14.01,2013-01-29 12:32:00,
2013-01-29 06:33:00,67.2,63.8,29.61,SSE,153,13.0,19.0,89,0.00,,,0.00,VWS V14.01,2013-01-29 12:33:00,
2013-01-29 06:34:00,67.2,63.8,29.60,SSE,154,5.0,19.0,89,0.00,,,0.00,VWS V14.01,2013-01-29 12:34:00,
2013-01-29 06:35:00,67.4,64.1,29.61,SSW,212,11.0,23.0,89,0.00,,,0.00,VWS V14.01,2013-01-29 12:35:00,
2013-01-29 06:36:00,67.1,63.8,29.60,SSE,162,11.0,20.0,89,0.00,,,0.00,VWS V14.01,2013-01-29 12:36:00,
2013-01-29 06:37:00,67.1,63.8,29.60,SSE,148,5.0,20.0,89,0.00,,,0.00,VWS V14.01,2013-01-29 12:37:00,
2013-01-29 06:38:00,67.1,63.8,29.60,SSE,166,10.0,21.0,89,0.00,,,0.00,VWS V14.01,2013-01-29 12:38:00,
2013-01-29 06:39:00,67.0,63.7,29.60,South,175,12.0,21.0,89,0.00,,,0.00,VWS V14.01,2013-01-29 12:39:00,
2013-01-29 06:40:00,67.3,64.0,29.60,SSW,199,19.0,19.0,89,0.00,,,0.00,VWS V14.01,2013-01-29 12:40:00,
2013-01-29 06:41:00,67.0,63.7,29.60,SSE,150,10.0,21.0,89,0.00,,,0.00,VWS V14.01,2013-01-29 12:41:00,
2013-01-29 06:43:00,66.9,63.6,29.60,SSE,159,10.0,21.0,89,0.00,,,0.00,VWS V14.01,2013-01-29 12:43:00,
2013-01-29 06:44:00,66.9,63.6,29.60,SSE,156,6.0,21.0,89,0.00,,,0.00,VWS V14.01,2013-01-29 12:44:00,
2013-01-29 06:45:00,67.1,63.8,29.60,SSE,156,4.0,19.0,89,0.00,,,0.00,VWS V14.01,2013-01-29 12:45:00,
2013-01-29 06:46:00,66.9,63.6,29.60,SSE,160,14.0,22.0,89,0.00,,,0.00,VWS V14.01,2013-01-29 12:46:00,
2013-01-29 06:47:00,66.9,63.9,29.60,SSE,163,9.0,22.0,90,0.00,,,0.00,VWS V14.01,2013-01-29 12:47:00,
2013-01-29 06:48:00,66.9,63.9,29.60,SSE,156,12.0,22.0,90,0.00,,,0.00,VWS V14.01,2013-01-29 12:48:00,
2013-01-29 06:49:00,66.9,63.9,29.60,SE,136,7.0,22.0,90,0.00,,,0.00,VWS V14.01,2013-01-29 12:49:00,
2013-01-29 06:50:00,67.0,63.7,29.60,SSE,159,12.0,21.0,89,0.00,,,0.00,VWS V14.01,2013-01-29 12:50:00,
2013-01-29 06:51:00,66.8,63.8,29.59,SSE,167,6.0,22.0,90,0.00,,,0.00,VWS V14.01,2013-01-29 12:51:00,
2013-01-29 06:52:00,66.8,63.8,29.59,SSE,159,6.0,22.0,90,0.00,,,0.00,VWS V14.01,2013-01-29 12:52:00,
2013-01-29 06:53:00,66.8,63.8,29.59,SSE,153,14.0,22.0,90,0.00,,,0.00,VWS V14.01,2013-01-29 12:53:00,
2013-01-29 06:54:00,66.8,63.8,29.59,East,101,13.0,22.0,90,0.00,,,0.00,VWS V14.01,2013-01-29 12:54:00,
2013-01-29 06:55:00,66.9,63.6,29.60,SSE,150,12.0,22.0,89,0.00,,,0.00,VWS V14.01,2013-01-29 12:55:00,
2013-01-29 06:56:00,66.8,63.8,29.59,SSE,150,11.0,22.0,90,0.00,,,0.00,VWS V14.01,2013-01-29 12:56:00,
2013-01-29 06:57:00,66.8,63.8,29.59,SSE,167,7.0,22.0,90,0.00,,,0.00,VWS V14.01,2013-01-29 12:57:00,
2013-01-29 06:58:00,66.8,63.8,29.59,South,175,7.0,22.0,90,0.00,,,0.00,VWS V14.01,2013-01-29 12:58:00,
2013-01-29 06:59:00,66.8,63.8,29.59,SSE,167,11.0,22.0,90,0.00,,,0.00,VWS V14.01,2013-01-29 12:59:00,
2013-01-29 07:00:00,66.8,63.8,29.59,SE,132,13.0,22.0,90,0.00,,,0.00,VWS V14.01,2013-01-29 13:00:00,
2013-01-29 07:01:00,66.8,63.8,29.59,SSE,156,12.0,19.0,90,0.00,,,0.00,VWS V14.01,2013-01-29 13:01:00,
2013-01-29 07:02:00,66.8,63.8,29.59,SSE,160,4.0,19.0,90,0.00,,,0.00,VWS V14.01,2013-01-29 13:02:00,
2013-01-29 07:03:00,66.8,63.8,29.59,SSE,165,9.0,19.0,90,0.00,,,0.00,VWS V14.01,2013-01-29 13:03:00,
2013-01-29 07:04:00,66.8,63.8,29.59,South,176,13.0,19.0,90,0.00,,,0.00,VWS V14.01,2013-01-29 13:04:00,
2013-01-29 07:05:00,66.8,63.8,29.59,SSE,151,12.0,22.0,90,0.00,,,0.00,VWS V14.01,2013-01-29 13:05:00,
2013-01-29 07:06:00,66.8,63.8,29.59,South,178,6.0,19.0,90,0.00,,,0.00,VWS V14.01,2013-01-29 13:06:00,
2013-01-29 07:07:00,66.8,63.8,29.59,SSE,154,8.0,19.0,90,0.00,,,0.00,VWS V14.01,2013-01-29 13:07:00,
2013-01-29 07:08:00,66.8,63.8,29.59,SE,141,4.0,19.0,90,0.00,,,0.00,VWS V14.01,2013-01-29 13:08:00,
2013-01-29 07:09:00,66.8,63.8,29.59,SE,145,8.0,19.0,90,0.00,,,0.00,VWS V14.01,2013-01-29 13:09:00,
2013-01-29 07:10:00,66.7,63.7,29.59,South,173,5.0,19.0,90,0.00,,,0.00,VWS V14.01,2013-01-29 13:10:00,
2013-01-29 07:11:00,66.8,63.8,29.59,SSE,148,9.0,20.0,90,0.00,,,0.00,VWS V14.01,2013-01-29 13:11:00,
2013-01-29 07:12:00,66.9,63.9,29.59,SSE,149,7.0,20.0,90,0.00,,,0.00,VWS V14.01,2013-01-29 13:12:00,
2013-01-29 07:13:00,66.9,63.9,29.59,SSE,164,11.0,20.0,90,0.00,,,0.00,VWS V14.01,2013-01-29 13:13:00,
2013-01-29 07:14:00,66.9,63.9,29.59,SSE,165,10.0,20.0,90,0.00,,,0.00,VWS V14.01,2013-01-29 13:14:00,
2013-01-29 07:15:00,66.8,63.8,29.59,SSE,147,12.0,19.0,90,0.00,,,0.00,VWS V14.01,2013-01-29 13:15:00,
2013-01-29 07:16:00,66.9,63.9,29.59,SE,132,8.0,20.0,90,0.00,,,0.00,VWS V14.01,2013-01-29 13:16:00,
2013-01-29 07:17:00,66.9,63.9,29.59,SSE,159,11.0,20.0,90,0.00,,,0.00,VWS V14.01,2013-01-29 13:17:00,
2013-01-29 07:18:00,66.9,63.9,29.59,SE,139,7.0,20.0,90,0.00,,,0.00,VWS V14.01,2013-01-29 13:18:00,
2013-01-29 07:19:00,66.9,63.9,29.59,SE,134,13.0,20.0,90,0.00,,,0.00,VWS V14.01,2013-01-29 13:19:00,
2013-01-29 07:20:00,66.8,63.8,29.59,SSE,160,10.0,19.0,90,0.00,,,0.00,VWS V14.01,2013-01-29 13:20:00,
2013-01-29 07:21:00,66.9,63.9,29.59,SE,145,13.0,20.0,90,0.00,,,0.00,VWS V14.01,2013-01-29 13:21:00,
2013-01-29 07:22:00,67.0,64.0,29.58,SE,146,5.0,20.0,90,0.00,,,0.00,VWS V14.01,2013-01-29 13:22:00,
2013-01-29 07:23:00,67.0,64.0,29.59,SSE,159,13.0,20.0,90,0.00,,,0.00,VWS V14.01,2013-01-29 13:23:00,
2013-01-29 07:24:00,67.0,64.0,29.59,SSE,155,14.0,20.0,90,0.00,,,0.00,VWS V14.01,2013-01-29 13:24:00,
2013-01-29 07:25:00,66.9,63.9,29.59,SSE,159,11.0,20.0,90,0.00,,,0.00,VWS V14.01,2013-01-29 13:25:00,
2013-01-29 07:26:00,67.1,64.1,29.58,SSE,165,8.0,20.0,90,0.00,,,0.00,VWS V14.01,2013-01-29 13:26:00,
2013-01-29 07:27:00,67.1,64.1,29.58,SE,131,5.0,20.0,90,0.00,,,0.00,VWS V14.01,2013-01-29 13:27:00,
2013-01-29 07:28:00,67.1,64.1,29.58,SSE,157,3.0,20.0,90,0.00,,,0.00,VWS V14.01,2013-01-29 13:28:00,
2013-01-29 07:29:00,67.1,64.1,29.58,South,180,12.0,20.0,90,0.00,,,0.00,VWS V14.01,2013-01-29 13:29:00,
2013-01-29 07:30:00,66.9,63.9,29.59,SSE,160,7.0,20.0,90,0.00,,,0.00,VWS V14.01,2013-01-29 13:30:00,
2013-01-29 07:32:00,67.2,64.2,29.58,SSE,155,6.0,20.0,90,0.00,,,0.00,VWS V14.01,2013-01-29 13:32:00,
2013-01-29 07:33:00,67.2,64.2,29.58,SSE,157,12.0,20.0,90,0.00,,,0.00,VWS V14.01,2013-01-29 13:33:00,
2013-01-29 07:34:00,67.2,64.2,29.58,SE,144,4.0,20.0,90,0.00,,,0.00,VWS V14.01,2013-01-29 13:34:00,
2013-01-29 07:35:00,67.0,64.0,29.58,South,173,13.0,20.0,90,0.00,,,0.00,VWS V14.01,2013-01-29 13:35:00,
2013-01-29 07:36:00,67.2,64.2,29.58,SSE,154,10.0,21.0,90,0.00,,,0.00,VWS V14.01,2013-01-29 13:36:00,
2013-01-29 07:37:00,67.2,64.2,29.58,SSE,167,9.0,21.0,90,0.00,,,0.00,VWS V14.01,2013-01-29 13:37:00,
2013-01-29 07:38:00,67.2,64.2,29.58,SSE,162,10.0,21.0,90,0.00,,,0.00,VWS V14.01,2013-01-29 13:38:00,
2013-01-29 07:39:00,67.3,64.0,29.58,SSE,162,9.0,21.0,89,0.00,,,0.00,VWS V14.01,2013-01-29 13:39:00,
2013-01-29 07:40:00,67.2,64.2,29.58,SE,142,5.0,20.0,90,0.00,,,0.00,VWS V14.01,2013-01-29 13:40:00,
2013-01-29 07:41:00,67.3,64.0,29.59,SSE,164,7.0,21.0,89,0.00,,,0.00,VWS V14.01,2013-01-29 13:41:00,
2013-01-29 07:42:00,67.4,64.1,29.59,South,174,6.0,21.0,89,0.00,,,0.00,VWS V14.01,2013-01-29 13:42:00,
2013-01-29 07:43:00,67.4,64.1,29.58,SSE,166,5.0,21.0,89,0.00,,,0.00,VWS V14.01,2013-01-29 13:43:00,
2013-01-29 07:44:00,67.4,64.1,29.58,SSE,162,6.0,21.0,89,0.00,,,0.00,VWS V14.01,2013-01-29 13:44:00,
2013-01-29 07:45:00,67.2,64.2,29.58,SSE,163,13.0,21.0,90,0.00,,,0.00,VWS V14.01,2013-01-29 13:45:00,
2013-01-29 07:46:00,67.4,64.1,29.58,ESE,111,15.0,21.0,89,0.00,,,0.00,VWS V14.01,2013-01-29 13:46:00,
2013-01-29 07:47:00,67.4,64.1,29.58,SSE,158,12.0,21.0,89,0.00,,,0.00,VWS V14.01,2013-01-29 13:47:00,
2013-01-29 07:48:00,67.5,64.2,29.58,SSE,155,15.0,21.0,89,0.00,,,0.00,VWS V14.01,2013-01-29 13:48:00,
2013-01-29 07:49:00,67.5,64.2,29.58,South,173,7.0,21.0,89,0.00,,,0.00,VWS V14.01,2013-01-29 13:49:00,
2013-01-29 07:50:00,67.3,64.0,29.59,SSE,156,12.0,21.0,89,0.00,,,0.00,VWS V14.01,2013-01-29 13:50:00,
2013-01-29 07:51:00,67.5,64.2,29.58,SE,130,8.0,21.0,89,0.00,,,0.00,VWS V14.01,2013-01-29 13:51:00,
2013-01-29 07:52:00,67.5,64.2,29.58,SE,136,4.0,21.0,89,0.00,,,0.00,VWS V14.01,2013-01-29 13:52:00,
2013-01-29 07:53:00,67.5,64.2,29.58,SE,141,9.0,21.0,89,0.00,,,0.00,VWS V14.01,2013-01-29 13:53:00,
2013-01-29 07:54:00,67.6,64.2,29.58,SSE,152,7.0,21.0,89,0.00,,,0.00,VWS V14.01,2013-01-29 13:54:00,
2013-01-29 07:55:00,67.4,64.1,29.58,SE,145,15.0,21.0,89,0.00,,,0.00,VWS V14.01,2013-01-29 13:55:00,
2013-01-29 07:56:00,67.6,64.2,29.58,SSE,159,8.0,21.0,89,0.00,,,0.00,VWS V14.01,2013-01-29 13:56:00,
2013-01-29 07:57:00,67.7,64.3,29.58,SE,144,12.0,21.0,89,0.00,,,0.00,VWS V14.01,2013-01-29 13:57:00,
2013-01-29 07:58:00,67.7,64.3,29.58,SSE,163,7.0,21.0,89,0.00,,,0.00,VWS V14.01,2013-01-29 13:58:00,
2013-01-29 07:59:00,67.7,64.3,29.58,South,174,11.0,21.0,89,0.00,,,0.00,VWS V14.01,2013-01-29 13:59:00,
2013-01-29 08:00:00,67.5,64.2,29.58,ESE,115,10.0,21.0,89,0.00,,,0.00,VWS V14.01,2013-01-29 14:00:00,
2013-01-29 08:01:00,67.8,64.4,29.58,SSE,155,5.0,19.0,89,0.00,,,0.00,VWS V14.01,2013-01-29 14:01:00,
2013-01-29 08:02:00,67.8,64.4,29.58,SE,135,12.0,19.0,89,0.00,,,0.00,VWS V14.01,2013-01-29 14:02:00,
2013-01-29 08:03:00,67.8,64.4,29.58,SE,145,3.0,19.0,89,0.00,,,0.00,VWS V14.01,2013-01-29 14:03:00,
2013-01-29 08:04:00,67.8,64.1,29.58,SE,140,15.0,19.0,88,0.00,,,0.00,VWS V14.01,2013-01-29 14:04:00,
2013-01-29 08:05:00,67.6,64.2,29.58,SSE,150,13.0,21.0,89,0.00,,,0.00,VWS V14.01,2013-01-29 14:05:00,
2013-01-29 08:06:00,67.8,64.1,29.58,SSE,158,9.0,19.0,88,0.00,,,0.00,VWS V14.01,2013-01-29 14:06:00,
2013-01-29 08:07:00,67.8,64.1,29.58,SSE,163,7.0,19.0,88,0.00,,,0.00,VWS V14.01,2013-01-29 14:07:00,
2013-01-29 08:08:00,67.8,64.1,29.58,South,169,7.0,19.0,88,0.00,,,0.00,VWS V14.01,2013-01-29 14:08:00,
2013-01-29 08:09:00,67.8,64.1,29.58,SE,144,4.0,19.0,88,0.00,,,0.00,VWS V14.01,2013-01-29 14:09:00,
2013-01-29 08:10:00,67.8,64.4,29.58,SSE,150,11.0,19.0,89,0.00,,,0.00,VWS V14.01,2013-01-29 14:10:00,
2013-01-29 08:11:00,67.8,64.1,29.59,South,171,5.0,19.0,88,0.00,,,0.00,VWS V14.01,2013-01-29 14:11:00,
2013-01-29 08:12:00,67.8,64.1,29.59,SE,138,8.0,19.0,88,0.00,,,0.00,VWS V14.01,2013-01-29 14:12:00,
2013-01-29 08:13:00,67.8,64.1,29.59,South,182,5.0,19.0,88,0.00,,,0.00,VWS V14.01,2013-01-29 14:13:00,
2013-01-29 08:14:00,67.8,64.1,29.59,SSE,163,2.0,19.0,88,0.00,,,0.00,VWS V14.01,2013-01-29 14:14:00,
2013-01-29 08:15:00,67.8,64.1,29.58,SE,142,12.0,19.0,88,0.00,,,0.00,VWS V14.01,2013-01-29 14:15:00,
2013-01-29 08:16:00,67.8,64.1,29.59,SSE,166,3.0,19.0,88,0.00,,,0.00,VWS V14.01,2013-01-29 14:16:00,
2013-01-29 08:17:00,67.9,64.2,29.59,SSE,153,11.0,19.0,88,0.00,,,0.00,VWS V14.01,2013-01-29 14:17:00,
2013-01-29 08:18:00,67.9,64.2,29.59,SE,145,11.0,19.0,88,0.00,,,0.00,VWS V14.01,2013-01-29 14:18:00,
2013-01-29 08:19:00,67.9,64.2,29.59,SSE,151,11.0,19.0,88,0.00,,,0.00,VWS V14.01,2013-01-29 14:19:00,
2013-01-29 08:20:00,67.8,64.1,29.59,SSE,158,14.0,19.0,88,0.00,,,0.00,VWS V14.01,2013-01-29 14:20:00,
2013-01-29 08:21:00,67.9,64.2,29.59,SSE,150,9.0,19.0,88,0.00,,,0.00,VWS V14.01,2013-01-29 14:21:00,
2013-01-29 08:22:00,67.9,64.2,29.59,SSE,164,7.0,19.0,88,0.00,,,0.00,VWS V14.01,2013-01-29 14:22:00,
2013-01-29 08:23:00,68.0,64.3,29.58,SSE,167,10.0,19.0,88,0.00,,,0.00,VWS V14.01,2013-01-29 14:23:00,
2013-01-29 08:24:00,68.0,64.3,29.59,SE,145,7.0,19.0,88,0.00,,,0.00,VWS V14.01,2013-01-29 14:24:00,
2013-01-29 08:25:00,67.9,64.2,29.59,SE,128,12.0,19.0,88,0.00,,,0.00,VWS V14.01,2013-01-29 14:25:00,
2013-01-29 08:26:00,68.0,64.3,29.58,South,179,6.0,19.0,88,0.00,,,0.00,VWS V14.01,2013-01-29 14:26:00,
2013-01-29 08:27:00,68.1,64.4,29.58,South,170,8.0,19.0,88,0.00,,,0.00,VWS V14.01,2013-01-29 14:27:00,
2013-01-29 08:28:00,68.1,64.4,29.59,SE,130,7.0,19.0,88,0.00,,,0.00,VWS V14.01,2013-01-29 14:28:00,
2013-01-29 08:29:00,68.1,64.4,29.58,SSE,159,3.0,19.0,88,0.00,,,0.00,VWS V14.01,2013-01-29 14:29:00,
2013-01-29 08:30:00,67.9,64.2,29.59,South,173,6.0,19.0,88,0.00,,,0.00,VWS V14.01,2013-01-29 14:30:00,
2013-01-29 08:31:00,68.2,64.5,29.58,SE,142,3.0,15.0,88,0.00,,,0.00,VWS V14.01,2013-01-29 14:31:00,
2013-01-29 08:32:00,68.2,64.5,29.58,SSE,157,16.0,16.0,88,0.00,,,0.00,VWS V14.01,2013-01-29 14:32:00,
2013-01-29 08:33:00,68.2,64.5,29.58,SE,141,10.0,16.0,88,0.00,,,0.00,VWS V14.01,2013-01-29 14:33:00,
2013-01-29 08:34:00,68.2,64.5,29.58,SSE,153,7.0,16.0,88,0.00,,,0.00,VWS V14.01,2013-01-29 14:34:00,
2013-01-29 08:35:00,68.0,64.3,29.58,SSE,161,10.0,19.0,88,0.00,,,0.00,VWS V14.01,2013-01-29 14:35:00,
2013-01-29 08:36:00,68.3,64.6,29.58,South,173,4.0,16.0,88,0.00,,,0.00,VWS V14.01,2013-01-29 14:36:00,
2013-01-29 08:37:00,68.3,64.6,29.58,South,174,4.0,16.0,88,0.00,,,0.00,VWS V14.01,2013-01-29 14:37:00,
2013-01-29 08:38:00,68.3,64.6,29.58,SSE,165,3.0,16.0,88,0.00,,,0.00,VWS V14.01,2013-01-29 14:38:00,
2013-01-29 08:39:00,68.3,64.6,29.58,SSE,163,5.0,16.0,88,0.00,,,0.00,VWS V14.01,2013-01-29 14:39:00,
2013-01-29 08:40:00,68.2,64.5,29.58,SSE,155,7.0,15.0,88,0.00,,,0.00,VWS V14.01,2013-01-29 14:40:00,
2013-01-29 08:41:00,68.3,64.3,29.58,SSE,148,12.0,16.0,87,0.00,,,0.00,VWS V14.01,2013-01-29 14:41:00,
2013-01-29 08:42:00,68.3,64.3,29.58,SSE,149,12.0,16.0,87,0.00,,,0.00,VWS V14.01,2013-01-29 14:42:00,
2013-01-29 08:43:00,68.4,64.4,29.58,South,179,7.0,16.0,87,0.00,,,0.00,VWS V14.01,2013-01-29 14:43:00,
2013-01-29 08:44:00,68.4,64.4,29.58,ESE,123,7.0,16.0,87,0.00,,,0.00,VWS V14.01,2013-01-29 14:44:00,
2013-01-29 08:45:00,68.3,64.6,29.58,SSE,157,3.0,16.0,88,0.00,,,0.00,VWS V14.01,2013-01-29 14:45:00,
2013-01-29 08:46:00,68.5,64.5,29.58,SSE,148,9.0,16.0,87,0.00,,,0.00,VWS V14.01,2013-01-29 14:46:00,
2013-01-29 08:47:00,68.5,64.5,29.58,South,169,4.0,16.0,87,0.00,,,0.00,VWS V14.01,2013-01-29 14:47:00,
2013-01-29 08:48:00,68.5,64.5,29.58,SE,144,6.0,16.0,87,0.00,,,0.00,VWS V14.01,2013-01-29 14:48:00,
2013-01-29 08:49:00,68.6,64.6,29.58,SSE,148,4.0,16.0,87,0.00,,,0.00,VWS V14.01,2013-01-29 14:49:00,
2013-01-29 08:50:00,68.3,64.6,29.58,SSE,162,10.0,16.0,88,0.00,,,0.00,VWS V14.01,2013-01-29 14:50:00,
2013-01-29 08:51:00,68.6,64.6,29.58,SSE,152,4.0,16.0,87,0.00,,,0.00,VWS V14.01,2013-01-29 14:51:00,
2013-01-29 08:52:00,68.6,64.6,29.58,South,178,10.0,16.0,87,0.00,,,0.00,VWS V14.01,2013-01-29 14:52:00,
2013-01-29 08:53:00,68.7,64.7,29.58,SSE,150,3.0,16.0,87,0.00,,,0.00,VWS V14.01,2013-01-29 14:53:00,
2013-01-29 08:54:00,68.7,64.7,29.58,SSE,157,13.0,16.0,87,0.00,,,0.00,VWS V14.01,2013-01-29 14:54:00,
2013-01-29 08:55:00,68.5,64.5,29.58,SSE,148,6.0,16.0,87,0.00,,,0.00,VWS V14.01,2013-01-29 14:55:00,
2013-01-29 08:56:00,68.8,64.4,29.58,SSE,168,5.0,16.0,86,0.00,,,0.00,VWS V14.01,2013-01-29 14:56:00,
2013-01-29 08:57:00,68.9,64.6,29.58,SSE,163,9.0,16.0,86,0.00,,,0.00,VWS V14.01,2013-01-29 14:57:00,
2013-01-29 08:58:00,68.9,64.6,29.58,SSE,168,4.0,16.0,86,0.00,,,0.00,VWS V14.01,2013-01-29 14:58:00,
2013-01-29 08:59:00,69.0,64.6,29.58,SSE,155,4.0,16.0,86,0.00,,,0.00,VWS V14.01,2013-01-29 14:59:00,
2013-01-29 09:00:00,68.6,64.6,29.58,SSE,158,6.0,16.0,87,0.00,,,0.00,VWS V14.01,2013-01-29 15:00:00,
2013-01-29 09:01:00,69.0,64.6,29.57,SSE,151,9.0,13.0,86,0.00,,,0.00,VWS V14.01,2013-01-29 15:01:00,
2013-01-29 09:02:00,69.0,64.6,29.57,SSE,157,5.0,14.0,86,0.00,,,0.00,VWS V14.01,2013-01-29 15:02:00,
2013-01-29 09:03:00,69.1,64.7,29.57,SSW,194,5.0,14.0,86,0.00,,,0.00,VWS V14.01,2013-01-29 15:03:00,
2013-01-29 09:04:00,69.1,64.4,29.57,SSW,193,11.0,14.0,85,0.00,,,0.00,VWS V14.01,2013-01-29 15:04:00,
2013-01-29 09:05:00,68.8,64.4,29.58,SSE,159,12.0,16.0,86,0.00,,,0.00,VWS V14.01,2013-01-29 15:05:00,
2013-01-29 09:06:00,69.1,64.4,29.57,South,172,3.0,14.0,85,0.00,,,0.00,VWS V14.01,2013-01-29 15:06:00,
2013-01-29 09:07:00,69.1,64.4,29.57,SSE,155,7.0,14.0,85,0.00,,,0.00,VWS V14.01,2013-01-29 15:07:00,
2013-01-29 09:08:00,69.1,64.4,29.57,SSE,157,4.0,14.0,85,0.00,,,0.00,VWS V14.01,2013-01-29 15:08:00,
2013-01-29 09:09:00,69.1,64.4,29.57,SSE,155,2.0,14.0,85,0.00,,,0.00,VWS V14.01,2013-01-29 15:09:00,
2013-01-29 09:10:00,69.0,64.6,29.57,SE,138,3.0,13.0,86,0.00,,,0.00,VWS V14.01,2013-01-29 15:10:00,
2013-01-29 09:11:00,69.1,64.4,29.57,SSE,161,4.0,15.0,85,0.00,,,0.00,VWS V14.01,2013-01-29 15:11:00,
2013-01-29 09:12:00,69.1,64.4,29.57,SSW,193,5.0,15.0,85,0.00,,,0.00,VWS V14.01,2013-01-29 15:12:00,
2013-01-29 09:13:00,69.1,64.4,29.57,SSE,163,5.0,15.0,85,0.00,,,0.00,VWS V14.01,2013-01-29 15:13:00,
2013-01-29 09:14:00,69.2,64.5,29.57,SSE,160,5.0,15.0,85,0.00,,,0.00,VWS V14.01,2013-01-29 15:14:00,
2013-01-29 09:15:00,69.2,64.5,29.57,South,170,5.0,15.0,85,0.00,,,0.00,VWS V14.01,2013-01-29 15:15:00,
2013-01-29 09:16:00,69.1,64.4,29.57,SSE,147,6.0,14.0,85,0.00,,,0.00,VWS V14.01,2013-01-29 15:16:00,
2013-01-29 09:17:00,69.3,64.6,29.57,South,169,8.0,17.0,85,0.00,,,0.00,VWS V14.01,2013-01-29 15:17:00,
2013-01-29 09:18:00,69.3,64.6,29.57,SSE,150,4.0,17.0,85,0.00,,,0.00,VWS V14.01,2013-01-29 15:18:00,
2013-01-29 09:19:00,69.4,64.7,29.57,SSE,153,2.0,17.0,85,0.00,,,0.00,VWS V14.01,2013-01-29 15:19:00,
2013-01-29 09:20:00,69.4,64.7,29.57,SSE,165,4.0,17.0,85,0.00,,,0.00,VWS V14.01,2013-01-29 15:20:00,
2013-01-29 09:21:00,69.1,64.4,29.57,SSE,161,4.0,15.0,85,0.00,,,0.00,VWS V14.01,2013-01-29 15:21:00,
2013-01-29 09:22:00,69.4,64.7,29.57,SSE,151,10.0,17.0,85,0.00,,,0.00,VWS V14.01,2013-01-29 15:22:00,
2013-01-29 09:23:00,69.4,64.7,29.57,SSE,162,5.0,17.0,85,0.00,,,0.00,VWS V14.01,2013-01-29 15:23:00,
2013-01-29 09:24:00,69.4,64.7,29.57,SE,146,13.0,17.0,85,0.00,,,0.00,VWS V14.01,2013-01-29 15:24:00,
2013-01-29 09:25:00,69.4,64.7,29.57,South,175,4.0,17.0,85,0.00,,,0.00,VWS V14.01,2013-01-29 15:25:00,
2013-01-29 09:26:00,69.3,64.6,29.57,SE,139,7.0,17.0,85,0.00,,,0.00,VWS V14.01,2013-01-29 15:26:00,
2013-01-29 09:27:00,69.4,64.4,29.57,SSE,159,3.0,17.0,84,0.00,,,0.00,VWS V14.01,2013-01-29 15:27:00,
2013-01-29 09:28:00,69.4,64.7,29.57,South,176,10.0,17.0,85,0.00,,,0.00,VWS V14.01,2013-01-29 15:28:00,
2013-01-29 09:29:00,69.4,64.7,29.57,SE,136,11.0,17.0,85,0.00,,,0.00,VWS V14.01,2013-01-29 15:29:00,
2013-01-29 09:30:00,69.4,64.7,29.57,South,169,5.0,12.0,85,0.00,,,0.00,VWS V14.01,2013-01-29 15:30:00,
2013-01-29 09:31:00,69.4,64.7,29.57,SE,146,6.0,17.0,85,0.00,,,0.00,VWS V14.01,2013-01-29 15:31:00,
2013-01-29 09:32:00,69.4,64.7,29.56,South,172,10.0,14.0,85,0.00,,,0.00,VWS V14.01,2013-01-29 15:32:00,
2013-01-29 09:33:00,69.4,64.7,29.56,SSE,159,5.0,14.0,85,0.00,,,0.00,VWS V14.01,2013-01-29 15:33:00,
2013-01-29 09:34:00,69.4,64.4,29.56,SSE,148,6.0,14.0,84,0.00,,,0.00,VWS V14.01,2013-01-29 15:34:00,
2013-01-29 09:35:00,69.4,64.4,29.56,SE,135,5.0,14.0,84,0.00,,,0.00,VWS V14.01,2013-01-29 15:35:00,
2013-01-29 09:36:00,69.4,64.4,29.57,SE,126,7.0,17.0,84,0.00,,,0.00,VWS V14.01,2013-01-29 15:36:00,
2013-01-29 09:37:00,69.5,64.5,29.56,SSE,168,6.0,14.0,84,0.00,,,0.00,VWS V14.01,2013-01-29 15:37:00,
2013-01-29 09:38:00,69.5,64.5,29.56,SSE,161,7.0,14.0,84,0.00,,,0.00,VWS V14.01,2013-01-29 15:38:00,
2013-01-29 09:39:00,69.6,64.6,29.56,South,173,5.0,16.0,84,0.00,,,0.00,VWS V14.01,2013-01-29 15:39:00,
2013-01-29 09:40:00,69.7,64.7,29.56,SSE,157,14.0,16.0,84,0.00,,,0.00,VWS V14.01,2013-01-29 15:40:00,
2013-01-29 09:41:00,69.4,64.7,29.56,SSE,165,6.0,13.0,85,0.00,,,0.00,VWS V14.01,2013-01-29 15:41:00,
2013-01-29 09:42:00,69.8,64.4,29.56,SSE,149,6.0,16.0,83,0.00,,,0.00,VWS V14.01,2013-01-29 15:42:00,
2013-01-29 09:43:00,69.9,64.8,29.56,SSE,152,15.0,16.0,84,0.00,,,0.00,VWS V14.01,2013-01-29 15:43:00,
2013-01-29 09:44:00,69.9,64.5,29.56,SSE,156,11.0,16.0,83,0.00,,,0.00,VWS V14.01,2013-01-29 15:44:00,
2013-01-29 09:45:00,70.0,64.6,29.56,South,179,8.0,16.0,83,0.00,,,0.00,VWS V14.01,2013-01-29 15:45:00,
2013-01-29 09:46:00,69.5,64.5,29.56,SSE,157,3.0,14.0,84,0.00,,,0.00,VWS V14.01,2013-01-29 15:46:00,
2013-01-29 09:47:00,70.1,64.7,29.56,SSE,161,11.0,23.0,83,0.00,,,0.00,VWS V14.01,2013-01-29 15:47:00,
2013-01-29 09:48:00,70.2,64.4,29.56,SE,146,8.0,23.0,82,0.00,,,0.00,VWS V14.01,2013-01-29 15:48:00,
2013-01-29 09:49:00,70.2,64.4,29.56,SSE,153,11.0,23.0,82,0.00,,,0.00,VWS V14.01,2013-01-29 15:49:00,
2013-01-29 09:50:00,70.1,64.4,29.56,SSE,150,10.0,23.0,82,0.00,,,0.00,VWS V14.01,2013-01-29 15:50:00,
2013-01-29 09:51:00,69.8,64.8,29.56,South,187,12.0,16.0,84,0.00,,,0.00,VWS V14.01,2013-01-29 15:51:00,
2013-01-29 09:52:00,70.1,64.7,29.56,South,172,10.0,23.0,83,0.00,,,0.00,VWS V14.01,2013-01-29 15:52:00,
2013-01-29 09:53:00,70.1,64.7,29.56,SE,138,7.0,23.0,83,0.00,,,0.00,VWS V14.01,2013-01-29 15:53:00,
2013-01-29 09:54:00,70.0,64.6,29.56,SE,146,6.0,23.0,83,0.00,,,0.00,VWS V14.01,2013-01-29 15:54:00,
2013-01-29 09:55:00,69.9,64.5,29.56,South,177,9.0,23.0,83,0.00,,,0.00,VWS V14.01,2013-01-29 15:55:00,
2013-01-29 09:56:00,70.1,64.7,29.56,South,182,16.0,16.0,83,0.00,,,0.00,VWS V14.01,2013-01-29 15:56:00,
2013-01-29 09:57:00,70.0,64.6,29.56,ESE,111,19.0,23.0,83,0.00,,,0.00,VWS V14.01,2013-01-29 15:57:00,
2013-01-29 09:58:00,70.0,64.6,29.56,South,169,15.0,23.0,83,0.00,,,0.00,VWS V14.01,2013-01-29 15:58:00,
2013-01-29 09:59:00,70.1,64.7,29.56,SSE,166,13.0,23.0,83,0.00,,,0.00,VWS V14.01,2013-01-29 15:59:00,
2013-01-29 10:00:00,70.1,64.7,29.56,South,181,7.0,14.0,83,0.00,,,0.00,VWS V14.01,2013-01-29 16:00:00,
2013-01-29 10:01:00,70.1,64.7,29.56,South,182,6.0,23.0,83,0.00,,,0.00,VWS V14.01,2013-01-29 16:01:00,
2013-01-29 10:02:00,70.2,64.4,29.56,SSE,164,11.0,18.0,82,0.00,,,0.00,VWS V14.01,2013-01-29 16:02:00,
2013-01-29 10:03:00,70.3,64.6,29.56,South,186,13.0,18.0,82,0.00,,,0.00,VWS V14.01,2013-01-29 16:03:00,
2013-01-29 10:04:00,70.3,64.6,29.56,SSE,155,7.0,18.0,82,0.00,,,0.00,VWS V14.01,2013-01-29 16:04:00,
2013-01-29 10:05:00,70.3,64.6,29.56,SSE,153,6.0,18.0,82,0.00,,,0.00,VWS V14.01,2013-01-29 16:05:00,
2013-01-29 10:06:00,69.9,64.5,29.56,SE,130,12.0,23.0,83,0.00,,,0.00,VWS V14.01,2013-01-29 16:06:00,
2013-01-29 10:07:00,70.4,64.7,29.55,SSE,164,6.0,20.0,82,0.00,,,0.00,VWS V14.01,2013-01-29 16:07:00,
2013-01-29 10:08:00,70.4,64.7,29.56,SE,139,20.0,20.0,82,0.00,,,0.00,VWS V14.01,2013-01-29 16:08:00,
2013-01-29 10:09:00,70.4,64.7,29.55,South,169,12.0,22.0,82,0.00,,,0.00,VWS V14.01,2013-01-29 16:09:00,
2013-01-29 10:10:00,70.5,64.4,29.55,South,171,8.0,22.0,81,0.00,,,0.00,VWS V14.01,2013-01-29 16:10:00,
2013-01-29 10:11:00,70.2,64.4,29.56,SSW,198,10.0,18.0,82,0.00,,,0.00,VWS V14.01,2013-01-29 16:11:00,
2013-01-29 10:12:00,70.6,64.8,29.55,SE,132,7.0,22.0,82,0.00,,,0.00,VWS V14.01,2013-01-29 16:12:00,
2013-01-29 10:13:00,70.5,64.8,29.55,SSE,161,12.0,22.0,82,0.00,,,0.00,VWS V14.01,2013-01-29 16:13:00,
2013-01-29 10:14:00,70.5,64.4,29.55,SSW,202,14.0,22.0,81,0.00,,,0.00,VWS V14.01,2013-01-29 16:14:00,
2013-01-29 10:15:00,70.5,64.4,29.55,SSE,162,10.0,22.0,81,0.00,,,0.00,VWS V14.01,2013-01-29 16:15:00,
2013-01-29 10:16:00,70.3,64.6,29.55,SSE,157,10.0,20.0,82,0.00,,,0.00,VWS V14.01,2013-01-29 16:16:00,
2013-01-29 10:17:00,70.4,64.7,29.55,SSE,161,6.0,22.0,82,0.00,,,0.00,VWS V14.01,2013-01-29 16:17:00,
2013-01-29 10:18:00,70.3,64.6,29.55,SSW,200,17.0,22.0,82,0.00,,,0.00,VWS V14.01,2013-01-29 16:18:00,
2013-01-29 10:19:00,70.2,64.4,29.55,SSE,167,7.0,22.0,82,0.00,,,0.00,VWS V14.01,2013-01-29 16:19:00,
2013-01-29 10:20:00,70.1,64.4,29.55,SSE,161,12.0,22.0,82,0.00,,,0.00,VWS V14.01,2013-01-29 16:20:00,
2013-01-29 10:21:00,70.6,64.5,29.55,South,173,11.0,22.0,81,0.00,,,0.00,VWS V14.01,2013-01-29 16:21:00,
2013-01-29 10:22:00,70.0,64.6,29.54,South,170,13.0,22.0,83,0.00,,,0.00,VWS V14.01,2013-01-29 16:22:00,
2013-01-29 10:23:00,70.0,64.6,29.54,South,173,9.0,22.0,83,0.00,,,0.00,VWS V14.01,2013-01-29 16:23:00,
2013-01-29 10:24:00,70.0,64.6,29.54,SSE,157,8.0,22.0,83,0.00,,,0.00,VWS V14.01,2013-01-29 16:24:00,
2013-01-29 10:25:00,69.9,64.5,29.54,SSE,160,4.0,22.0,83,0.00,,,0.00,VWS V14.01,2013-01-29 16:25:00,
2013-01-29 10:26:00,70.4,64.3,29.55,SSE,147,6.0,22.0,81,0.00,,,0.00,VWS V14.01,2013-01-29 16:26:00,
2013-01-29 10:27:00,69.9,64.5,29.54,SSE,161,11.0,22.0,83,0.00,,,0.00,VWS V14.01,2013-01-29 16:27:00,
2013-01-29 10:28:00,69.9,64.5,29.54,South,181,10.0,22.0,83,0.00,,,0.00,VWS V14.01,2013-01-29 16:28:00,
2013-01-29 10:29:00,69.9,64.5,29.54,SSW,195,6.0,22.0,83,0.00,,,0.00,VWS V14.01,2013-01-29 16:29:00,
2013-01-29 10:30:00,69.7,64.7,29.54,South,169,10.0,11.0,84,0.00,,,0.00,VWS V14.01,2013-01-29 16:30:00,
2013-01-29 10:31:00,70.0,64.6,29.54,SE,143,5.0,22.0,83,0.00,,,0.00,VWS V14.01,2013-01-29 16:31:00,
2013-01-29 10:32:00,69.4,64.4,29.53,SSE,153,11.0,16.0,84,0.00,,,0.00,VWS V14.01,2013-01-29 16:32:00,
2013-01-29 10:33:00,69.3,64.6,29.54,South,180,5.0,16.0,85,0.00,,,0.00,VWS V14.01,2013-01-29 16:33:00,
2013-01-29 10:34:00,69.1,64.4,29.54,SE,140,19.0,19.0,85,0.00,,,0.00,VWS V14.01,2013-01-29 16:34:00,
2013-01-29 10:35:00,69.0,64.3,29.54,SSE,165,13.0,19.0,85,0.00,,,0.00,VWS V14.01,2013-01-29 16:35:00,
2013-01-29 10:36:00,69.9,64.5,29.54,SSE,149,12.0,22.0,83,0.00,,,0.00,VWS V14.01,2013-01-29 16:36:00,
2013-01-29 10:37:00,68.9,64.6,29.54,South,171,7.0,19.0,86,0.00,,,0.00,VWS V14.01,2013-01-29 16:37:00,
2013-01-29 10:38:00,68.8,64.4,29.54,SE,141,10.0,19.0,86,0.00,,,0.00,VWS V14.01,2013-01-29 16:38:00,
2013-01-29 10:39:00,68.8,64.4,29.54,SE,140,6.0,19.0,86,0.00,,,0.00,VWS V14.01,2013-01-29 16:39:00,
2013-01-29 10:40:00,68.7,64.3,29.54,SSE,150,13.0,19.0,86,0.00,,,0.00,VWS V14.01,2013-01-29 16:40:00,
2013-01-29 10:41:00,69.5,64.5,29.53,SSE,150,11.0,16.0,84,0.00,,,0.00,VWS V14.01,2013-01-29 16:41:00,
2013-01-29 10:42:00,68.6,64.6,29.53,SSE,150,13.0,19.0,87,0.00,,,0.00,VWS V14.01,2013-01-29 16:42:00,
2013-01-29 10:43:00,68.5,64.5,29.53,SSE,161,10.0,19.0,87,0.00,,,0.00,VWS V14.01,2013-01-29 16:43:00,
2013-01-29 10:44:00,68.5,64.5,29.53,SSE,163,4.0,19.0,87,0.00,,,0.00,VWS V14.01,2013-01-29 16:44:00,
2013-01-29 10:45:00,68.4,64.4,29.53,SSE,165,4.0,19.0,87,0.00,,,0.00,VWS V14.01,2013-01-29 16:45:00,
2013-01-29 10:46:00,68.9,64.6,29.54,SE,145,9.0,19.0,86,0.00,,,0.00,VWS V14.01,2013-01-29 16:46:00,
2013-01-29 10:47:00,68.3,64.3,29.52,SSE,165,13.0,19.0,87,0.00,,,0.00,VWS V14.01,2013-01-29 16:47:00,
2013-01-29 10:48:00,68.3,64.3,29.52,SSE,165,4.0,20.0,87,0.00,,,0.00,VWS V14.01,2013-01-29 16:48:00,
2013-01-29 10:49:00,68.3,64.6,29.52,SE,137,14.0,20.0,88,0.00,,,0.00,VWS V14.01,2013-01-29 16:49:00,
2013-01-29 10:50:00,68.2,64.5,29.52,SSE,163,13.0,20.0,88,0.00,,,0.00,VWS V14.01,2013-01-29 16:50:00,
2013-01-29 10:51:00,68.6,64.6,29.53,SSE,152,5.0,19.0,87,0.00,,,0.00,VWS V14.01,2013-01-29 16:51:00,
2013-01-29 10:52:00,68.1,64.4,29.52,SE,127,14.0,23.0,88,0.00,,,0.00,VWS V14.01,2013-01-29 16:52:00,
2013-01-29 10:53:00,68.1,64.4,29.52,South,178,9.0,23.0,88,0.00,,,0.00,VWS V14.01,2013-01-29 16:53:00,
2013-01-29 10:54:00,68.0,64.3,29.52,SSE,156,6.0,23.0,88,0.00,,,0.00,VWS V14.01,2013-01-29 16:54:00,
2013-01-29 10:55:00,68.0,64.3,29.52,SSE,163,4.0,23.0,88,0.00,,,0.00,VWS V14.01,2013-01-29 16:55:00,
2013-01-29 10:56:00,68.3,64.3,29.52,SSE,164,13.0,19.0,87,0.00,,,0.00,VWS V14.01,2013-01-29 16:56:00,
2013-01-29 10:57:00,68.0,64.6,29.52,South,191,9.0,23.0,89,0.00,,,0.00,VWS V14.01,2013-01-29 16:57:00,
2013-01-29 10:58:00,68.0,64.6,29.51,South,180,6.0,23.0,89,0.00,,,0.00,VWS V14.01,2013-01-29 16:58:00,
2013-01-29 10:59:00,68.0,64.6,29.51,South,179,11.0,23.0,89,0.00,,,0.00,VWS V14.01,2013-01-29 16:59:00,
2013-01-29 11:00:00,67.9,64.5,29.51,SSW,192,12.0,12.0,89,0.00,,,0.00,VWS V14.01,2013-01-29 17:00:00,
2013-01-29 11:01:00,68.1,64.4,29.52,SE,138,3.0,23.0,88,0.00,,,0.00,VWS V14.01,2013-01-29 17:01:00,
2013-01-29 11:02:00,67.9,64.5,29.51,SSW,192,14.0,17.0,89,0.00,,,0.00,VWS V14.01,2013-01-29 17:02:00,
2013-01-29 11:03:00,67.9,64.5,29.51,SSE,153,5.0,17.0,89,0.00,,,0.00,VWS V14.01,2013-01-29 17:03:00,
2013-01-29 11:04:00,68.0,64.6,29.51,South,179,7.0,18.0,89,0.00,,,0.00,VWS V14.01,2013-01-29 17:04:00,
2013-01-29 11:05:00,68.0,64.6,29.51,South,182,6.0,18.0,89,0.01,,,0.01,VWS V14.01,2013-01-29 17:05:00,
2013-01-29 11:06:00,68.0,64.6,29.52,South,179,7.0,23.0,89,0.00,,,0.00,VWS V14.01,2013-01-29 17:06:00,
2013-01-29 11:07:00,68.0,64.6,29.51,South,183,8.0,18.0,89,0.01,,,0.01,VWS V14.01,2013-01-29 17:07:00,
2013-01-29 11:08:00,68.0,65.0,29.50,South,182,14.0,18.0,90,0.01,,,0.01,VWS V14.01,2013-01-29 17:08:00,
2013-01-29 11:09:00,68.0,65.0,29.50,SSE,157,6.0,18.0,90,0.01,,,0.01,VWS V14.01,2013-01-29 17:09:00,
2013-01-29 11:10:00,68.1,65.1,29.50,SSE,155,2.0,18.0,90,0.01,,,0.01,VWS V14.01,2013-01-29 17:10:00,
2013-01-29 11:11:00,68.0,64.6,29.51,South,178,7.0,17.0,89,0.00,,,0.00,VWS V14.01,2013-01-29 17:11:00,
2013-01-29 11:12:00,68.1,65.1,29.50,South,170,7.0,18.0,90,0.01,,,0.01,VWS V14.01,2013-01-29 17:12:00,
2013-01-29 11:13:00,68.1,65.1,29.50,South,171,4.0,18.0,90,0.01,,,0.01,VWS V14.01,2013-01-29 17:13:00,
2013-01-29 11:14:00,68.2,65.2,29.50,SE,143,9.0,18.0,90,0.01,,,0.01,VWS V14.01,2013-01-29 17:14:00,
2013-01-29 11:15:00,68.2,65.2,29.50,SSE,149,5.0,18.0,90,0.01,,,0.01,VWS V14.01,2013-01-29 17:15:00,
2013-01-29 11:16:00,68.0,64.6,29.51,South,180,4.0,18.0,89,0.01,,,0.01,VWS V14.01,2013-01-29 17:16:00,
2013-01-29 11:17:00,68.2,65.2,29.49,South,182,7.0,18.0,90,0.01,,,0.01,VWS V14.01,2013-01-29 17:17:00,
2013-01-29 11:18:00,68.2,64.8,29.49,SSE,159,12.0,18.0,89,0.01,,,0.01,VWS V14.01,2013-01-29 17:18:00,
2013-01-29 11:19:00,68.3,64.9,29.49,SE,146,12.0,18.0,89,0.01,,,0.01,VWS V14.01,2013-01-29 17:19:00,
2013-01-29 11:20:00,68.3,64.9,29.49,SSE,159,13.0,18.0,89,0.01,,,0.01,VWS V14.01,2013-01-29 17:20:00,
2013-01-29 11:21:00,68.1,65.1,29.50,SE,134,5.0,18.0,90,0.01,,,0.01,VWS V14.01,2013-01-29 17:21:00,
2013-01-29 11:22:00,68.4,65.0,29.49,ESE,119,9.0,18.0,89,0.01,,,0.01,VWS V14.01,2013-01-29 17:22:00,
2013-01-29 11:23:00,68.4,65.0,29.49,SSE,149,14.0,18.0,89,0.01,,,0.01,VWS V14.01,2013-01-29 17:23:00,
2013-01-29 11:24:00,68.4,64.7,29.49,SSE,163,11.0,24.0,88,0.01,,,0.01,VWS V14.01,2013-01-29 17:24:00,
2013-01-29 11:25:00,68.5,64.8,29.48,SE,145,5.0,24.0,88,0.01,,,0.01,VWS V14.01,2013-01-29 17:25:00,
2013-01-29 11:26:00,68.2,65.2,29.49,SSE,149,7.0,18.0,90,0.01,,,0.01,VWS V14.01,2013-01-29 17:26:00,
2013-01-29 11:27:00,68.7,65.0,29.48,SSE,150,5.0,24.0,88,0.01,,,0.01,VWS V14.01,2013-01-29 17:27:00,
2013-01-29 11:28:00,68.7,65.0,29.48,SE,130,11.0,24.0,88,0.01,,,0.01,VWS V14.01,2013-01-29 17:28:00,
2013-01-29 11:29:00,68.8,65.1,29.48,SSE,158,14.0,24.0,88,0.01,,,0.01,VWS V14.01,2013-01-29 17:29:00,
2013-01-29 11:30:00,68.8,64.8,29.48,South,175,5.0,12.0,87,0.01,,,0.01,VWS V14.01,2013-01-29 17:30:00,
2013-01-29 11:31:00,68.3,64.9,29.49,SE,128,7.0,18.0,89,0.01,,,0.01,VWS V14.01,2013-01-29 17:31:00,
2013-01-29 11:32:00,68.9,64.9,29.48,SE,142,15.0,15.0,87,0.01,,,0.01,VWS V14.01,2013-01-29 17:32:00,
2013-01-29 11:33:00,68.8,64.8,29.48,SSE,163,5.0,18.0,87,0.01,,,0.01,VWS V14.01,2013-01-29 17:33:00,
2013-01-29 11:34:00,68.8,64.8,29.48,SSE,161,9.0,18.0,87,0.01,,,0.01,VWS V14.01,2013-01-29 17:34:00,
2013-01-29 11:35:00,68.8,64.8,29.48,South,170,16.0,18.0,87,0.01,,,0.01,VWS V14.01,2013-01-29 17:35:00,
2013-01-29 11:36:00,68.6,64.9,29.48,SE,140,4.0,24.0,88,0.01,,,0.01,VWS V14.01,2013-01-29 17:36:00,
2013-01-29 11:37:00,68.7,64.7,29.47,SSE,162,10.0,18.0,87,0.01,,,0.01,VWS V14.01,2013-01-29 17:37:00,
2013-01-29 11:38:00,68.7,64.7,29.48,South,173,9.0,18.0,87,0.01,,,0.01,VWS V14.01,2013-01-29 17:38:00,
2013-01-29 11:39:00,68.7,64.7,29.48,SSE,162,14.0,18.0,87,0.01,,,0.01,VWS V14.01,2013-01-29 17:39:00,
2013-01-29 11:40:00,68.7,64.7,29.48,SSE,148,14.0,18.0,87,0.01,,,0.01,VWS V14.01,2013-01-29 17:40:00,
2013-01-29 11:41:00,68.9,64.9,29.48,South,178,6.0,12.0,87,0.01,,,0.01,VWS V14.01,2013-01-29 17:41:00,
2013-01-29 11:42:00,68.8,64.8,29.47,South,171,6.0,18.0,87,0.01,,,0.01,VWS V14.01,2013-01-29 17:42:00,
2013-01-29 11:43:00,68.8,64.8,29.47,SSE,165,16.0,18.0,87,0.01,,,0.01,VWS V14.01,2013-01-29 17:43:00,
2013-01-29 11:44:00,68.8,64.8,29.47,SSE,161,10.0,18.0,87,0.01,,,0.01,VWS V14.01,2013-01-29 17:44:00,
2013-01-29 11:45:00,68.8,64.8,29.47,South,190,15.0,18.0,87,0.01,,,0.01,VWS V14.01,2013-01-29 17:45:00,
2013-01-29 11:46:00,68.7,64.7,29.47,South,173,14.0,18.0,87,0.01,,,0.01,VWS V14.01,2013-01-29 17:46:00,
2013-01-29 11:47:00,68.8,64.8,29.47,South,172,10.0,23.0,87,0.01,,,0.01,VWS V14.01,2013-01-29 17:47:00,
2013-01-29 11:48:00,68.8,64.8,29.47,SSE,148,12.0,23.0,87,0.01,,,0.01,VWS V14.01,2013-01-29 17:48:00,
2013-01-29 11:49:00,68.8,64.8,29.47,SSE,148,8.0,23.0,87,0.01,,,0.01,VWS V14.01,2013-01-29 17:49:00,
2013-01-29 11:50:00,68.8,65.1,29.47,SSE,148,11.0,23.0,88,0.01,,,0.01,VWS V14.01,2013-01-29 17:50:00,
2013-01-29 11:51:00,68.8,64.8,29.47,South,171,6.0,18.0,87,0.01,,,0.01,VWS V14.01,2013-01-29 17:51:00,
2013-01-29 11:53:00,68.8,64.8,29.47,SSE,164,11.0,23.0,87,0.01,,,0.01,VWS V14.01,2013-01-29 17:53:00,
2013-01-29 11:54:00,68.8,64.8,29.47,SSE,152,17.0,23.0,87,0.01,,,0.01,VWS V14.01,2013-01-29 17:54:00,
2013-01-29 11:55:00,68.8,64.8,29.47,South,176,5.0,23.0,87,0.01,,,0.01,VWS V14.01,2013-01-29 17:55:00,
2013-01-29 11:56:00,68.8,64.8,29.47,SSE,161,10.0,23.0,87,0.01,,,0.01,VWS V14.01,2013-01-29 17:56:00,
2013-01-29 11:57:00,68.8,64.8,29.47,SE,140,4.0,23.0,87,0.01,,,0.01,VWS V14.01,2013-01-29 17:57:00,
2013-01-29 11:58:00,68.8,64.8,29.47,South,179,13.0,23.0,87,0.01,,,0.01,VWS V14.01,2013-01-29 17:58:00,
2013-01-29 11:59:00,68.8,64.8,29.46,SSE,162,14.0,23.0,87,0.01,,,0.01,VWS V14.01,2013-01-29 17:59:00,
2013-01-29 12:00:00,68.8,64.8,29.46,SSE,151,11.0,19.0,87,0.01,,,0.01,VWS V14.01,2013-01-29 18:00:00,
2013-01-29 12:01:00,68.8,64.8,29.47,SSE,153,11.0,19.0,87,0.01,,,0.01,VWS V14.01,2013-01-29 18:01:00,
2013-01-29 12:02:00,68.8,64.8,29.47,SSE,155,9.0,23.0,87,0.01,,,0.01,VWS V14.01,2013-01-29 18:02:00,
2013-01-29 12:03:00,68.8,64.8,29.47,South,171,10.0,19.0,87,0.01,,,0.01,VWS V14.01,2013-01-29 18:03:00,
2013-01-29 12:04:00,68.8,64.8,29.46,SE,144,4.0,19.0,87,0.01,,,0.01,VWS V14.01,2013-01-29 18:04:00,
2013-01-29 12:05:00,68.8,64.8,29.47,South,174,10.0,19.0,87,0.01,,,0.01,VWS V14.01,2013-01-29 18:05:00,
2013-01-29 12:06:00,68.8,64.8,29.46,SSE,159,11.0,19.0,87,0.01,,,0.01,VWS V14.01,2013-01-29 18:06:00,
2013-01-29 12:07:00,68.8,64.8,29.47,South,174,6.0,23.0,87,0.01,,,0.01,VWS V14.01,2013-01-29 18:07:00,
2013-01-29 12:08:00,68.8,64.8,29.46,SSE,161,5.0,19.0,87,0.01,,,0.01,VWS V14.01,2013-01-29 18:08:00,
2013-01-29 12:09:00,68.8,64.8,29.46,South,177,11.0,19.0,87,0.01,,,0.01,VWS V14.01,2013-01-29 18:09:00,
2013-01-29 12:10:00,68.8,64.8,29.46,South,175,9.0,19.0,87,0.01,,,0.01,VWS V14.01,2013-01-29 18:10:00,
2013-01-29 12:11:00,68.8,64.8,29.46,SE,142,9.0,19.0,87,0.01,,,0.01,VWS V14.01,2013-01-29 18:11:00,
2013-01-29 12:12:00,68.8,64.8,29.47,SE,146,6.0,19.0,87,0.01,,,0.01,VWS V14.01,2013-01-29 18:12:00,
2013-01-29 12:13:00,68.8,64.8,29.46,South,169,10.0,22.0,87,0.01,,,0.01,VWS V14.01,2013-01-29 18:13:00,
2013-01-29 12:14:00,68.8,64.8,29.45,SSE,160,7.0,22.0,87,0.01,,,0.01,VWS V14.01,2013-01-29 18:14:00,
2013-01-29 12:15:00,68.8,64.8,29.45,SSE,168,8.0,22.0,87,0.01,,,0.01,VWS V14.01,2013-01-29 18:15:00,
2013-01-29 12:16:00,68.8,64.8,29.45,SE,141,13.0,22.0,87,0.01,,,0.01,VWS V14.01,2013-01-29 18:16:00,
2013-01-29 12:17:00,68.8,64.8,29.46,SSE,161,12.0,19.0,87,0.01,,,0.01,VWS V14.01,2013-01-29 18:17:00,
2013-01-29 12:18:00,68.8,64.8,29.45,SSE,153,12.0,22.0,87,0.01,,,0.01,VWS V14.01,2013-01-29 18:18:00,
2013-01-29 12:19:00,68.8,64.8,29.45,SSE,161,9.0,22.0,87,0.01,,,0.01,VWS V14.01,2013-01-29 18:19:00,
2013-01-29 12:20:00,68.8,64.8,29.45,SSE,148,14.0,22.0,87,0.01,,,0.01,VWS V14.01,2013-01-29 18:20:00,
2013-01-29 12:21:00,68.8,64.8,29.45,SSE,162,6.0,22.0,87,0.01,,,0.01,VWS V14.01,2013-01-29 18:21:00,
2013-01-29 12:22:00,68.8,64.8,29.46,SE,144,8.0,22.0,87,0.01,,,0.01,VWS V14.01,2013-01-29 18:22:00,
2013-01-29 12:23:00,68.9,64.9,29.45,SE,137,13.0,22.0,87,0.01,,,0.01,VWS V14.01,2013-01-29 18:23:00,
2013-01-29 12:24:00,68.9,64.9,29.45,South,182,14.0,22.0,87,0.01,,,0.01,VWS V14.01,2013-01-29 18:24:00,
2013-01-29 12:25:00,68.9,64.9,29.45,SSE,161,11.0,22.0,87,0.01,,,0.01,VWS V14.01,2013-01-29 18:25:00,
2013-01-29 12:26:00,68.9,64.9,29.44,SE,143,14.0,22.0,87,0.01,,,0.01,VWS V14.01,2013-01-29 18:26:00,
2013-01-29 12:27:00,68.8,64.8,29.45,SSE,164,11.0,22.0,87,0.01,,,0.01,VWS V14.01,2013-01-29 18:27:00,
2013-01-29 12:28:00,69.0,65.0,29.44,SSE,167,10.0,23.0,87,0.01,,,0.01,VWS V14.01,2013-01-29 18:28:00,
2013-01-29 12:29:00,69.0,64.6,29.43,SE,143,7.0,23.0,86,0.01,,,0.01,VWS V14.01,2013-01-29 18:29:00,
2013-01-29 12:30:00,69.1,64.7,29.43,SSE,157,5.0,15.0,86,0.00,,,0.01,VWS V14.01,2013-01-29 18:30:00,
2013-01-29 12:31:00,69.0,64.6,29.43,SSE,150,14.0,15.0,86,0.00,,,0.01,VWS V14.01,2013-01-29 18:31:00,
2013-01-29 12:32:00,68.9,64.9,29.45,SSE,164,3.0,22.0,87,0.01,,,0.01,VWS V14.01,2013-01-29 18:32:00,
2013-01-29 12:33:00,69.1,64.7,29.43,SSE,149,9.0,18.0,86,0.00,,,0.01,VWS V14.01,2013-01-29 18:33:00,
2013-01-29 12:34:00,69.1,64.7,29.43,SE,143,14.0,21.0,86,0.00,,,0.01,VWS V14.01,2013-01-29 18:34:00,
2013-01-29 12:35:00,69.2,64.8,29.43,South,179,7.0,21.0,86,0.00,,,0.01,VWS V14.01,2013-01-29 18:35:00,
2013-01-29 12:36:00,69.2,64.8,29.43,SSE,148,9.0,21.0,86,0.00,,,0.01,VWS V14.01,2013-01-29 18:36:00,
2013-01-29 12:37:00,68.9,64.9,29.44,SSE,148,20.0,23.0,87,0.01,,,0.01,VWS V14.01,2013-01-29 18:37:00,
2013-01-29 12:38:00,69.1,64.7,29.43,South,186,11.0,21.0,86,0.00,,,0.01,VWS V14.01,2013-01-29 18:38:00,
2013-01-29 12:39:00,69.1,64.7,29.43,South,173,11.0,21.0,86,0.00,,,0.01,VWS V14.01,2013-01-29 18:39:00,
2013-01-29 12:40:00,69.1,64.7,29.43,South,169,10.0,21.0,86,0.00,,,0.01,VWS V14.01,2013-01-29 18:40:00,
2013-01-29 12:41:00,69.1,64.7,29.43,South,180,7.0,21.0,86,0.00,,,0.01,VWS V14.01,2013-01-29 18:41:00,
2013-01-29 12:42:00,69.1,64.7,29.43,South,189,8.0,15.0,86,0.00,,,0.01,VWS V14.01,2013-01-29 18:42:00,
2013-01-29 12:43:00,69.1,64.7,29.43,SSE,153,15.0,22.0,86,0.00,,,0.01,VWS V14.01,2013-01-29 18:43:00,
2013-01-29 12:44:00,69.1,64.7,29.43,SE,144,12.0,22.0,86,0.00,,,0.01,VWS V14.01,2013-01-29 18:44:00,
2013-01-29 12:45:00,69.2,64.8,29.43,South,191,13.0,22.0,86,0.00,,,0.01,VWS V14.01,2013-01-29 18:45:00,
2013-01-29 12:46:00,69.3,64.6,29.43,SSE,167,9.0,24.0,85,0.00,,,0.01,VWS V14.01,2013-01-29 18:46:00,
2013-01-29 12:47:00,69.2,64.8,29.43,SSE,159,9.0,21.0,86,0.00,,,0.01,VWS V14.01,2013-01-29 18:47:00,
2013-01-29 12:48:00,69.4,64.7,29.43,SSE,164,13.0,24.0,85,0.00,,,0.01,VWS V14.01,2013-01-29 18:48:00,
2013-01-29 12:49:00,69.4,64.7,29.43,SSE,165,10.0,24.0,85,0.00,,,0.01,VWS V14.01,2013-01-29 18:49:00,
2013-01-29 12:50:00,69.4,64.7,29.43,South,169,12.0,24.0,85,0.00,,,0.01,VWS V14.01,2013-01-29 18:50:00,
2013-01-29 12:51:00,69.4,64.7,29.43,SSE,161,12.0,24.0,85,0.00,,,0.01,VWS V14.01,2013-01-29 18:51:00,
2013-01-29 12:52:00,69.1,64.7,29.43,SE,141,7.0,21.0,86,0.00,,,0.01,VWS V14.01,2013-01-29 18:52:00,
2013-01-29 12:53:00,69.5,64.8,29.42,South,184,9.0,24.0,85,0.00,,,0.01,VWS V14.01,2013-01-29 18:53:00,
2013-01-29 12:54:00,69.6,64.9,29.42,South,171,7.0,24.0,85,0.00,,,0.01,VWS V14.01,2013-01-29 18:54:00,
2013-01-29 12:55:00,69.6,64.9,29.42,South,177,8.0,24.0,85,0.00,,,0.01,VWS V14.01,2013-01-29 18:55:00,
2013-01-29 12:56:00,69.6,64.9,29.42,South,188,14.0,24.0,85,0.00,,,0.01,VWS V14.01,2013-01-29 18:56:00,
2013-01-29 12:57:00,69.4,64.7,29.43,South,180,14.0,24.0,85,0.00,,,0.01,VWS V14.01,2013-01-29 18:57:00,
2013-01-29 12:58:00,69.7,64.7,29.42,South,189,7.0,24.0,84,0.00,,,0.01,VWS V14.01,2013-01-29 18:58:00,
2013-01-29 12:59:00,69.7,64.7,29.42,South,175,12.0,24.0,84,0.00,,,0.01,VWS V14.01,2013-01-29 18:59:00,
2013-01-29 13:00:00,69.7,64.7,29.42,South,180,21.0,21.0,84,0.00,,,0.01,VWS V14.01,2013-01-29 19:00:00,
2013-01-29 13:01:00,69.7,64.7,29.42,South,183,17.0,21.0,84,0.00,,,0.01,VWS V14.01,2013-01-29 19:01:00,
2013-01-29 13:02:00,69.5,64.8,29.42,South,171,10.0,24.0,85,0.00,,,0.01,VWS V14.01,2013-01-29 19:02:00,
2013-01-29 13:03:00,69.8,64.8,29.42,South,173,5.0,21.0,84,0.00,,,0.01,VWS V14.01,2013-01-29 19:03:00,
2013-01-29 13:04:00,69.8,64.8,29.42,SE,145,13.0,21.0,84,0.00,,,0.01,VWS V14.01,2013-01-29 19:04:00,
2013-01-29 13:05:00,69.8,64.8,29.41,South,183,9.0,21.0,84,0.00,,,0.01,VWS V14.01,2013-01-29 19:05:00,
2013-01-29 13:06:00,69.8,64.8,29.41,SE,142,10.0,21.0,84,0.00,,,0.01,VWS V14.01,2013-01-29 19:06:00,
2013-01-29 13:07:00,69.7,64.7,29.42,South,175,11.0,24.0,84,0.00,,,0.01,VWS V14.01,2013-01-29 19:07:00,
2013-01-29 13:08:00,69.9,64.8,29.42,SSW,192,11.0,21.0,84,0.00,,,0.01,VWS V14.01,2013-01-29 19:08:00,
2013-01-29 13:09:00,69.9,64.8,29.42,South,169,9.0,21.0,84,0.00,,,0.01,VWS V14.01,2013-01-29 19:09:00,
2013-01-29 13:10:00,70.0,64.9,29.41,South,179,19.0,28.0,84,0.00,,,0.01,VWS V14.01,2013-01-29 19:10:00,
2013-01-29 13:11:00,70.1,65.1,29.41,South,188,7.0,28.0,84,0.00,,,0.01,VWS V14.01,2013-01-29 19:11:00,
2013-01-29 13:12:00,69.8,64.8,29.42,SE,142,11.0,21.0,84,0.00,,,0.01,VWS V14.01,2013-01-29 19:12:00,
2013-01-29 13:13:00,70.3,65.2,29.41,SSW,203,10.0,28.0,84,0.00,,,0.01,VWS V14.01,2013-01-29 19:13:00,
2013-01-29 13:14:00,70.3,64.9,29.41,South,178,12.0,28.0,83,0.00,,,0.01,VWS V14.01,2013-01-29 19:14:00,
2013-01-29 13:15:00,70.3,64.9,29.41,SSE,157,10.0,28.0,83,0.00,,,0.01,VWS V14.01,2013-01-29 19:15:00,
2013-01-29 13:16:00,70.4,65.0,29.41,South,176,9.0,28.0,83,0.00,,,0.01,VWS V14.01,2013-01-29 19:16:00,
2013-01-29 13:17:00,69.9,64.8,29.42,SSW,208,10.0,21.0,84,0.00,,,0.01,VWS V14.01,2013-01-29 19:17:00,
2013-01-29 13:18:00,70.4,65.0,29.40,SSE,156,14.0,28.0,83,0.00,,,0.01,VWS V14.01,2013-01-29 19:18:00,
2013-01-29 13:19:00,70.4,65.0,29.40,SSW,195,14.0,28.0,83,0.00,,,0.01,VWS V14.01,2013-01-29 19:19:00,
2013-01-29 13:20:00,70.5,65.1,29.40,SSE,163,4.0,28.0,83,0.00,,,0.01,VWS V14.01,2013-01-29 19:20:00,
2013-01-29 13:21:00,70.6,65.2,29.40,South,174,6.0,28.0,83,0.00,,,0.01,VWS V14.01,2013-01-29 19:21:00,
2013-01-29 13:22:00,70.2,65.1,29.41,SSE,159,13.0,28.0,84,0.00,,,0.01,VWS V14.01,2013-01-29 19:22:00,
2013-01-29 13:23:00,70.8,65.4,29.40,SSE,163,7.0,28.0,83,0.00,,,0.01,VWS V14.01,2013-01-29 19:23:00,
2013-01-29 13:24:00,70.9,65.1,29.40,SSE,165,9.0,28.0,82,0.00,,,0.01,VWS V14.01,2013-01-29 19:24:00,
2013-01-29 13:25:00,71.0,65.2,29.40,SSE,161,16.0,28.0,82,0.00,,,0.01,VWS V14.01,2013-01-29 19:25:00,
2013-01-29 13:26:00,71.1,65.3,29.39,South,172,6.0,28.0,82,0.00,,,0.01,VWS V14.01,2013-01-29 19:26:00,
2013-01-29 13:27:00,70.4,65.0,29.40,South,170,7.0,28.0,83,0.00,,,0.01,VWS V14.01,2013-01-29 19:27:00,
2013-01-29 13:28:00,71.2,65.4,29.39,South,169,11.0,28.0,82,0.00,,,0.01,VWS V14.01,2013-01-29 19:28:00,
2013-01-29 13:29:00,71.2,65.4,29.39,South,191,15.0,28.0,82,0.00,,,0.01,VWS V14.01,2013-01-29 19:29:00,
2013-01-29 13:30:00,71.2,65.4,29.39,South,184,13.0,18.0,82,0.00,,,0.01,VWS V14.01,2013-01-29 19:30:00,
2013-01-29 13:31:00,71.3,65.5,29.39,South,170,8.0,18.0,82,0.00,,,0.01,VWS V14.01,2013-01-29 19:31:00,
2013-01-29 13:32:00,70.7,65.3,29.40,SSW,205,16.0,28.0,83,0.00,,,0.01,VWS V14.01,2013-01-29 19:32:00,
2013-01-29 13:33:00,71.4,65.6,29.39,SSE,160,16.0,19.0,82,0.00,,,0.01,VWS V14.01,2013-01-29 19:33:00,
2013-01-29 13:34:00,71.4,65.3,29.39,SSE,161,11.0,19.0,81,0.00,,,0.01,VWS V14.01,2013-01-29 19:34:00,
2013-01-29 13:35:00,71.4,65.3,29.39,South,171,9.0,19.0,81,0.00,,,0.01,VWS V14.01,2013-01-29 19:35:00,
2013-01-29 13:36:00,71.5,65.4,29.39,South,190,14.0,19.0,81,0.00,,,0.01,VWS V14.01,2013-01-29 19:36:00,
2013-01-29 13:37:00,71.2,65.4,29.39,South,171,12.0,28.0,82,0.00,,,0.01,VWS V14.01,2013-01-29 19:37:00,
2013-01-29 13:38:00,71.4,65.3,29.39,SSW,206,15.0,23.0,81,0.00,,,0.01,VWS V14.01,2013-01-29 19:38:00,
2013-01-29 13:39:00,71.4,65.3,29.39,South,187,10.0,23.0,81,0.00,,,0.01,VWS V14.01,2013-01-29 19:39:00,
2013-01-29 13:40:00,71.4,65.3,29.39,South,180,13.0,23.0,81,0.00,,,0.01,VWS V14.01,2013-01-29 19:40:00,
2013-01-29 13:41:00,71.4,65.3,29.39,South,183,13.0,23.0,81,0.00,,,0.01,VWS V14.01,2013-01-29 19:41:00,
2013-01-29 13:42:00,71.3,65.5,29.39,South,186,12.0,18.0,82,0.00,,,0.01,VWS V14.01,2013-01-29 19:42:00,
2013-01-29 13:43:00,71.5,65.4,29.38,SSE,167,13.0,23.0,81,0.00,,,0.01,VWS V14.01,2013-01-29 19:43:00,
2013-01-29 13:44:00,71.5,65.4,29.38,SSE,162,9.0,23.0,81,0.00,,,0.01,VWS V14.01,2013-01-29 19:44:00,
2013-01-29 13:45:00,71.6,65.1,29.38,SSE,161,14.0,23.0,80,0.00,,,0.01,VWS V14.01,2013-01-29 19:45:00,
2013-01-29 13:46:00,71.6,65.1,29.38,SSE,153,11.0,23.0,80,0.00,,,0.01,VWS V14.01,2013-01-29 19:46:00,
2013-01-29 13:47:00,71.5,65.4,29.39,SSE,148,7.0,23.0,81,0.00,,,0.01,VWS V14.01,2013-01-29 19:47:00,
2013-01-29 13:48:00,71.7,65.2,29.38,South,172,9.0,23.0,80,0.00,,,0.01,VWS V14.01,2013-01-29 19:48:00,
2013-01-29 13:49:00,71.7,65.2,29.39,South,178,9.0,23.0,80,0.00,,,0.01,VWS V14.01,2013-01-29 19:49:00,
2013-01-29 13:51:00,71.8,65.3,29.38,South,180,11.0,23.0,80,0.00,,,0.01,VWS V14.01,2013-01-29 19:51:00,
2013-01-29 13:52:00,71.5,65.4,29.38,South,190,16.0,23.0,81,0.00,,,0.01,VWS V14.01,2013-01-29 19:52:00,
2013-01-29 13:53:00,72.0,65.5,29.37,SSW,198,10.0,23.0,80,0.00,,,0.01,VWS V14.01,2013-01-29 19:53:00,
2013-01-29 13:54:00,72.3,65.8,29.37,SE,133,10.0,23.0,80,0.00,,,0.01,VWS V14.01,2013-01-29 19:54:00,
2013-01-29 13:55:00,72.5,65.6,29.36,South,182,12.0,23.0,79,0.00,,,0.01,VWS V14.01,2013-01-29 19:55:00,
2013-01-29 13:56:00,72.7,65.8,29.37,South,184,18.0,23.0,79,0.00,,,0.01,VWS V14.01,2013-01-29 19:56:00,
2013-01-29 13:57:00,71.7,65.2,29.38,South,190,6.0,23.0,80,0.00,,,0.01,VWS V14.01,2013-01-29 19:57:00,
2013-01-29 13:58:00,72.9,65.7,29.36,ESE,122,12.0,23.0,78,0.00,,,0.01,VWS V14.01,2013-01-29 19:58:00,
2013-01-29 13:59:00,73.0,65.7,29.36,South,191,9.0,23.0,78,0.00,,,0.01,VWS V14.01,2013-01-29 19:59:00,
2013-01-29 14:00:00,73.0,65.7,29.36,SE,136,19.0,19.0,78,0.00,,,0.01,VWS V14.01,2013-01-29 20:00:00,
2013-01-29 14:01:00,73.0,65.7,29.36,SE,140,17.0,19.0,78,0.00,,,0.01,VWS V14.01,2013-01-29 20:01:00,
2013-01-29 14:02:00,71.9,65.4,29.37,South,180,6.0,23.0,80,0.00,,,0.01,VWS V14.01,2013-01-29 20:02:00,
2013-01-29 14:03:00,73.1,65.5,29.36,SE,130,14.0,22.0,77,0.00,,,0.01,VWS V14.01,2013-01-29 20:03:00,
2013-01-29 14:04:00,73.2,65.6,29.36,SSW,207,17.0,22.0,77,0.00,,,0.01,VWS V14.01,2013-01-29 20:04:00,
2013-01-29 14:05:00,73.2,65.2,29.36,SSE,150,6.0,22.0,76,0.00,,,0.01,VWS V14.01,2013-01-29 20:05:00,
2013-01-29 14:06:00,73.3,65.3,29.36,SSE,168,10.0,22.0,76,0.00,,,0.01,VWS V14.01,2013-01-29 20:06:00,
2013-01-29 14:07:00,72.9,65.7,29.36,SSW,196,6.0,23.0,78,0.00,,,0.01,VWS V14.01,2013-01-29 20:07:00,
2013-01-29 14:08:00,73.3,65.3,29.36,SSE,167,15.0,22.0,76,0.00,,,0.01,VWS V14.01,2013-01-29 20:08:00,
2013-01-29 14:09:00,73.3,65.3,29.35,SE,146,13.0,22.0,76,0.00,,,0.01,VWS V14.01,2013-01-29 20:09:00,
2013-01-29 14:10:00,73.3,64.9,29.36,SE,146,10.0,24.0,75,0.00,,,0.01,VWS V14.01,2013-01-29 20:10:00,
2013-01-29 14:11:00,73.4,65.0,29.36,South,179,15.0,24.0,75,0.00,,,0.01,VWS V14.01,2013-01-29 20:11:00,
2013-01-29 14:12:00,73.1,65.5,29.36,SSE,162,4.0,22.0,77,0.00,,,0.01,VWS V14.01,2013-01-29 20:12:00,
2013-01-29 14:13:00,73.5,65.1,29.35,SSE,166,10.0,24.0,75,0.00,,,0.01,VWS V14.01,2013-01-29 20:13:00,
2013-01-29 14:14:00,73.6,65.2,29.35,SSE,149,11.0,24.0,75,0.00,,,0.01,VWS V14.01,2013-01-29 20:14:00,
2013-01-29 14:15:00,73.6,64.8,29.35,SSW,192,9.0,32.0,74,0.00,,,0.01,VWS V14.01,2013-01-29 20:15:00,
2013-01-29 14:16:00,73.6,64.8,29.35,SSE,156,19.0,32.0,74,0.00,,,0.01,VWS V14.01,2013-01-29 20:16:00,
2013-01-29 14:17:00,73.3,65.3,29.36,SSE,166,10.0,22.0,76,0.00,,,0.01,VWS V14.01,2013-01-29 20:17:00,
2013-01-29 14:18:00,73.5,64.7,29.35,SE,142,15.0,32.0,74,0.00,,,0.01,VWS V14.01,2013-01-29 20:18:00,
2013-01-29 14:19:00,73.5,65.1,29.35,South,179,10.0,32.0,75,0.00,,,0.01,VWS V14.01,2013-01-29 20:19:00,
2013-01-29 14:20:00,73.4,65.0,29.35,South,180,10.0,32.0,75,0.00,,,0.01,VWS V14.01,2013-01-29 20:20:00,
2013-01-29 14:21:00,73.4,65.0,29.35,SSE,159,17.0,32.0,75,0.00,,,0.01,VWS V14.01,2013-01-29 20:21:00,
2013-01-29 14:22:00,73.5,65.1,29.35,SSE,167,16.0,24.0,75,0.00,,,0.01,VWS V14.01,2013-01-29 20:22:00,
2013-01-29 14:23:00,73.3,65.3,29.35,SE,143,5.0,32.0,76,0.00,,,0.01,VWS V14.01,2013-01-29 20:23:00,
2013-01-29 14:24:00,73.3,65.3,29.35,SE,142,2.0,32.0,76,0.00,,,0.01,VWS V14.01,2013-01-29 20:24:00,
2013-01-29 14:25:00,73.2,65.2,29.35,SSE,148,16.0,32.0,76,0.00,,,0.01,VWS V14.01,2013-01-29 20:25:00,
2013-01-29 14:26:00,73.1,65.1,29.35,SSE,152,11.0,32.0,76,0.00,,,0.01,VWS V14.01,2013-01-29 20:26:00,
2013-01-29 14:27:00,73.5,64.7,29.35,South,179,14.0,32.0,74,0.00,,,0.01,VWS V14.01,2013-01-29 20:27:00,
2013-01-29 14:28:00,73.0,65.0,29.35,South,177,10.0,32.0,76,0.00,,,0.01,VWS V14.01,2013-01-29 20:28:00,
2013-01-29 14:29:00,73.1,65.5,29.35,SSE,150,9.0,32.0,77,0.00,,,0.01,VWS V14.01,2013-01-29 20:29:00,
2013-01-29 14:30:00,73.1,65.5,29.35,SE,145,7.0,12.0,77,0.00,,,0.01,VWS V14.01,2013-01-29 20:30:00,
2013-01-29 14:31:00,73.1,65.1,29.35,SSE,163,9.0,15.0,76,0.00,,,0.01,VWS V14.01,2013-01-29 20:31:00,
2013-01-29 14:32:00,73.3,65.3,29.35,South,179,12.0,32.0,76,0.00,,,0.01,VWS V14.01,2013-01-29 20:32:00,
2013-01-29 14:33:00,73.2,65.6,29.35,SSE,153,5.0,15.0,77,0.00,,,0.01,VWS V14.01,2013-01-29 20:33:00,
2013-01-29 14:34:00,73.3,65.3,29.35,South,169,5.0,15.0,76,0.00,,,0.01,VWS V14.01,2013-01-29 20:34:00,
2013-01-29 14:35:00,73.4,65.4,29.35,SSE,167,12.0,18.0,76,0.00,,,0.01,VWS V14.01,2013-01-29 20:35:00,
2013-01-29 14:36:00,73.4,65.4,29.35,SSE,154,8.0,18.0,76,0.00,,,0.01,VWS V14.01,2013-01-29 20:36:00,
2013-01-29 14:37:00,73.0,65.0,29.35,SE,145,11.0,32.0,76,0.00,,,0.01,VWS V14.01,2013-01-29 20:37:00,
2013-01-29 14:38:00,73.5,65.5,29.34,South,178,11.0,18.0,76,0.00,,,0.01,VWS V14.01,2013-01-29 20:38:00,
2013-01-29 14:39:00,73.6,65.2,29.34,South,180,4.0,18.0,75,0.00,,,0.01,VWS V14.01,2013-01-29 20:39:00,
2013-01-29 14:40:00,73.6,65.2,29.34,SSE,167,3.0,18.0,75,0.00,,,0.01,VWS V14.01,2013-01-29 20:40:00,
2013-01-29 14:41:00,73.6,65.2,29.35,SSE,162,15.0,23.0,75,0.00,,,0.01,VWS V14.01,2013-01-29 20:41:00,
2013-01-29 14:42:00,73.2,65.6,29.35,SE,146,6.0,15.0,77,0.00,,,0.01,VWS V14.01,2013-01-29 20:42:00,
2013-01-29 14:43:00,73.4,65.0,29.35,SE,140,9.0,25.0,75,0.00,,,0.01,VWS V14.01,2013-01-29 20:43:00,
2013-01-29 14:44:00,73.3,64.9,29.35,South,174,11.0,25.0,75,0.00,,,0.01,VWS V14.01,2013-01-29 20:44:00,
2013-01-29 14:45:00,73.3,64.9,29.35,South,173,16.0,25.0,75,0.00,,,0.01,VWS V14.01,2013-01-29 20:45:00,
2013-01-29 14:46:00,73.3,64.9,29.35,South,190,21.0,25.0,75,0.00,,,0.01,VWS V14.01,2013-01-29 20:46:00,
2013-01-29 14:47:00,73.5,65.5,29.34,South,175,15.0,18.0,76,0.00,,,0.01,VWS V14.01,2013-01-29 20:47:00,
2013-01-29 14:48:00,73.2,64.8,29.35,South,189,16.0,25.0,75,0.00,,,0.01,VWS V14.01,2013-01-29 20:48:00,
2013-01-29 14:49:00,73.2,64.8,29.35,South,183,12.0,25.0,75,0.00,,,0.01,VWS V14.01,2013-01-29 20:49:00,
2013-01-29 14:50:00,73.2,64.8,29.35,South,190,11.0,25.0,75,0.00,,,0.01,VWS V14.01,2013-01-29 20:50:00,
2013-01-29 14:51:00,73.1,64.7,29.35,SSE,168,13.0,25.0,75,0.00,,,0.01,VWS V14.01,2013-01-29 20:51:00,
2013-01-29 14:52:00,73.5,65.1,29.35,South,171,23.0,25.0,75,0.00,,,0.01,VWS V14.01,2013-01-29 20:52:00,
2013-01-29 14:53:00,73.1,64.7,29.35,SSE,161,7.0,25.0,75,0.00,,,0.01,VWS V14.01,2013-01-29 20:53:00,
2013-01-29 14:54:00,73.2,64.8,29.35,SSW,196,14.0,25.0,75,0.00,,,0.01,VWS V14.01,2013-01-29 20:54:00,
2013-01-29 14:55:00,73.2,64.8,29.35,South,183,16.0,25.0,75,0.00,,,0.01,VWS V14.01,2013-01-29 20:55:00,
2013-01-29 14:56:00,73.3,64.5,29.35,South,176,10.0,25.0,74,0.00,,,0.01,VWS V14.01,2013-01-29 20:56:00,
2013-01-29 14:57:00,73.2,64.8,29.35,South,184,6.0,25.0,75,0.00,,,0.01,VWS V14.01,2013-01-29 20:57:00,
2013-01-29 14:58:00,73.4,64.6,29.35,South,190,14.0,25.0,74,0.00,,,0.01,VWS V14.01,2013-01-29 20:58:00,
2013-01-29 14:59:00,73.4,64.6,29.35,South,182,8.0,25.0,74,0.00,,,0.01,VWS V14.01,2013-01-29 20:59:00,
2013-01-29 15:00:00,73.5,64.7,29.35,South,181,12.0,12.0,74,0.00,,,0.01,VWS V14.01,2013-01-29 21:00:00,
2013-01-29 15:01:00,73.5,64.7,29.35,South,186,16.0,21.0,74,0.00,,,0.01,VWS V14.01,2013-01-29 21:01:00,
2013-01-29 15:02:00,73.1,64.7,29.35,South,178,6.0,25.0,75,0.00,,,0.01,VWS V14.01,2013-01-29 21:02:00,
2013-01-29 15:03:00,73.6,64.4,29.36,SSW,196,16.0,21.0,73,0.00,,,0.01,VWS V14.01,2013-01-29 21:03:00,
2013-01-29 15:04:00,73.6,64.4,29.37,SW,232,14.0,22.0,73,0.00,,,0.01,VWS V14.01,2013-01-29 21:04:00,
2013-01-29 15:05:00,73.0,61.8,29.38,SW,215,22.0,33.0,68,0.00,,,0.01,VWS V14.01,2013-01-29 21:05:00,
2013-01-29 15:06:00,71.3,56.2,29.38,SW,214,22.0,33.0,59,0.00,,,0.01,VWS V14.01,2013-01-29 21:06:00,
2013-01-29 15:07:00,73.4,64.6,29.35,South,186,19.0,25.0,74,0.00,,,0.01,VWS V14.01,2013-01-29 21:07:00,
2013-01-29 15:08:00,68.5,54.5,29.39,WSW,257,31.0,35.0,61,0.00,,,0.01,VWS V14.01,2013-01-29 21:08:00,
2013-01-29 15:09:00,66.8,54.2,29.39,WSW,241,17.0,35.0,64,0.00,,,0.01,VWS V14.01,2013-01-29 21:09:00,
2013-01-29 15:10:00,65.9,54.2,29.39,SSW,200,21.0,35.0,66,0.00,,,0.01,VWS V14.01,2013-01-29 21:10:00,
2013-01-29 15:11:00,64.8,54.0,29.39,WSW,257,28.0,35.0,68,0.00,,,0.01,VWS V14.01,2013-01-29 21:11:00,
2013-01-29 15:12:00,73.6,64.4,29.36,SSW,213,14.0,21.0,73,0.00,,,0.01,VWS V14.01,2013-01-29 21:12:00,
2013-01-29 15:13:00,63.1,55.1,29.41,West,267,16.0,35.0,75,0.00,,,0.01,VWS V14.01,2013-01-29 21:13:00,
2013-01-29 15:14:00,62.3,55.4,29.41,WSW,253,20.0,35.0,78,0.00,,,0.01,VWS V14.01,2013-01-29 21:14:00,
2013-01-29 15:15:00,61.4,55.2,29.40,WNW,284,16.0,35.0,80,0.01,,,0.02,VWS V14.01,2013-01-29 21:15:00,
2013-01-29 15:16:00,60.6,54.8,29.39,WSW,258,13.0,35.0,81,0.01,,,0.02,VWS V14.01,2013-01-29 21:16:00,
2013-01-29 15:17:00,68.7,53.8,29.39,WSW,250,24.0,35.0,59,0.00,,,0.01,VWS V14.01,2013-01-29 21:17:00,
2013-01-29 15:18:00,59.4,54.2,29.41,WSW,257,12.0,35.0,83,0.01,,,0.02,VWS V14.01,2013-01-29 21:18:00,
2013-01-29 15:19:00,59.0,54.2,29.42,WSW,245,16.0,35.0,84,0.01,,,0.02,VWS V14.01,2013-01-29 21:19:00,
2013-01-29 15:20:00,58.9,54.4,29.42,WSW,254,13.0,35.0,85,0.02,,,0.03,VWS V14.01,2013-01-29 21:20:00,
2013-01-29 15:22:00,63.3,54.5,29.41,WSW,250,25.0,35.0,73,0.00,,,0.01,VWS V14.01,2013-01-29 21:22:00,
2013-01-29 15:23:00,58.2,54.4,29.44,SSW,211,12.0,35.0,87,0.03,,,0.04,VWS V14.01,2013-01-29 21:23:00,
2013-01-29 15:24:00,58.0,54.5,29.44,WSW,238,14.0,35.0,88,0.03,,,0.04,VWS V14.01,2013-01-29 21:24:00,
2013-01-29 15:25:00,57.9,54.4,29.42,WSW,257,14.0,35.0,88,0.04,,,0.05,VWS V14.01,2013-01-29 21:25:00,
2013-01-29 15:26:00,57.7,54.2,29.41,SW,232,15.0,35.0,88,0.05,,,0.06,VWS V14.01,2013-01-29 21:26:00,
2013-01-29 15:27:00,59.6,54.4,29.41,SW,231,17.0,35.0,83,0.01,,,0.02,VWS V14.01,2013-01-29 21:27:00,
2013-01-29 15:28:00,57.5,54.3,29.41,SW,234,12.0,35.0,89,0.07,,,0.08,VWS V14.01,2013-01-29 21:28:00,
2013-01-29 15:29:00,57.4,54.2,29.42,SW,227,18.0,35.0,89,0.08,,,0.09,VWS V14.01,2013-01-29 21:29:00,
2013-01-29 15:30:00,57.2,54.0,29.42,WSW,237,13.0,17.0,89,0.09,,,0.10,VWS V14.01,2013-01-29 21:30:00,
2013-01-29 15:31:00,57.1,54.2,29.42,WSW,238,6.0,17.0,90,0.10,,,0.11,VWS V14.01,2013-01-29 21:31:00,
2013-01-29 15:32:00,57.1,54.2,29.42,SW,222,16.0,18.0,90,0.11,,,0.12,VWS V14.01,2013-01-29 21:32:00,
2013-01-29 15:33:00,58.1,54.3,29.44,WSW,248,10.0,35.0,87,0.03,,,0.04,VWS V14.01,2013-01-29 21:33:00,
2013-01-29 15:34:00,56.9,54.0,29.42,SW,235,10.0,19.0,90,0.14,,,0.15,VWS V14.01,2013-01-29 21:34:00,
2013-01-29 15:35:00,56.8,53.9,29.42,WNW,288,9.0,20.0,90,0.16,,,0.17,VWS V14.01,2013-01-29 21:35:00,
2013-01-29 15:36:00,56.8,53.9,29.41,WSW,249,4.0,20.0,90,0.18,,,0.19,VWS V14.01,2013-01-29 21:36:00,
2013-01-29 15:37:00,56.8,54.2,29.41,West,268,4.0,20.0,91,0.20,,,0.21,VWS V14.01,2013-01-29 21:37:00,
2013-01-29 15:38:00,57.5,54.3,29.42,SW,232,16.0,35.0,89,0.07,,,0.08,VWS V14.01,2013-01-29 21:38:00,
2013-01-29 15:39:00,56.7,54.1,29.42,WSW,253,10.0,20.0,91,0.22,,,0.23,VWS V14.01,2013-01-29 21:39:00,
2013-01-29 15:40:00,56.6,54.0,29.42,SW,232,6.0,20.0,91,0.22,,,0.23,VWS V14.01,2013-01-29 21:40:00,
2013-01-29 15:41:00,56.6,54.0,29.42,SW,234,6.0,20.0,91,0.23,,,0.24,VWS V14.01,2013-01-29 21:41:00,
2013-01-29 15:42:00,56.6,54.0,29.42,WSW,254,4.0,20.0,91,0.24,,,0.25,VWS V14.01,2013-01-29 21:42:00,
2013-01-29 15:43:00,57.0,54.1,29.42,WSW,248,17.0,19.0,90,0.13,,,0.14,VWS V14.01,2013-01-29 21:43:00,
2013-01-29 15:44:00,56.5,53.9,29.42,WSW,257,6.0,20.0,91,0.28,,,0.29,VWS V14.01,2013-01-29 21:44:00,
2013-01-29 15:45:00,56.4,53.8,29.42,SW,223,7.0,20.0,91,0.29,,,0.30,VWS V14.01,2013-01-29 21:45:00,
2013-01-29 15:46:00,56.4,53.8,29.43,West,265,9.0,20.0,91,0.29,,,0.30,VWS V14.01,2013-01-29 21:46:00,
2013-01-29 15:47:00,56.3,53.7,29.43,SW,232,7.0,20.0,91,0.29,,,0.30,VWS V14.01,2013-01-29 21:47:00,
2013-01-29 15:48:00,56.7,54.1,29.42,SW,214,10.0,20.0,91,0.21,,,0.22,VWS V14.01,2013-01-29 21:48:00,
2013-01-29 15:49:00,56.2,53.6,29.43,SW,232,8.0,20.0,91,0.30,,,0.31,VWS V14.01,2013-01-29 21:49:00,
2013-01-29 15:50:00,56.2,53.6,29.42,WSW,242,6.0,20.0,91,0.31,,,0.32,VWS V14.01,2013-01-29 21:50:00,
2013-01-29 15:51:00,56.2,53.9,29.42,WSW,245,3.0,20.0,92,0.31,,,0.32,VWS V14.01,2013-01-29 21:51:00,
2013-01-29 15:52:00,56.2,53.9,29.41,West,278,9.0,20.0,92,0.32,,,0.33,VWS V14.01,2013-01-29 21:52:00,
2013-01-29 15:53:00,56.6,54.0,29.42,SW,232,8.0,20.0,91,0.27,,,0.28,VWS V14.01,2013-01-29 21:53:00,
2013-01-29 15:54:00,56.1,53.8,29.41,WSW,238,5.0,20.0,92,0.32,,,0.33,VWS V14.01,2013-01-29 21:54:00,
2013-01-29 15:55:00,56.1,53.8,29.42,WNW,292,6.0,20.0,92,0.32,,,0.33,VWS V14.01,2013-01-29 21:55:00,
2013-01-29 15:56:00,56.1,53.8,29.41,WNW,286,5.0,20.0,92,0.33,,,0.34,VWS V14.01,2013-01-29 21:56:00,
2013-01-29 15:57:00,56.1,53.8,29.41,West,263,9.0,20.0,92,0.33,,,0.34,VWS V14.01,2013-01-29 21:57:00,
2013-01-29 15:58:00,56.2,53.6,29.43,West,261,7.0,20.0,91,0.30,,,0.31,VWS V14.01,2013-01-29 21:58:00,
2013-01-29 15:59:00,56.1,53.8,29.41,WSW,250,6.0,20.0,92,0.33,,,0.34,VWS V14.01,2013-01-29 21:59:00,
2013-01-29 16:00:00,56.1,53.8,29.42,WSW,238,7.0,11.0,92,0.34,,,0.35,VWS V14.01,2013-01-29 22:00:00,
2013-01-29 16:01:00,56.1,53.8,29.42,SW,221,7.0,11.0,92,0.34,,,0.35,VWS V14.01,2013-01-29 22:01:00,
2013-01-29 16:02:00,56.1,53.8,29.42,SW,225,5.0,11.0,92,0.34,,,0.35,VWS V14.01,2013-01-29 22:02:00,
2013-01-29 16:03:00,56.1,53.8,29.41,WSW,250,4.0,20.0,92,0.32,,,0.33,VWS V14.01,2013-01-29 22:03:00,
2013-01-29 16:04:00,56.2,53.9,29.43,SW,228,2.0,11.0,92,0.35,,,0.36,VWS V14.01,2013-01-29 22:04:00,
2013-01-29 16:05:00,56.2,53.9,29.43,WSW,250,6.0,11.0,92,0.35,,,0.36,VWS V14.01,2013-01-29 22:05:00,
2013-01-29 16:06:00,56.2,53.9,29.43,WSW,254,5.0,11.0,92,0.35,,,0.36,VWS V14.01,2013-01-29 22:06:00,
2013-01-29 16:07:00,56.1,53.8,29.43,SW,232,4.0,11.0,92,0.35,,,0.36,VWS V14.01,2013-01-29 22:07:00,
2013-01-29 16:08:00,56.1,53.8,29.41,West,259,11.0,20.0,92,0.33,,,0.34,VWS V14.01,2013-01-29 22:08:00,
2013-01-29 16:09:00,56.1,53.8,29.43,WSW,246,5.0,11.0,92,0.36,,,0.37,VWS V14.01,2013-01-29 22:09:00,
2013-01-29 16:10:00,56.1,53.8,29.42,West,264,2.0,11.0,92,0.36,,,0.37,VWS V14.01,2013-01-29 22:10:00,
2013-01-29 16:11:00,56.1,53.8,29.41,WSW,245,6.0,11.0,92,0.37,,,0.38,VWS V14.01,2013-01-29 22:11:00,
2013-01-29 16:12:00,56.1,53.8,29.42,WSW,241,6.0,11.0,92,0.37,,,0.38,VWS V14.01,2013-01-29 22:12:00,
2013-01-29 16:13:00,56.1,53.8,29.43,SW,228,4.0,11.0,92,0.35,,,0.36,VWS V14.01,2013-01-29 22:13:00,
2013-01-29 16:14:00,56.0,53.7,29.42,West,260,5.0,11.0,92,0.37,,,0.38,VWS V14.01,2013-01-29 22:14:00,
2013-01-29 16:15:00,56.0,53.7,29.42,West,262,4.0,11.0,92,0.38,,,0.39,VWS V14.01,2013-01-29 22:15:00,
2013-01-29 16:16:00,56.1,53.8,29.42,West,276,5.0,11.0,92,0.38,,,0.39,VWS V14.01,2013-01-29 22:16:00,
2013-01-29 16:17:00,56.0,53.7,29.43,WSW,243,4.0,11.0,92,0.38,,,0.39,VWS V14.01,2013-01-29 22:17:00,
2013-01-29 16:18:00,56.1,53.8,29.43,WSW,243,7.0,11.0,92,0.35,,,0.36,VWS V14.01,2013-01-29 22:18:00,
2013-01-29 16:19:00,56.1,53.8,29.43,SW,232,6.0,11.0,92,0.38,,,0.39,VWS V14.01,2013-01-29 22:19:00,
2013-01-29 16:20:00,56.1,53.8,29.43,WSW,246,4.0,11.0,92,0.39,,,0.40,VWS V14.01,2013-01-29 22:20:00,
2013-01-29 16:21:00,56.0,53.7,29.43,SW,216,4.0,11.0,92,0.39,,,0.40,VWS V14.01,2013-01-29 22:21:00,
2013-01-29 16:22:00,56.0,53.7,29.43,SW,216,7.0,11.0,92,0.39,,,0.40,VWS V14.01,2013-01-29 22:22:00,
2013-01-29 16:23:00,56.0,53.7,29.42,West,263,4.0,11.0,92,0.37,,,0.38,VWS V14.01,2013-01-29 22:23:00,
2013-01-29 16:24:00,56.0,53.7,29.43,WSW,252,2.0,11.0,92,0.39,,,0.40,VWS V14.01,2013-01-29 22:24:00,
2013-01-29 16:25:00,56.0,53.7,29.42,WSW,256,7.0,11.0,92,0.39,,,0.40,VWS V14.01,2013-01-29 22:25:00,
2013-01-29 16:26:00,55.9,53.6,29.42,SW,231,6.0,11.0,92,0.39,,,0.40,VWS V14.01,2013-01-29 22:26:00,
2013-01-29 16:27:00,55.9,53.6,29.43,SW,219,4.0,11.0,92,0.39,,,0.40,VWS V14.01,2013-01-29 22:27:00,
2013-01-29 16:28:00,56.0,53.7,29.43,WSW,246,1.0,11.0,92,0.38,,,0.39,VWS V14.01,2013-01-29 22:28:00,
2013-01-29 16:29:00,55.9,53.6,29.42,WSW,244,3.0,11.0,92,0.40,,,0.41,VWS V14.01,2013-01-29 22:29:00,
2013-01-29 16:30:00,55.9,53.6,29.43,SW,222,3.0,6.0,92,0.32,,,0.41,VWS V14.01,2013-01-29 22:30:00,
2013-01-29 16:31:00,55.9,53.6,29.43,SW,218,5.0,7.0,92,0.32,,,0.41,VWS V14.01,2013-01-29 22:31:00,
2013-01-29 16:32:00,55.9,53.6,29.43,SW,218,3.0,7.0,92,0.32,,,0.41,VWS V14.01,2013-01-29 22:32:00,
2013-01-29 16:33:00,56.0,53.7,29.43,WSW,252,3.0,11.0,92,0.39,,,0.40,VWS V14.01,2013-01-29 22:33:00,
2013-01-29 16:34:00,55.9,53.6,29.43,SW,224,3.0,7.0,92,0.33,,,0.42,VWS V14.01,2013-01-29 22:34:00,
2013-01-29 16:35:00,55.9,53.6,29.43,WSW,242,4.0,7.0,92,0.33,,,0.42,VWS V14.01,2013-01-29 22:35:00,
2013-01-29 16:36:00,55.8,53.5,29.43,SW,217,6.0,7.0,92,0.33,,,0.42,VWS V14.01,2013-01-29 22:36:00,
2013-01-29 16:37:00,55.8,53.5,29.43,SW,234,4.0,7.0,92,0.33,,,0.42,VWS V14.01,2013-01-29 22:37:00,
2013-01-29 16:38:00,55.9,53.6,29.42,WSW,244,2.0,11.0,92,0.40,,,0.41,VWS V14.01,2013-01-29 22:38:00,
2013-01-29 16:39:00,55.8,53.5,29.43,SW,219,5.0,7.0,92,0.34,,,0.43,VWS V14.01,2013-01-29 22:39:00,
2013-01-29 16:40:00,55.7,53.4,29.43,SW,232,5.0,7.0,92,0.34,,,0.43,VWS V14.01,2013-01-29 22:40:00,
2013-01-29 16:41:00,55.7,53.4,29.43,SW,232,3.0,7.0,92,0.34,,,0.43,VWS V14.01,2013-01-29 22:41:00,
2013-01-29 16:42:00,55.7,53.4,29.43,WSW,241,4.0,7.0,92,0.34,,,0.43,VWS V14.01,2013-01-29 22:42:00,
2013-01-29 16:43:00,55.9,53.6,29.43,SSW,206,6.0,7.0,92,0.33,,,0.42,VWS V14.01,2013-01-29 22:43:00,
2013-01-29 16:44:00,55.6,53.3,29.42,WSW,241,0.0,7.0,92,0.34,,,0.43,VWS V14.01,2013-01-29 22:44:00,
2013-01-29 16:45:00,55.6,53.3,29.42,WSW,242,0.0,7.0,92,0.34,,,0.43,VWS V14.01,2013-01-29 22:45:00,
2013-01-29 16:46:00,55.6,53.3,29.42,WSW,256,1.0,7.0,92,0.34,,,0.43,VWS V14.01,2013-01-29 22:46:00,
2013-01-29 16:47:00,55.6,53.3,29.41,WSW,255,0.0,7.0,92,0.34,,,0.43,VWS V14.01,2013-01-29 22:47:00,
2013-01-29 16:48:00,55.8,53.5,29.43,SW,221,5.0,7.0,92,0.34,,,0.43,VWS V14.01,2013-01-29 22:48:00,
2013-01-29 16:49:00,55.5,53.2,29.42,SW,223,4.0,7.0,92,0.35,,,0.44,VWS V14.01,2013-01-29 22:49:00,
2013-01-29 16:50:00,55.5,53.2,29.42,SW,223,2.0,7.0,92,0.35,,,0.44,VWS V14.01,2013-01-29 22:50:00,
2013-01-29 16:51:00,55.5,53.2,29.42,SW,223,3.0,7.0,92,0.35,,,0.44,VWS V14.01,2013-01-29 22:51:00,
2013-01-29 16:52:00,55.5,53.2,29.43,SW,223,2.0,7.0,92,0.35,,,0.44,VWS V14.01,2013-01-29 22:52:00,
2013-01-29 16:53:00,55.6,53.3,29.42,WSW,242,2.0,7.0,92,0.34,,,0.43,VWS V14.01,2013-01-29 22:53:00,
2013-01-29 16:54:00,55.4,53.1,29.43,SW,228,3.0,7.0,92,0.35,,,0.44,VWS V14.01,2013-01-29 22:54:00,
2013-01-29 16:55:00,55.4,53.1,29.44,SW,223,4.0,7.0,92,0.35,,,0.44,VWS V14.01,2013-01-29 22:55:00,
2013-01-29 16:56:00,55.4,53.1,29.44,SW,215,5.0,7.0,92,0.35,,,0.44,VWS V14.01,2013-01-29 22:56:00,
2013-01-29 16:57:00,55.4,53.1,29.44,SW,215,3.0,7.0,92,0.35,,,0.44,VWS V14.01,2013-01-29 22:57:00,
2013-01-29 16:58:00,55.5,53.2,29.42,SW,223,3.0,7.0,92,0.35,,,0.44,VWS V14.01,2013-01-29 22:58:00,
2013-01-29 16:59:00,55.4,53.1,29.45,SSW,211,4.0,7.0,92,0.36,,,0.45,VWS V14.01,2013-01-29 22:59:00,
2013-01-29 17:00:00,55.4,53.1,29.45,SW,215,4.0,5.0,92,0.11,,,0.45,VWS V14.01,2013-01-29 23:00:00,
2013-01-29 17:01:00,55.4,53.1,29.45,SW,220,5.0,6.0,92,0.11,,,0.45,VWS V14.01,2013-01-29 23:01:00,
2013-01-29 17:02:00,55.4,53.1,29.45,SW,223,4.0,9.0,92,0.11,,,0.45,VWS V14.01,2013-01-29 23:02:00,
2013-01-29 17:03:00,55.4,53.1,29.43,SW,228,2.0,7.0,92,0.35,,,0.44,VWS V14.01,2013-01-29 23:03:00,
2013-01-29 17:04:00,55.3,52.7,29.45,SW,215,4.0,9.0,91,0.11,,,0.45,VWS V14.01,2013-01-29 23:04:00,
2013-01-29 17:05:00,55.3,52.7,29.45,SW,225,4.0,9.0,91,0.11,,,0.45,VWS V14.01,2013-01-29 23:05:00,
2013-01-29 17:06:00,55.3,52.7,29.45,SW,231,4.0,10.0,91,0.11,,,0.45,VWS V14.01,2013-01-29 23:06:00,
2013-01-29 17:07:00,55.2,52.6,29.45,SW,230,5.0,10.0,91,0.11,,,0.45,VWS V14.01,2013-01-29 23:07:00,
2013-01-29 17:08:00,55.4,53.1,29.45,SSW,211,5.0,7.0,92,0.36,,,0.45,VWS V14.01,2013-01-29 23:08:00,
2013-01-29 17:09:00,55.2,52.6,29.45,SSW,213,9.0,13.0,91,0.11,,,0.45,VWS V14.01,2013-01-29 23:09:00,
2013-01-29 17:10:00,55.1,52.8,29.45,SW,221,5.0,13.0,92,0.11,,,0.45,VWS V14.01,2013-01-29 23:10:00,
2013-01-29 17:11:00,55.1,52.8,29.45,West,264,7.0,13.0,92,0.11,,,0.45,VWS V14.01,2013-01-29 23:11:00,
2013-01-29 17:12:00,55.2,52.9,29.45,WSW,250,5.0,13.0,92,0.11,,,0.45,VWS V14.01,2013-01-29 23:12:00,
2013-01-29 17:13:00,55.3,52.7,29.45,SW,215,6.0,9.0,91,0.11,,,0.45,VWS V14.01,2013-01-29 23:13:00,
2013-01-29 17:14:00,55.2,52.9,29.45,WSW,238,7.0,13.0,92,0.12,,,0.46,VWS V14.01,2013-01-29 23:14:00,
2013-01-29 17:15:00,55.2,52.9,29.45,WSW,245,7.0,13.0,92,0.12,,,0.46,VWS V14.01,2013-01-29 23:15:00,
2013-01-29 17:16:00,55.3,53.0,29.45,WSW,238,13.0,13.0,92,0.12,,,0.46,VWS V14.01,2013-01-29 23:16:00,
2013-01-29 17:17:00,55.3,53.0,29.45,WSW,246,9.0,13.0,92,0.12,,,0.46,VWS V14.01,2013-01-29 23:17:00,
2013-01-29 17:18:00,55.2,52.6,29.45,SW,220,11.0,13.0,91,0.11,,,0.45,VWS V14.01,2013-01-29 23:18:00,
2013-01-29 17:19:00,55.3,52.7,29.45,WSW,242,5.0,13.0,91,0.12,,,0.46,VWS V14.01,2013-01-29 23:19:00,
2013-01-29 17:20:00,55.3,52.7,29.44,WSW,245,3.0,13.0,91,0.12,,,0.46,VWS V14.01,2013-01-29 23:20:00,
2013-01-29 17:21:00,55.3,52.7,29.44,WSW,241,6.0,13.0,91,0.13,,,0.47,VWS V14.01,2013-01-29 23:21:00,
2013-01-29 17:22:00,55.3,52.7,29.44,WSW,243,4.0,13.0,91,0.13,,,0.47,VWS V14.01,2013-01-29 23:22:00,
2013-01-29 17:23:00,55.3,52.7,29.44,WSW,248,5.0,13.0,91,0.13,,,0.47,VWS V14.01,2013-01-29 23:23:00,
2013-01-29 17:24:00,55.2,52.9,29.45,SW,228,9.0,13.0,92,0.12,,,0.46,VWS V14.01,2013-01-29 23:24:00,
2013-01-29 17:25:00,55.2,52.6,29.43,WSW,243,5.0,13.0,91,0.13,,,0.47,VWS V14.01,2013-01-29 23:25:00,
2013-01-29 17:26:00,55.2,52.6,29.43,WSW,244,5.0,13.0,91,0.13,,,0.47,VWS V14.01,2013-01-29 23:26:00,
2013-01-29 17:27:00,55.2,52.6,29.43,WSW,248,6.0,13.0,91,0.13,,,0.47,VWS V14.01,2013-01-29 23:27:00,
2013-01-29 17:28:00,55.2,52.6,29.44,WSW,242,6.0,13.0,91,0.13,,,0.47,VWS V14.01,2013-01-29 23:28:00,
2013-01-29 17:29:00,55.3,52.7,29.45,WSW,237,3.0,13.0,91,0.12,,,0.46,VWS V14.01,2013-01-29 23:29:00,
2013-01-29 17:30:00,55.3,52.7,29.44,WSW,243,8.0,10.0,91,0.06,,,0.47,VWS V14.01,2013-01-29 23:30:00,
2013-01-29 17:31:00,55.3,52.7,29.45,SW,229,8.0,11.0,91,0.06,,,0.47,VWS V14.01,2013-01-29 23:31:00,
2013-01-29 17:32:00,55.3,52.7,29.45,SW,219,6.0,13.0,91,0.06,,,0.47,VWS V14.01,2013-01-29 23:32:00,
2013-01-29 17:33:00,55.4,52.8,29.45,WSW,237,8.0,13.0,91,0.06,,,0.47,VWS V14.01,2013-01-29 23:33:00,
2013-01-29 17:34:00,55.2,52.6,29.43,West,269,5.0,13.0,91,0.13,,,0.47,VWS V14.01,2013-01-29 23:34:00,
2013-01-29 17:35:00,55.4,52.8,29.45,SW,226,8.0,13.0,91,0.06,,,0.47,VWS V14.01,2013-01-29 23:35:00,
2013-01-29 17:36:00,55.4,52.8,29.45,SW,236,7.0,14.0,91,0.06,,,0.47,VWS V14.01,2013-01-29 23:36:00,
2013-01-29 17:37:00,55.5,52.9,29.46,SW,229,15.0,15.0,91,0.06,,,0.47,VWS V14.01,2013-01-29 23:37:00,
2013-01-29 17:38:00,55.6,53.0,29.46,SW,232,9.0,15.0,91,0.06,,,0.47,VWS V14.01,2013-01-29 23:38:00,
2013-01-29 17:39:00,55.2,52.6,29.44,West,259,9.0,13.0,91,0.13,,,0.47,VWS V14.01,2013-01-29 23:39:00,
2013-01-29 17:40:00,55.7,52.8,29.45,West,274,10.0,15.0,90,0.06,,,0.47,VWS V14.01,2013-01-29 23:40:00,
2013-01-29 17:41:00,55.7,52.8,29.45,SW,221,6.0,15.0,90,0.06,,,0.47,VWS V14.01,2013-01-29 23:41:00,
2013-01-29 17:42:00,55.8,52.9,29.46,SW,234,7.0,15.0,90,0.06,,,0.47,VWS V14.01,2013-01-29 23:42:00,
2013-01-29 17:43:00,55.8,52.9,29.47,SW,230,9.0,15.0,90,0.06,,,0.47,VWS V14.01,2013-01-29 23:43:00,
2013-01-29 17:44:00,55.4,52.8,29.45,WSW,251,7.0,13.0,91,0.06,,,0.47,VWS V14.01,2013-01-29 23:44:00,
2013-01-29 17:45:00,55.9,52.7,29.48,SW,225,13.0,15.0,89,0.06,,,0.47,VWS V14.01,2013-01-29 23:45:00,
2013-01-29 17:46:00,55.9,52.7,29.48,SW,229,9.0,16.0,89,0.06,,,0.47,VWS V14.01,2013-01-29 23:46:00,
2013-01-29 17:47:00,56.0,52.8,29.48,West,267,11.0,16.0,89,0.06,,,0.47,VWS V14.01,2013-01-29 23:47:00,
2013-01-29 17:48:00,56.2,52.7,29.48,WSW,238,14.0,16.0,88,0.06,,,0.47,VWS V14.01,2013-01-29 23:48:00,
2013-01-29 17:49:00,55.7,52.8,29.46,WSW,242,5.0,15.0,90,0.06,,,0.47,VWS V14.01,2013-01-29 23:49:00,
2013-01-29 17:50:00,56.3,52.5,29.48,WSW,255,10.0,16.0,87,0.06,,,0.47,VWS V14.01,2013-01-29 23:50:00,
2013-01-29 17:51:00,56.4,52.6,29.48,WSW,254,12.0,16.0,87,0.06,,,0.47,VWS V14.01,2013-01-29 23:51:00,
2013-01-29 17:52:00,56.4,52.3,29.48,West,272,8.0,16.0,86,0.06,,,0.47,VWS V14.01,2013-01-29 23:52:00,
2013-01-29 17:53:00,56.4,52.3,29.48,WSW,240,6.0,16.0,86,0.06,,,0.47,VWS V14.01,2013-01-29 23:53:00,
2013-01-29 17:54:00,55.8,52.9,29.48,WSW,240,9.0,15.0,90,0.06,,,0.47,VWS V14.01,2013-01-29 23:54:00,
2013-01-29 17:55:00,56.4,52.0,29.48,WSW,250,13.0,16.0,85,0.06,,,0.47,VWS V14.01,2013-01-29 23:55:00,
2013-01-29 17:56:00,56.5,52.0,29.48,WSW,238,16.0,16.0,85,0.06,,,0.47,VWS V14.01,2013-01-29 23:56:00,
2013-01-29 17:57:00,56.6,51.5,29.49,WSW,248,15.0,18.0,83,0.06,,,0.47,VWS V14.01,2013-01-29 23:57:00,
2013-01-29 17:58:00,56.7,51.3,29.50,WSW,238,11.0,18.0,82,0.06,,,0.47,VWS V14.01,2013-01-29 23:58:00,
2013-01-29 17:59:00,56.2,52.4,29.48,West,281,11.0,16.0,87,0.06,,,0.47,VWS V14.01,2013-01-29 23:59:00,
2013-01-29 18:00:00,56.6,50.8,29.50,SW,236,5.0,14.0,81,0.02,,,0.47,VWS V14.01,2013-01-30 00:00:00,
2013-01-29 18:01:00,56.6,50.8,29.51,WSW,251,10.0,17.0,81,0.02,,,0.47,VWS V14.01,2013-01-30 00:01:00,
2013-01-29 18:02:00,56.5,50.8,29.51,WSW,256,10.0,17.0,81,0.02,,,0.47,VWS V14.01,2013-01-30 00:02:00,
2013-01-29 18:03:00,56.4,50.0,29.51,WSW,254,11.0,18.0,79,0.02,,,0.47,VWS V14.01,2013-01-30 00:03:00,
2013-01-29 18:04:00,56.4,52.3,29.48,WSW,245,15.0,16.0,86,0.06,,,0.47,VWS V14.01,2013-01-30 00:04:00,
2013-01-29 18:05:00,56.4,50.0,29.51,WSW,242,15.0,19.0,79,0.02,,,0.47,VWS V14.01,2013-01-30 00:05:00,
2013-01-29 18:06:00,56.4,49.6,29.52,WSW,249,9.0,19.0,78,0.02,,,0.47,VWS V14.01,2013-01-30 00:06:00,
2013-01-29 18:07:00,56.3,49.9,29.52,WSW,250,18.0,19.0,79,0.02,,,0.47,VWS V14.01,2013-01-30 00:07:00,
2013-01-29 18:08:00,56.2,49.4,29.52,WSW,245,14.0,19.0,78,0.02,,,0.47,VWS V14.01,2013-01-30 00:08:00,
2013-01-29 18:09:00,56.6,51.2,29.50,West,261,13.0,18.0,82,0.06,,,0.47,VWS V14.01,2013-01-30 00:09:00,
2013-01-29 18:10:00,56.0,49.2,29.51,West,276,14.0,19.0,78,0.02,,,0.47,VWS V14.01,2013-01-30 00:10:00,
2013-01-29 18:11:00,56.0,49.2,29.51,West,277,11.0,19.0,78,0.02,,,0.47,VWS V14.01,2013-01-30 00:11:00,
2013-01-29 18:12:00,55.9,49.2,29.51,WSW,253,12.0,19.0,78,0.02,,,0.47,VWS V14.01,2013-01-30 00:12:00,
2013-01-29 18:13:00,55.9,48.8,29.51,West,262,9.0,19.0,77,0.03,,,0.48,VWS V14.01,2013-01-30 00:13:00,
2013-01-29 18:14:00,56.4,50.0,29.51,SW,230,10.0,18.0,79,0.02,,,0.47,VWS V14.01,2013-01-30 00:14:00,
2013-01-29 18:15:00,55.7,48.6,29.51,West,266,11.0,19.0,77,0.03,,,0.48,VWS V14.01,2013-01-30 00:15:00,
2013-01-29 18:16:00,55.7,48.6,29.52,West,265,10.0,19.0,77,0.03,,,0.48,VWS V14.01,2013-01-30 00:16:00,
2013-01-29 18:17:00,55.6,48.5,29.52,WSW,258,5.0,19.0,77,0.03,,,0.48,VWS V14.01,2013-01-30 00:17:00,
2013-01-29 18:18:00,55.5,48.4,29.52,WSW,253,15.0,19.0,77,0.03,,,0.48,VWS V14.01,2013-01-30 00:18:00,
2013-01-29 18:19:00,56.1,49.3,29.51,WSW,257,9.0,19.0,78,0.02,,,0.47,VWS V14.01,2013-01-30 00:19:00,
2013-01-29 18:20:00,55.3,47.9,29.52,WSW,257,17.0,19.0,76,0.03,,,0.48,VWS V14.01,2013-01-30 00:20:00,
2013-01-29 18:21:00,55.4,47.6,29.53,WSW,258,9.0,19.0,75,0.03,,,0.48,VWS V14.01,2013-01-30 00:21:00,
2013-01-29 18:22:00,55.4,47.3,29.53,SW,227,13.0,19.0,74,0.03,,,0.48,VWS V14.01,2013-01-30 00:22:00,
2013-01-29 18:23:00,55.5,47.4,29.54,WSW,238,8.0,19.0,74,0.03,,,0.48,VWS V14.01,2013-01-30 00:23:00,
2013-01-29 18:24:00,55.8,48.7,29.51,WSW,254,10.0,19.0,77,0.03,,,0.48,VWS V14.01,2013-01-30 00:24:00,
2013-01-29 18:25:00,55.4,47.3,29.55,SW,232,10.0,19.0,74,0.03,,,0.48,VWS V14.01,2013-01-30 00:25:00,
2013-01-29 18:26:00,55.3,47.2,29.55,SW,229,11.0,19.0,74,0.03,,,0.48,VWS V14.01,2013-01-30 00:26:00,
2013-01-29 18:27:00,55.3,46.8,29.55,SW,228,5.0,19.0,73,0.03,,,0.48,VWS V14.01,2013-01-30 00:27:00,
2013-01-29 18:28:00,55.2,46.7,29.55,WSW,240,12.0,19.0,73,0.03,,,0.48,VWS V14.01,2013-01-30 00:28:00,
2013-01-29 18:29:00,55.4,48.3,29.52,WSW,253,12.0,19.0,77,0.03,,,0.48,VWS V14.01,2013-01-30 00:29:00,
2013-01-29 18:30:00,55.0,46.9,29.54,SW,226,12.0,17.0,74,0.01,,,0.48,VWS V14.01,2013-01-30 00:30:00,
2013-01-29 18:31:00,55.0,46.9,29.55,West,261,12.0,19.0,74,0.01,,,0.48,VWS V14.01,2013-01-30 00:31:00,
2013-01-29 18:32:00,54.9,46.4,29.55,WSW,248,12.0,19.0,73,0.01,,,0.48,VWS V14.01,2013-01-30 00:32:00,
2013-01-29 18:33:00,54.8,46.7,29.55,WSW,247,9.0,19.0,74,0.01,,,0.48,VWS V14.01,2013-01-30 00:33:00,
2013-01-29 18:34:00,55.4,47.3,29.55,WSW,245,19.0,19.0,74,0.03,,,0.48,VWS V14.01,2013-01-30 00:34:00,
2013-01-29 18:35:00,54.7,46.2,29.55,West,277,15.0,21.0,73,0.01,,,0.48,VWS V14.01,2013-01-30 00:35:00,
2013-01-29 18:36:00,54.6,46.5,29.55,West,273,13.0,21.0,74,0.01,,,0.48,VWS V14.01,2013-01-30 00:36:00,
2013-01-29 18:37:00,54.4,46.7,29.54,WSW,252,10.0,21.0,75,0.01,,,0.48,VWS V14.01,2013-01-30 00:37:00,
2013-01-29 18:38:00,54.3,46.6,29.55,SW,215,10.0,21.0,75,0.02,,,0.49,VWS V14.01,2013-01-30 00:38:00,
2013-01-29 18:39:00,55.1,47.0,29.54,WSW,242,17.0,17.0,74,0.01,,,0.48,VWS V14.01,2013-01-30 00:39:00,
2013-01-29 18:40:00,54.0,46.3,29.54,WSW,240,20.0,27.0,75,0.02,,,0.49,VWS V14.01,2013-01-30 00:40:00,
2013-01-29 18:41:00,54.0,45.9,29.54,WSW,253,17.0,27.0,74,0.02,,,0.49,VWS V14.01,2013-01-30 00:41:00,
2013-01-29 18:42:00,54.0,45.9,29.54,West,271,14.0,27.0,74,0.02,,,0.49,VWS V14.01,2013-01-30 00:42:00,
2013-01-29 18:43:00,53.9,45.8,29.54,WSW,241,16.0,27.0,74,0.02,,,0.49,VWS V14.01,2013-01-30 00:43:00,
2013-01-29 18:44:00,54.7,46.6,29.55,WSW,238,13.0,21.0,74,0.01,,,0.48,VWS V14.01,2013-01-30 00:44:00,
2013-01-29 18:45:00,53.7,46.3,29.54,SW,226,10.0,27.0,76,0.02,,,0.49,VWS V14.01,2013-01-30 00:45:00,
2013-01-29 18:46:00,53.5,46.1,29.55,SW,231,12.0,27.0,76,0.02,,,0.49,VWS V14.01,2013-01-30 00:46:00,
2013-01-29 18:47:00,53.4,46.4,29.56,WSW,257,10.0,27.0,77,0.02,,,0.49,VWS V14.01,2013-01-30 00:47:00,
2013-01-29 18:48:00,53.2,46.5,29.56,WSW,242,9.0,27.0,78,0.02,,,0.49,VWS V14.01,2013-01-30 00:48:00,
2013-01-29 18:49:00,54.1,46.4,29.54,SW,234,24.0,25.0,75,0.02,,,0.49,VWS V14.01,2013-01-30 00:49:00,
2013-01-29 18:50:00,52.9,46.6,29.55,WSW,242,11.0,27.0,79,0.02,,,0.49,VWS V14.01,2013-01-30 00:50:00,
2013-01-29 18:51:00,52.9,46.2,29.55,West,259,12.0,27.0,78,0.02,,,0.49,VWS V14.01,2013-01-30 00:51:00,
2013-01-29 18:52:00,52.9,46.2,29.54,WNW,283,11.0,27.0,78,0.02,,,0.49,VWS V14.01,2013-01-30 00:52:00,
2013-01-29 18:53:00,52.8,46.5,29.53,WNW,286,10.0,27.0,79,0.02,,,0.49,VWS V14.01,2013-01-30 00:53:00,
2013-01-29 18:54:00,53.8,46.1,29.54,WSW,249,11.0,27.0,75,0.02,,,0.49,VWS V14.01,2013-01-30 00:54:00,
2013-01-29 18:55:00,52.7,46.4,29.55,SW,229,12.0,27.0,79,0.02,,,0.49,VWS V14.01,2013-01-30 00:55:00,
2013-01-29 18:56:00,52.7,46.4,29.55,SW,229,10.0,27.0,79,0.02,,,0.49,VWS V14.01,2013-01-30 00:56:00,
2013-01-29 18:57:00,52.6,46.3,29.55,SW,232,10.0,27.0,79,0.02,,,0.49,VWS V14.01,2013-01-30 00:57:00,
2013-01-29 18:58:00,52.6,46.6,29.55,WSW,258,7.0,27.0,80,0.02,,,0.49,VWS V14.01,2013-01-30 00:58:00,
2013-01-29 18:59:00,53.0,46.3,29.55,SW,227,11.0,27.0,78,0.02,,,0.49,VWS V14.01,2013-01-30 00:59:00,
2013-01-29 19:00:00,52.6,46.6,29.53,West,272,9.0,11.0,80,0.02,,,0.49,VWS V14.01,2013-01-30 01:00:00,
2013-01-29 19:01:00,52.6,46.6,29.52,West,276,4.0,11.0,80,0.02,,,0.49,VWS V14.01,2013-01-30 01:01:00,
2013-01-29 19:02:00,52.5,46.5,29.52,WSW,251,0.0,11.0,80,0.02,,,0.49,VWS V14.01,2013-01-30 01:02:00,
2013-01-29 19:03:00,52.5,46.5,29.52,WSW,248,0.0,11.0,80,0.02,,,0.49,VWS V14.01,2013-01-30 01:03:00,
2013-01-29 19:04:00,52.7,46.4,29.55,WSW,248,9.0,27.0,79,0.02,,,0.49,VWS V14.01,2013-01-30 01:04:00,
2013-01-29 19:05:00,52.3,46.3,29.52,WSW,248,0.0,11.0,80,0.02,,,0.49,VWS V14.01,2013-01-30 01:05:00,
2013-01-29 19:06:00,52.3,46.3,29.52,WSW,248,0.0,11.0,80,0.02,,,0.49,VWS V14.01,2013-01-30 01:06:00,
2013-01-29 19:07:00,52.3,46.3,29.51,WSW,248,0.0,11.0,80,0.02,,,0.49,VWS V14.01,2013-01-30 01:07:00,
2013-01-29 19:08:00,52.3,46.3,29.50,WSW,248,0.0,11.0,80,0.02,,,0.49,VWS V14.01,2013-01-30 01:08:00,
2013-01-29 19:09:00,52.6,46.6,29.53,WSW,249,8.0,11.0,80,0.02,,,0.49,VWS V14.01,2013-01-30 01:09:00,
2013-01-29 19:10:00,52.3,46.3,29.49,SE,126,2.0,11.0,80,0.02,,,0.49,VWS V14.01,2013-01-30 01:10:00,
2013-01-29 19:11:00,52.2,46.5,29.48,SE,126,0.0,11.0,81,0.02,,,0.49,VWS V14.01,2013-01-30 01:11:00,
2013-01-29 19:12:00,52.1,46.5,29.48,SE,126,1.0,11.0,81,0.02,,,0.49,VWS V14.01,2013-01-30 01:12:00,
2013-01-29 19:13:00,52.1,46.5,29.48,SE,126,0.0,11.0,81,0.02,,,0.49,VWS V14.01,2013-01-30 01:13:00,
2013-01-29 19:14:00,52.4,46.4,29.52,WSW,248,0.0,11.0,80,0.02,,,0.49,VWS V14.01,2013-01-30 01:14:00,
2013-01-29 19:15:00,52.0,46.7,29.49,SE,126,0.0,11.0,82,0.02,,,0.49,VWS V14.01,2013-01-30 01:15:00,
2013-01-29 19:16:00,51.9,46.6,29.49,SE,126,0.0,11.0,82,0.02,,,0.49,VWS V14.01,2013-01-30 01:16:00,
2013-01-29 19:17:00,51.8,46.8,29.49,SE,126,0.0,11.0,83,0.02,,,0.49,VWS V14.01,2013-01-30 01:17:00,
2013-01-29 19:18:00,51.8,46.8,29.49,SE,126,0.0,11.0,83,0.02,,,0.49,VWS V14.01,2013-01-30 01:18:00,
2013-01-29 19:19:00,52.3,46.3,29.49,SE,126,2.0,11.0,80,0.02,,,0.49,VWS V14.01,2013-01-30 01:19:00,
2013-01-29 19:20:00,51.7,46.7,29.49,SE,126,0.0,11.0,83,0.02,,,0.49,VWS V14.01,2013-01-30 01:20:00,
2013-01-29 19:21:00,51.7,47.0,29.50,SE,126,0.0,11.0,84,0.02,,,0.49,VWS V14.01,2013-01-30 01:21:00,
2013-01-29 19:22:00,51.7,47.0,29.50,SE,126,3.0,11.0,84,0.02,,,0.49,VWS V14.01,2013-01-30 01:22:00,
2013-01-29 19:23:00,51.6,46.9,29.50,SE,126,1.0,11.0,84,0.02,,,0.49,VWS V14.01,2013-01-30 01:23:00,
2013-01-29 19:24:00,52.0,46.7,29.49,SE,126,0.0,11.0,82,0.02,,,0.49,VWS V14.01,2013-01-30 01:24:00,
2013-01-29 19:25:00,51.5,47.2,29.51,SE,126,0.0,11.0,85,0.02,,,0.49,VWS V14.01,2013-01-30 01:25:00,
2013-01-29 19:26:00,51.4,47.0,29.51,SE,126,0.0,11.0,85,0.02,,,0.49,VWS V14.01,2013-01-30 01:26:00,
2013-01-29 19:27:00,51.3,47.0,29.52,SE,125,0.0,11.0,85,0.02,,,0.49,VWS V14.01,2013-01-30 01:27:00,
2013-01-29 19:28:00,51.3,47.0,29.52,SE,126,0.0,11.0,85,0.02,,,0.49,VWS V14.01,2013-01-30 01:28:00,
2013-01-29 19:29:00,51.7,46.7,29.49,SE,126,0.0,11.0,83,0.02,,,0.49,VWS V14.01,2013-01-30 01:29:00,
2013-01-29 19:30:00,51.2,47.2,29.51,SE,126,0.0,0.0,86,0.01,,,0.49,VWS V14.01,2013-01-30 01:30:00,
2013-01-29 19:31:00,51.1,47.1,29.51,SE,126,0.0,0.0,86,0.01,,,0.49,VWS V14.01,2013-01-30 01:31:00,
2013-01-29 19:32:00,51.0,47.0,29.52,SE,126,0.0,0.0,86,0.01,,,0.49,VWS V14.01,2013-01-30 01:32:00,
2013-01-29 19:33:00,51.0,47.0,29.52,SE,126,0.0,0.0,86,0.01,,,0.49,VWS V14.01,2013-01-30 01:33:00,
2013-01-29 19:34:00,51.5,47.2,29.51,SE,125,0.0,11.0,85,0.02,,,0.49,VWS V14.01,2013-01-30 01:34:00,
2013-01-29 19:35:00,51.0,47.0,29.52,SE,126,0.0,0.0,86,0.01,,,0.49,VWS V14.01,2013-01-30 01:35:00,
2013-01-29 19:36:00,50.9,46.9,29.52,SE,125,0.0,0.0,86,0.01,,,0.49,VWS V14.01,2013-01-30 01:36:00,
2013-01-29 19:37:00,50.9,46.9,29.53,SE,126,0.0,0.0,86,0.01,,,0.49,VWS V14.01,2013-01-30 01:37:00,
2013-01-29 19:38:00,51.0,47.0,29.52,SE,126,0.0,0.0,86,0.01,,,0.49,VWS V14.01,2013-01-30 01:38:00,
2013-01-29 19:39:00,51.2,47.2,29.51,SE,126,0.0,0.0,86,0.01,,,0.49,VWS V14.01,2013-01-30 01:39:00,
2013-01-29 19:40:00,50.9,46.9,29.52,SE,126,0.0,0.0,86,0.01,,,0.49,VWS V14.01,2013-01-30 01:40:00,
2013-01-29 19:41:00,50.9,46.9,29.52,SE,126,0.0,0.0,86,0.01,,,0.49,VWS V14.01,2013-01-30 01:41:00,
2013-01-29 19:42:00,50.9,47.2,29.52,SE,126,0.0,0.0,87,0.01,,,0.49,VWS V14.01,2013-01-30 01:42:00,
2013-01-29 19:43:00,50.9,47.2,29.52,SE,126,0.0,0.0,87,0.01,,,0.49,VWS V14.01,2013-01-30 01:43:00,
2013-01-29 19:44:00,51.0,47.0,29.52,SE,126,0.0,0.0,86,0.01,,,0.49,VWS V14.01,2013-01-30 01:44:00,
2013-01-29 19:45:00,50.8,47.1,29.51,SE,126,0.0,0.0,87,0.01,,,0.49,VWS V14.01,2013-01-30 01:45:00,
2013-01-29 19:46:00,50.8,47.1,29.51,SE,126,0.0,0.0,87,0.01,,,0.49,VWS V14.01,2013-01-30 01:46:00,
2013-01-29 19:47:00,50.7,47.0,29.50,SE,125,0.0,0.0,87,0.01,,,0.49,VWS V14.01,2013-01-30 01:47:00,
2013-01-29 19:48:00,50.6,46.9,29.50,SE,126,0.0,0.0,87,0.01,,,0.49,VWS V14.01,2013-01-30 01:48:00,
2013-01-29 19:49:00,50.9,46.9,29.52,SE,126,0.0,0.0,86,0.01,,,0.49,VWS V14.01,2013-01-30 01:49:00,
2013-01-29 19:50:00,50.6,46.9,29.50,SE,126,0.0,0.0,87,0.01,,,0.49,VWS V14.01,2013-01-30 01:50:00,
2013-01-29 19:51:00,50.6,46.9,29.50,SE,125,0.0,0.0,87,0.01,,,0.49,VWS V14.01,2013-01-30 01:51:00,
2013-01-29 19:52:00,50.6,46.9,29.51,SE,126,3.0,3.0,87,0.01,,,0.49,VWS V14.01,2013-01-30 01:52:00,
2013-01-29 19:53:00,50.6,46.9,29.52,SE,136,4.0,4.0,87,0.01,,,0.49,VWS V14.01,2013-01-30 01:53:00,
2013-01-29 19:54:00,50.8,47.1,29.51,SE,126,0.0,0.0,87,0.01,,,0.49,VWS V14.01,2013-01-30 01:54:00,
2013-01-29 19:55:00,50.9,47.2,29.54,South,179,5.0,7.0,87,0.01,,,0.49,VWS V14.01,2013-01-30 01:55:00,
2013-01-29 19:56:00,51.0,47.3,29.54,South,181,3.0,7.0,87,0.01,,,0.49,VWS V14.01,2013-01-30 01:56:00,
2013-01-29 19:57:00,51.2,47.5,29.54,SSW,192,5.0,7.0,87,0.01,,,0.49,VWS V14.01,2013-01-30 01:57:00,
2013-01-29 19:58:00,51.3,47.6,29.54,SSW,192,5.0,7.0,87,0.01,,,0.49,VWS V14.01,2013-01-30 01:58:00,
2013-01-29 19:59:00,50.6,46.9,29.50,SE,126,0.0,0.0,87,0.01,,,0.49,VWS V14.01,2013-01-30 01:59:00,
2013-01-29 20:00:00,51.4,47.4,29.54,South,191,2.0,4.0,86,0.00,,,0.49,VWS V14.01,2013-01-30 02:00:00,
2013-01-29 20:01:00,51.5,47.5,29.54,South,191,0.0,4.0,86,0.00,,,0.49,VWS V14.01,2013-01-30 02:01:00,
2013-01-29 20:02:00,51.5,47.5,29.53,South,191,1.0,4.0,86,0.00,,,0.49,VWS V14.01,2013-01-30 02:02:00,
2013-01-29 20:03:00,51.5,47.5,29.52,South,191,0.0,4.0,86,0.00,,,0.49,VWS V14.01,2013-01-30 02:03:00,
2013-01-29 20:04:00,50.8,47.1,29.54,South,180,6.0,7.0,87,0.01,,,0.49,VWS V14.01,2013-01-30 02:04:00,
2013-01-29 20:05:00,51.5,47.2,29.51,South,191,0.0,4.0,85,0.00,,,0.49,VWS V14.01,2013-01-30 02:05:00,
2013-01-29 20:06:00,51.5,47.2,29.52,South,191,0.0,4.0,85,0.00,,,0.49,VWS V14.01,2013-01-30 02:06:00,
2013-01-29 20:07:00,51.5,47.2,29.54,South,191,4.0,5.0,85,0.00,,,0.49,VWS V14.01,2013-01-30 02:07:00,
2013-01-29 20:08:00,51.6,47.2,29.54,South,191,0.0,5.0,85,0.00,,,0.49,VWS V14.01,2013-01-30 02:08:00,
2013-01-29 20:09:00,51.4,47.4,29.54,South,191,3.0,4.0,86,0.00,,,0.49,VWS V14.01,2013-01-30 02:09:00,
2013-01-29 20:10:00,51.6,47.2,29.53,South,190,0.0,5.0,85,0.00,,,0.49,VWS V14.01,2013-01-30 02:10:00,
2013-01-29 20:11:00,51.6,47.2,29.53,South,190,1.0,5.0,85,0.00,,,0.49,VWS V14.01,2013-01-30 02:11:00,
2013-01-29 20:12:00,51.5,47.2,29.51,SE,141,1.0,5.0,85,0.00,,,0.49,VWS V14.01,2013-01-30 02:12:00,
2013-01-29 20:13:00,51.5,47.2,29.51,SE,142,0.0,5.0,85,0.00,,,0.49,VWS V14.01,2013-01-30 02:13:00,
2013-01-29 20:14:00,51.5,47.2,29.51,South,191,0.0,4.0,85,0.00,,,0.49,VWS V14.01,2013-01-30 02:14:00,
2013-01-29 20:15:00,51.5,47.2,29.52,SE,142,0.0,5.0,85,0.00,,,0.49,VWS V14.01,2013-01-30 02:15:00,
2013-01-29 20:16:00,51.4,47.4,29.52,SE,142,0.0,5.0,86,0.00,,,0.49,VWS V14.01,2013-01-30 02:16:00,
2013-01-29 20:17:00,51.4,47.4,29.51,SE,142,0.0,5.0,86,0.00,,,0.49,VWS V14.01,2013-01-30 02:17:00,
2013-01-29 20:18:00,51.4,47.4,29.51,SE,142,0.0,5.0,86,0.00,,,0.49,VWS V14.01,2013-01-30 02:18:00,
2013-01-29 20:19:00,51.6,47.2,29.53,South,190,0.0,5.0,85,0.00,,,0.49,VWS V14.01,2013-01-30 02:19:00,
2013-01-29 20:20:00,51.3,47.3,29.50,SE,142,0.0,5.0,86,0.00,,,0.49,VWS V14.01,2013-01-30 02:20:00,
2013-01-29 20:21:00,51.3,47.3,29.50,SE,142,0.0,5.0,86,0.00,,,0.49,VWS V14.01,2013-01-30 02:21:00,
2013-01-29 20:22:00,51.2,47.2,29.50,SE,142,0.0,5.0,86,0.00,,,0.49,VWS V14.01,2013-01-30 02:22:00,
2013-01-29 20:23:00,51.2,47.2,29.50,SE,142,0.0,5.0,86,0.00,,,0.49,VWS V14.01,2013-01-30 02:23:00,
2013-01-29 20:24:00,51.4,47.0,29.52,SE,142,0.0,5.0,85,0.00,,,0.49,VWS V14.01,2013-01-30 02:24:00,
2013-01-29 20:25:00,51.2,47.2,29.51,SE,141,0.0,5.0,86,0.00,,,0.49,VWS V14.01,2013-01-30 02:25:00,
2013-01-29 20:26:00,51.1,47.1,29.51,SE,142,0.0,5.0,86,0.00,,,0.49,VWS V14.01,2013-01-30 02:26:00,
2013-01-29 20:27:00,51.0,47.0,29.52,SE,141,0.0,5.0,86,0.00,,,0.49,VWS V14.01,2013-01-30 02:27:00,
2013-01-29 20:28:00,51.0,47.0,29.53,SE,142,0.0,5.0,86,0.00,,,0.49,VWS V14.01,2013-01-30 02:28:00,
2013-01-29 20:29:00,51.3,47.3,29.50,SE,141,0.0,5.0,86,0.00,,,0.49,VWS V14.01,2013-01-30 02:29:00,
2013-01-29 20:30:00,50.9,46.9,29.53,SE,143,0.0,0.0,86,0.00,,,0.49,VWS V14.01,2013-01-30 02:30:00,
2013-01-29 20:31:00,50.9,46.9,29.53,SE,142,0.0,0.0,86,0.00,,,0.49,VWS V14.01,2013-01-30 02:31:00,
2013-01-29 20:32:00,50.8,46.8,29.52,SE,143,0.0,0.0,86,0.00,,,0.49,VWS V14.01,2013-01-30 02:32:00,
2013-01-29 20:33:00,50.8,46.8,29.52,SE,143,0.0,0.0,86,0.00,,,0.49,VWS V14.01,2013-01-30 02:33:00,
2013-01-29 20:34:00,51.2,47.2,29.51,SE,142,0.0,5.0,86,0.00,,,0.49,VWS V14.01,2013-01-30 02:34:00,
2013-01-29 20:35:00,50.8,46.8,29.52,SE,143,0.0,0.0,86,0.00,,,0.49,VWS V14.01,2013-01-30 02:35:00,
2013-01-29 20:36:00,50.8,46.8,29.52,SE,142,0.0,0.0,86,0.00,,,0.49,VWS V14.01,2013-01-30 02:36:00,
2013-01-29 20:37:00,50.8,46.8,29.51,SE,143,0.0,0.0,86,0.00,,,0.49,VWS V14.01,2013-01-30 02:37:00,
2013-01-29 20:38:00,50.8,46.8,29.51,SE,143,0.0,0.0,86,0.00,,,0.49,VWS V14.01,2013-01-30 02:38:00,
2013-01-29 20:39:00,50.9,46.9,29.53,SE,143,0.0,0.0,86,0.00,,,0.49,VWS V14.01,2013-01-30 02:39:00,
2013-01-29 20:40:00,50.7,46.7,29.50,SE,143,0.0,0.0,86,0.00,,,0.49,VWS V14.01,2013-01-30 02:40:00,
2013-01-29 20:41:00,50.6,46.6,29.49,SE,142,0.0,0.0,86,0.00,,,0.49,VWS V14.01,2013-01-30 02:41:00,
2013-01-29 20:42:00,50.6,46.9,29.50,SE,142,0.0,0.0,87,0.00,,,0.49,VWS V14.01,2013-01-30 02:42:00,
2013-01-29 20:43:00,50.6,46.9,29.50,SE,143,0.0,0.0,87,0.00,,,0.49,VWS V14.01,2013-01-30 02:43:00,
2013-01-29 20:44:00,50.8,46.8,29.52,SE,142,0.0,0.0,86,0.00,,,0.49,VWS V14.01,2013-01-30 02:44:00,
2013-01-29 20:45:00,50.5,46.8,29.50,SE,143,0.0,0.0,87,0.00,,,0.49,VWS V14.01,2013-01-30 02:45:00,
2013-01-29 20:46:00,50.5,46.8,29.50,SE,142,0.0,0.0,87,0.00,,,0.49,VWS V14.01,2013-01-30 02:46:00,
2013-01-29 20:47:00,50.5,46.8,29.50,SE,143,0.0,0.0,87,0.00,,,0.49,VWS V14.01,2013-01-30 02:47:00,
2013-01-29 20:48:00,50.4,46.7,29.50,SE,142,0.0,0.0,87,0.00,,,0.49,VWS V14.01,2013-01-30 02:48:00,
2013-01-29 20:49:00,50.7,46.7,29.50,SE,143,0.0,0.0,86,0.00,,,0.49,VWS V14.01,2013-01-30 02:49:00,
2013-01-29 20:50:00,50.4,46.7,29.51,SSW,209,4.0,5.0,87,0.00,,,0.49,VWS V14.01,2013-01-30 02:50:00,
2013-01-29 20:51:00,50.4,46.7,29.51,SSW,209,5.0,5.0,87,0.00,,,0.49,VWS V14.01,2013-01-30 02:51:00,
2013-01-29 20:52:00,50.5,46.8,29.51,SSW,209,4.0,5.0,87,0.00,,,0.49,VWS V14.01,2013-01-30 02:52:00,
2013-01-29 20:53:00,50.6,46.9,29.51,SSW,209,2.0,5.0,87,0.00,,,0.49,VWS V14.01,2013-01-30 02:53:00,
2013-01-29 20:54:00,50.5,46.8,29.50,SE,143,0.0,0.0,87,0.00,,,0.49,VWS V14.01,2013-01-30 02:54:00,
2013-01-29 20:55:00,50.7,47.0,29.51,SW,221,6.0,6.0,87,0.00,,,0.49,VWS V14.01,2013-01-30 02:55:00,
2013-01-29 20:56:00,50.7,46.7,29.51,SW,227,6.0,6.0,86,0.00,,,0.49,VWS V14.01,2013-01-30 02:56:00,
2013-01-29 20:57:00,50.8,46.8,29.50,SW,229,3.0,7.0,86,0.00,,,0.49,VWS V14.01,2013-01-30 02:57:00,
2013-01-29 20:58:00,50.9,46.9,29.50,SW,229,3.0,7.0,86,0.00,,,0.49,VWS V14.01,2013-01-30 02:58:00,
2013-01-29 20:59:00,50.4,46.7,29.51,SSW,210,5.0,5.0,87,0.00,,,0.49,VWS V14.01,2013-01-30 02:59:00,
2013-01-29 21:00:00,51.1,46.8,29.50,SW,228,6.0,6.0,85,0.00,,,0.49,VWS V14.01,2013-01-30 03:00:00,
2013-01-29 21:01:00,51.2,46.5,29.50,SW,224,4.0,6.0,84,0.00,,,0.49,VWS V14.01,2013-01-30 03:01:00,
2013-01-29 21:02:00,51.4,46.7,29.51,SW,221,7.0,7.0,84,0.00,,,0.49,VWS V14.01,2013-01-30 03:02:00,
2013-01-29 21:03:00,51.5,46.8,29.52,SW,219,6.0,7.0,84,0.00,,,0.49,VWS V14.01,2013-01-30 03:03:00,
2013-01-29 21:04:00,50.7,47.0,29.51,SW,221,5.0,6.0,87,0.00,,,0.49,VWS V14.01,2013-01-30 03:04:00,
2013-01-29 21:05:00,51.7,46.4,29.52,SW,219,6.0,9.0,82,0.00,,,0.49,VWS V14.01,2013-01-30 03:05:00,
2013-01-29 21:06:00,51.8,46.5,29.52,SW,214,5.0,9.0,82,0.00,,,0.49,VWS V14.01,2013-01-30 03:06:00,
2013-01-29 21:07:00,51.9,46.3,29.52,SW,215,4.0,9.0,81,0.00,,,0.49,VWS V14.01,2013-01-30 03:07:00,
2013-01-29 21:08:00,52.0,46.4,29.52,SW,215,5.0,9.0,81,0.00,,,0.49,VWS V14.01,2013-01-30 03:08:00,
2013-01-29 21:09:00,51.1,46.8,29.50,SW,227,4.0,4.0,85,0.00,,,0.49,VWS V14.01,2013-01-30 03:09:00,
2013-01-29 21:10:00,52.1,46.5,29.52,SSW,213,8.0,10.0,81,0.00,,,0.49,VWS V14.01,2013-01-30 03:10:00,
2013-01-29 21:11:00,52.1,46.1,29.53,SSW,205,6.0,10.0,80,0.00,,,0.49,VWS V14.01,2013-01-30 03:11:00,
2013-01-29 21:12:00,52.2,46.2,29.53,SSW,209,6.0,10.0,80,0.00,,,0.49,VWS V14.01,2013-01-30 03:12:00,
2013-01-29 21:13:00,52.2,46.2,29.53,SSW,194,7.0,10.0,80,0.00,,,0.49,VWS V14.01,2013-01-30 03:13:00,
2013-01-29 21:14:00,51.7,46.4,29.52,SW,219,6.0,9.0,82,0.00,,,0.49,VWS V14.01,2013-01-30 03:14:00,
2013-01-29 21:15:00,52.3,46.3,29.53,SSW,213,6.0,13.0,80,0.00,,,0.49,VWS V14.01,2013-01-30 03:15:00,
2013-01-29 21:16:00,52.3,46.0,29.53,SSW,210,8.0,13.0,79,0.00,,,0.49,VWS V14.01,2013-01-30 03:16:00,
2013-01-29 21:17:00,52.3,46.0,29.54,SSW,198,13.0,13.0,79,0.00,,,0.49,VWS V14.01,2013-01-30 03:17:00,
2013-01-29 21:18:00,52.4,46.1,29.54,South,191,9.0,13.0,79,0.00,,,0.49,VWS V14.01,2013-01-30 03:18:00,
2013-01-29 21:19:00,52.4,46.1,29.54,SSW,205,7.0,13.0,79,0.00,,,0.49,VWS V14.01,2013-01-30 03:19:00,
2013-01-29 21:20:00,52.1,46.5,29.52,SSW,213,10.0,10.0,81,0.00,,,0.49,VWS V14.01,2013-01-30 03:20:00,
2013-01-29 21:21:00,52.5,46.2,29.54,South,189,6.0,13.0,79,0.00,,,0.49,VWS V14.01,2013-01-30 03:21:00,
2013-01-29 21:22:00,52.6,46.3,29.54,SSW,194,10.0,13.0,79,0.00,,,0.49,VWS V14.01,2013-01-30 03:22:00,
2013-01-29 21:23:00,52.7,46.0,29.54,SSW,203,5.0,13.0,78,0.00,,,0.49,VWS V14.01,2013-01-30 03:23:00,
2013-01-29 21:24:00,52.8,46.1,29.54,SSW,202,6.0,13.0,78,0.00,,,0.49,VWS V14.01,2013-01-30 03:24:00,
2013-01-29 21:25:00,52.3,46.0,29.53,SSW,212,13.0,13.0,79,0.00,,,0.49,VWS V14.01,2013-01-30 03:25:00,
2013-01-29 21:26:00,52.9,46.2,29.55,South,179,11.0,14.0,78,0.00,,,0.49,VWS V14.01,2013-01-30 03:26:00,
2013-01-29 21:27:00,52.9,46.2,29.55,SSW,196,6.0,14.0,78,0.00,,,0.49,VWS V14.01,2013-01-30 03:27:00,
2013-01-29 21:28:00,52.8,46.1,29.54,SSW,203,6.0,14.0,78,0.00,,,0.49,VWS V14.01,2013-01-30 03:28:00,
2013-01-29 21:29:00,52.9,46.2,29.53,SSW,203,6.0,14.0,78,0.00,,,0.49,VWS V14.01,2013-01-30 03:29:00,
2013-01-29 21:30:00,52.5,46.2,29.55,South,190,11.0,13.0,79,0.00,,,0.49,VWS V14.01,2013-01-30 03:30:00,
2013-01-29 21:31:00,52.9,46.2,29.53,SSW,213,12.0,15.0,78,0.00,,,0.49,VWS V14.01,2013-01-30 03:31:00,
2013-01-29 21:32:00,52.9,45.9,29.53,SSW,213,10.0,16.0,77,0.00,,,0.49,VWS V14.01,2013-01-30 03:32:00,
2013-01-29 21:33:00,53.0,46.0,29.53,SW,217,15.0,16.0,77,0.00,,,0.49,VWS V14.01,2013-01-30 03:33:00,
2013-01-29 21:34:00,53.2,45.1,29.52,SW,219,10.0,16.0,74,0.00,,,0.49,VWS V14.01,2013-01-30 03:34:00,
2013-01-29 21:35:00,52.8,46.1,29.53,SSW,197,10.0,13.0,78,0.00,,,0.49,VWS V14.01,2013-01-30 03:35:00,
2013-01-29 21:36:00,53.7,44.9,29.53,SW,214,13.0,16.0,72,0.00,,,0.49,VWS V14.01,2013-01-30 03:36:00,
2013-01-29 21:37:00,53.9,45.1,29.53,SW,214,12.0,16.0,72,0.00,,,0.49,VWS V14.01,2013-01-30 03:37:00,
2013-01-29 21:38:00,53.9,44.7,29.53,SSW,213,7.0,16.0,71,0.00,,,0.49,VWS V14.01,2013-01-30 03:38:00,
2013-01-29 21:39:00,53.9,44.7,29.53,SSW,202,14.0,16.0,71,0.00,,,0.49,VWS V14.01,2013-01-30 03:39:00,
2013-01-29 21:40:00,52.8,46.1,29.53,SSW,208,15.0,15.0,78,0.00,,,0.49,VWS V14.01,2013-01-30 03:40:00,
2013-01-29 21:41:00,53.8,45.0,29.53,SW,215,9.0,16.0,72,0.00,,,0.49,VWS V14.01,2013-01-30 03:41:00,
2013-01-29 21:42:00,53.7,44.9,29.53,SSW,206,12.0,16.0,72,0.00,,,0.49,VWS V14.01,2013-01-30 03:42:00,
2013-01-29 21:43:00,53.6,44.8,29.53,SSW,211,14.0,16.0,72,0.00,,,0.49,VWS V14.01,2013-01-30 03:43:00,
2013-01-29 21:44:00,53.5,45.1,29.53,SSW,212,15.0,16.0,73,0.00,,,0.49,VWS V14.01,2013-01-30 03:44:00,
2013-01-29 21:45:00,53.6,44.8,29.52,SW,219,12.0,16.0,72,0.00,,,0.49,VWS V14.01,2013-01-30 03:45:00,
2013-01-29 21:46:00,53.3,45.2,29.53,SSW,213,9.0,16.0,74,0.00,,,0.49,VWS V14.01,2013-01-30 03:46:00,
2013-01-29 21:47:00,53.1,45.4,29.54,SW,219,6.0,16.0,75,0.00,,,0.49,VWS V14.01,2013-01-30 03:47:00,
2013-01-29 21:48:00,53.0,45.3,29.54,SSW,209,9.0,16.0,75,0.00,,,0.49,VWS V14.01,2013-01-30 03:48:00,
2013-01-29 21:49:00,52.8,45.5,29.54,SW,224,5.0,16.0,76,0.00,,,0.49,VWS V14.01,2013-01-30 03:49:00,
2013-01-29 21:50:00,53.9,45.1,29.53,SSW,213,10.0,16.0,72,0.00,,,0.49,VWS V14.01,2013-01-30 03:50:00,
2013-01-29 21:51:00,52.4,45.8,29.54,SSW,203,9.0,16.0,78,0.00,,,0.49,VWS V14.01,2013-01-30 03:51:00,
2013-01-29 21:52:00,52.3,45.7,29.54,SW,215,9.0,16.0,78,0.00,,,0.49,VWS V14.01,2013-01-30 03:52:00,
2013-01-29 21:53:00,52.1,45.8,29.54,SW,219,6.0,16.0,79,0.00,,,0.49,VWS V14.01,2013-01-30 03:53:00,
2013-01-29 21:54:00,52.0,45.7,29.54,SW,222,10.0,16.0,79,0.00,,,0.49,VWS V14.01,2013-01-30 03:54:00,
2013-01-29 21:55:00,53.3,45.2,29.53,SSW,213,10.0,16.0,74,0.00,,,0.49,VWS V14.01,2013-01-30 03:55:00,
2013-01-29 21:56:00,51.8,45.8,29.54,SW,214,7.0,16.0,80,0.00,,,0.49,VWS V14.01,2013-01-30 03:56:00,
2013-01-29 21:57:00,51.7,45.7,29.54,SSW,211,10.0,16.0,80,0.00,,,0.49,VWS V14.01,2013-01-30 03:57:00,
2013-01-29 21:58:00,51.7,45.7,29.54,SW,216,6.0,16.0,80,0.00,,,0.49,VWS V14.01,2013-01-30 03:58:00,
2013-01-29 21:59:00,51.7,45.7,29.54,SSW,200,12.0,16.0,80,0.00,,,0.49,VWS V14.01,2013-01-30 03:59:00,
2013-01-29 22:00:00,52.6,45.6,29.54,SW,217,5.0,16.0,77,0.00,,,0.49,VWS V14.01,2013-01-30 04:00:00,
2013-01-29 22:01:00,51.8,45.5,29.54,SW,231,9.0,15.0,79,0.00,,,0.49,VWS V14.01,2013-01-30 04:01:00,
2013-01-29 22:02:00,51.9,45.3,29.55,SW,234,13.0,15.0,78,0.00,,,0.49,VWS V14.01,2013-01-30 04:02:00,
2013-01-29 22:03:00,52.0,44.7,29.55,SW,221,10.0,15.0,76,0.00,,,0.49,VWS V14.01,2013-01-30 04:03:00,
2013-01-29 22:04:00,52.0,44.7,29.55,SW,229,9.0,15.0,76,0.00,,,0.49,VWS V14.01,2013-01-30 04:04:00,
2013-01-29 22:05:00,51.9,45.6,29.54,SSW,199,7.0,16.0,79,0.00,,,0.49,VWS V14.01,2013-01-30 04:05:00,
2013-01-29 22:06:00,52.5,43.4,29.55,SW,225,11.0,17.0,71,0.00,,,0.49,VWS V14.01,2013-01-30 04:06:00,
2013-01-29 22:07:00,52.8,42.9,29.54,WSW,257,14.0,17.0,69,0.00,,,0.49,VWS V14.01,2013-01-30 04:07:00,
2013-01-29 22:08:00,53.0,42.3,29.54,SW,223,10.0,21.0,67,0.00,,,0.49,VWS V14.01,2013-01-30 04:08:00,
2013-01-29 22:09:00,53.2,41.3,29.54,SW,221,18.0,21.0,64,0.00,,,0.49,VWS V14.01,2013-01-30 04:09:00,
2013-01-29 22:10:00,51.7,45.4,29.54,SW,217,8.0,14.0,79,0.00,,,0.49,VWS V14.01,2013-01-30 04:10:00,
2013-01-29 22:11:00,53.5,41.2,29.54,WSW,246,10.0,21.0,63,0.00,,,0.49,VWS V14.01,2013-01-30 04:11:00,
2013-01-29 22:12:00,53.6,40.9,29.54,WSW,238,12.0,21.0,62,0.00,,,0.49,VWS V14.01,2013-01-30 04:12:00,
2013-01-29 22:13:00,53.6,40.9,29.54,SW,227,13.0,21.0,62,0.00,,,0.49,VWS V14.01,2013-01-30 04:13:00,
2013-01-29 22:14:00,53.5,40.4,29.54,SW,236,13.0,21.0,61,0.00,,,0.49,VWS V14.01,2013-01-30 04:14:00,
2013-01-29 22:15:00,52.3,43.5,29.54,SW,222,10.0,17.0,72,0.00,,,0.49,VWS V14.01,2013-01-30 04:15:00,
2013-01-29 22:16:00,53.5,40.4,29.54,SW,229,10.0,21.0,61,0.00,,,0.49,VWS V14.01,2013-01-30 04:16:00,
2013-01-29 22:17:00,53.4,40.7,29.54,SW,234,14.0,21.0,62,0.00,,,0.49,VWS V14.01,2013-01-30 04:17:00,
2013-01-29 22:18:00,53.3,40.2,29.55,SW,235,7.0,21.0,61,0.00,,,0.49,VWS V14.01,2013-01-30 04:18:00,
2013-01-29 22:19:00,53.2,40.5,29.55,SSW,199,13.0,21.0,62,0.00,,,0.49,VWS V14.01,2013-01-30 04:19:00,
2013-01-29 22:20:00,53.4,41.1,29.54,SW,222,13.0,21.0,63,0.00,,,0.49,VWS V14.01,2013-01-30 04:20:00,
2013-01-29 22:21:00,53.1,40.4,29.55,SW,221,7.0,21.0,62,0.00,,,0.49,VWS V14.01,2013-01-30 04:21:00,
2013-01-29 22:22:00,53.1,40.4,29.55,SW,224,6.0,21.0,62,0.00,,,0.49,VWS V14.01,2013-01-30 04:22:00,
2013-01-29 22:23:00,53.0,40.3,29.56,SW,226,12.0,21.0,62,0.00,,,0.49,VWS V14.01,2013-01-30 04:23:00,
2013-01-29 22:24:00,53.0,40.3,29.55,WSW,237,7.0,21.0,62,0.00,,,0.49,VWS V14.01,2013-01-30 04:24:00,
2013-01-29 22:25:00,53.5,40.4,29.54,SW,221,10.0,21.0,61,0.00,,,0.49,VWS V14.01,2013-01-30 04:25:00,
2013-01-29 22:26:00,53.0,39.9,29.56,WSW,239,15.0,21.0,61,0.00,,,0.49,VWS V14.01,2013-01-30 04:26:00,
2013-01-29 22:27:00,53.0,39.9,29.56,SW,231,11.0,21.0,61,0.00,,,0.49,VWS V14.01,2013-01-30 04:27:00,
2013-01-29 22:28:00,53.0,39.5,29.56,WSW,249,8.0,21.0,60,0.00,,,0.49,VWS V14.01,2013-01-30 04:28:00,
2013-01-29 22:29:00,53.1,39.2,29.56,SW,217,12.0,21.0,59,0.00,,,0.49,VWS V14.01,2013-01-30 04:29:00,
2013-01-29 22:30:00,53.2,40.5,29.55,SW,225,6.0,21.0,62,0.00,,,0.49,VWS V14.01,2013-01-30 04:30:00,
2013-01-29 22:31:00,53.1,39.2,29.56,SW,233,18.0,18.0,59,0.00,,,0.49,VWS V14.01,2013-01-30 04:31:00,
2013-01-29 22:32:00,53.2,38.4,29.56,SW,226,13.0,19.0,57,0.00,,,0.49,VWS V14.01,2013-01-30 04:32:00,
2013-01-29 22:33:00,53.4,38.6,29.56,SW,223,12.0,19.0,57,0.00,,,0.49,VWS V14.01,2013-01-30 04:33:00,
2013-01-29 22:34:00,53.4,38.6,29.56,SSW,207,7.0,19.0,57,0.00,,,0.49,VWS V14.01,2013-01-30 04:34:00,
2013-01-29 22:35:00,53.0,39.9,29.56,SW,219,11.0,21.0,61,0.00,,,0.49,VWS V14.01,2013-01-30 04:35:00,
2013-01-29 22:36:00,53.5,38.2,29.56,WSW,237,14.0,19.0,56,0.00,,,0.49,VWS V14.01,2013-01-30 04:36:00,
2013-01-29 22:37:00,53.5,37.8,29.56,SSW,209,9.0,19.0,55,0.00,,,0.49,VWS V14.01,2013-01-30 04:37:00,
2013-01-29 22:38:00,53.5,37.8,29.56,WSW,244,10.0,19.0,55,0.00,,,0.49,VWS V14.01,2013-01-30 04:38:00,
2013-01-29 22:39:00,53.5,37.8,29.56,SSW,209,13.0,19.0,55,0.00,,,0.49,VWS V14.01,2013-01-30 04:39:00,
2013-01-29 22:40:00,53.1,39.2,29.56,SW,222,10.0,15.0,59,0.00,,,0.49,VWS V14.01,2013-01-30 04:40:00,
2013-01-29 22:41:00,53.4,37.7,29.56,SSW,202,12.0,19.0,55,0.00,,,0.49,VWS V14.01,2013-01-30 04:41:00,
2013-01-29 22:42:00,53.4,37.2,29.56,SW,222,17.0,19.0,54,0.00,,,0.49,VWS V14.01,2013-01-30 04:42:00,
2013-01-29 22:43:00,53.4,37.2,29.56,SW,227,10.0,19.0,54,0.00,,,0.49,VWS V14.01,2013-01-30 04:43:00,
2013-01-29 22:44:00,53.4,37.7,29.56,SW,231,9.0,19.0,55,0.00,,,0.49,VWS V14.01,2013-01-30 04:44:00,
2013-01-29 22:45:00,53.4,38.1,29.56,SW,218,19.0,19.0,56,0.00,,,0.49,VWS V14.01,2013-01-30 04:45:00,
2013-01-29 22:46:00,53.2,37.5,29.56,SW,225,13.0,19.0,55,0.00,,,0.49,VWS V14.01,2013-01-30 04:46:00,
2013-01-29 22:47:00,53.1,37.4,29.56,SSW,213,6.0,19.0,55,0.00,,,0.49,VWS V14.01,2013-01-30 04:47:00,
2013-01-29 22:48:00,53.0,37.7,29.56,SW,225,7.0,19.0,56,0.00,,,0.49,VWS V14.01,2013-01-30 04:48:00,
2013-01-29 22:49:00,53.0,37.7,29.56,SW,221,9.0,19.0,56,0.00,,,0.49,VWS V14.01,2013-01-30 04:49:00,
2013-01-29 22:50:00,53.4,37.7,29.56,SW,224,9.0,19.0,55,0.00,,,0.49,VWS V14.01,2013-01-30 04:50:00,
2013-01-29 22:53:00,52.6,37.4,29.56,WSW,237,6.0,19.0,56,0.00,,,0.49,VWS V14.01,2013-01-30 04:53:00,
2013-01-29 22:54:00,52.6,37.8,29.56,SW,220,13.0,19.0,57,0.00,,,0.49,VWS V14.01,2013-01-30 04:54:00,
2013-01-29 22:55:00,53.2,37.5,29.56,WSW,238,11.0,19.0,55,0.00,,,0.49,VWS V14.01,2013-01-30 04:55:00,
2013-01-29 22:56:00,52.4,37.2,29.56,WSW,248,11.0,19.0,56,0.00,,,0.49,VWS V14.01,2013-01-30 04:56:00,
2013-01-29 22:57:00,52.4,37.6,29.56,WSW,239,11.0,19.0,57,0.00,,,0.49,VWS V14.01,2013-01-30 04:57:00,
2013-01-29 22:58:00,52.4,37.2,29.56,SW,215,11.0,19.0,56,0.00,,,0.49,VWS V14.01,2013-01-30 04:58:00,
2013-01-29 22:59:00,52.4,36.7,29.56,WSW,249,9.0,19.0,55,0.00,,,0.49,VWS V14.01,2013-01-30 04:59:00,
2013-01-29 23:00:00,52.8,37.5,29.56,SW,227,8.0,19.0,56,0.00,,,0.49,VWS V14.01,2013-01-30 05:00:00,
2013-01-29 23:01:00,52.4,36.7,29.56,SW,229,13.0,16.0,55,0.00,,,0.49,VWS V14.01,2013-01-30 05:01:00,
2013-01-29 23:02:00,52.4,36.7,29.56,SW,226,7.0,16.0,55,0.00,,,0.49,VWS V14.01,2013-01-30 05:02:00,
2013-01-29 23:03:00,52.6,37.4,29.56,SSW,211,7.0,19.0,56,0.00,,,0.49,VWS V14.01,2013-01-30 05:03:00,
2013-01-29 23:04:00,52.3,36.6,29.55,SW,222,12.0,16.0,55,0.00,,,0.49,VWS V14.01,2013-01-30 05:04:00,
2013-01-29 23:05:00,52.3,36.6,29.55,SW,223,7.0,19.0,55,0.00,,,0.49,VWS V14.01,2013-01-30 05:05:00,
2013-01-29 23:06:00,52.3,36.6,29.55,SW,236,13.0,19.0,55,0.00,,,0.49,VWS V14.01,2013-01-30 05:06:00,
2013-01-29 23:07:00,52.3,36.2,29.56,SW,229,10.0,19.0,54,0.00,,,0.49,VWS V14.01,2013-01-30 05:07:00,
2013-01-29 23:08:00,52.4,37.2,29.56,SW,224,15.0,19.0,56,0.00,,,0.49,VWS V14.01,2013-01-30 05:08:00,
2013-01-29 23:09:00,52.2,36.5,29.56,SW,236,10.0,19.0,55,0.00,,,0.49,VWS V14.01,2013-01-30 05:09:00,
2013-01-29 23:10:00,52.1,36.0,29.56,SW,228,12.0,19.0,54,0.00,,,0.49,VWS V14.01,2013-01-30 05:10:00,
2013-01-29 23:11:00,52.1,36.0,29.56,SW,222,13.0,19.0,54,0.00,,,0.49,VWS V14.01,2013-01-30 05:11:00,
2013-01-29 23:12:00,52.1,36.0,29.56,SSW,213,11.0,19.0,54,0.00,,,0.49,VWS V14.01,2013-01-30 05:12:00,
2013-01-29 23:13:00,52.3,36.6,29.55,SW,216,14.0,16.0,55,0.00,,,0.49,VWS V14.01,2013-01-30 05:13:00,
2013-01-29 23:14:00,52.0,35.9,29.56,SW,230,12.0,19.0,54,0.00,,,0.49,VWS V14.01,2013-01-30 05:14:00,
2013-01-29 23:15:00,52.0,35.9,29.56,SW,229,13.0,19.0,54,0.00,,,0.49,VWS V14.01,2013-01-30 05:15:00,
2013-01-29 23:16:00,52.1,35.5,29.56,SW,227,14.0,21.0,53,0.00,,,0.49,VWS V14.01,2013-01-30 05:16:00,
2013-01-29 23:17:00,52.0,35.4,29.56,SSW,211,14.0,21.0,53,0.00,,,0.49,VWS V14.01,2013-01-30 05:17:00,
2013-01-29 23:18:00,52.2,36.1,29.56,SW,222,9.0,19.0,54,0.00,,,0.49,VWS V14.01,2013-01-30 05:18:00,
2013-01-29 23:19:00,51.9,35.8,29.57,SW,227,12.0,21.0,54,0.00,,,0.49,VWS V14.01,2013-01-30 05:19:00,
2013-01-29 23:21:00,51.8,35.7,29.57,SW,217,9.0,21.0,54,0.00,,,0.49,VWS V14.01,2013-01-30 05:21:00,
2013-01-29 23:22:00,51.7,35.6,29.57,WSW,241,11.0,21.0,54,0.00,,,0.49,VWS V14.01,2013-01-30 05:22:00,
2013-01-29 23:23:00,52.0,35.4,29.56,SW,221,11.0,19.0,53,0.00,,,0.49,VWS V14.01,2013-01-30 05:23:00,
2013-01-29 23:24:00,51.6,35.5,29.57,SW,236,14.0,21.0,54,0.00,,,0.49,VWS V14.01,2013-01-30 05:24:00,
2013-01-29 23:25:00,51.7,35.6,29.57,WSW,251,15.0,21.0,54,0.00,,,0.49,VWS V14.01,2013-01-30 05:25:00,
2013-01-29 23:26:00,51.7,35.6,29.57,SW,226,11.0,21.0,54,0.00,,,0.49,VWS V14.01,2013-01-30 05:26:00,
2013-01-29 23:27:00,51.6,35.5,29.56,SSW,210,12.0,21.0,54,0.00,,,0.49,VWS V14.01,2013-01-30 05:27:00,
2013-01-29 23:28:00,51.9,35.8,29.57,SW,231,10.0,21.0,54,0.00,,,0.49,VWS V14.01,2013-01-30 05:28:00,
2013-01-29 23:29:00,51.5,35.9,29.56,SSW,211,10.0,21.0,55,0.00,,,0.49,VWS V14.01,2013-01-30 05:29:00,
2013-01-29 23:30:00,51.5,35.9,29.56,SW,222,10.0,17.0,55,0.00,,,0.49,VWS V14.01,2013-01-30 05:30:00,
2013-01-29 23:31:00,51.5,35.9,29.57,SW,232,11.0,17.0,55,0.00,,,0.49,VWS V14.01,2013-01-30 05:31:00,
2013-01-29 23:32:00,51.5,35.9,29.57,SSW,200,13.0,17.0,55,0.00,,,0.49,VWS V14.01,2013-01-30 05:32:00,
2013-01-29 23:33:00,51.6,35.5,29.57,SW,223,15.0,21.0,54,0.00,,,0.49,VWS V14.01,2013-01-30 05:33:00,
2013-01-29 23:34:00,51.3,35.7,29.57,SW,225,11.0,17.0,55,0.00,,,0.49,VWS V14.01,2013-01-30 05:34:00,
2013-01-29 23:35:00,51.3,35.7,29.57,WSW,249,13.0,18.0,55,0.00,,,0.49,VWS V14.01,2013-01-30 05:35:00,
2013-01-29 23:36:00,51.4,35.8,29.57,SW,236,10.0,18.0,55,0.00,,,0.49,VWS V14.01,2013-01-30 05:36:00,
2013-01-29 23:37:00,51.3,35.7,29.56,SW,226,10.0,18.0,55,0.00,,,0.49,VWS V14.01,2013-01-30 05:37:00,
2013-01-29 23:38:00,51.6,36.0,29.56,SW,225,11.0,21.0,55,0.00,,,0.49,VWS V14.01,2013-01-30 05:38:00,
2013-01-29 23:39:00,51.3,35.7,29.56,SSW,210,10.0,18.0,55,0.00,,,0.49,VWS V14.01,2013-01-30 05:39:00,
2013-01-29 23:40:00,51.2,35.6,29.56,SW,223,6.0,18.0,55,0.00,,,0.49,VWS V14.01,2013-01-30 05:40:00,
2013-01-29 23:41:00,51.1,35.5,29.56,SW,229,15.0,18.0,55,0.00,,,0.49,VWS V14.01,2013-01-30 05:41:00,
2013-01-29 23:42:00,51.0,35.4,29.56,SW,230,8.0,18.0,55,0.00,,,0.49,VWS V14.01,2013-01-30 05:42:00,
2013-01-29 23:43:00,51.4,35.8,29.57,SW,231,7.0,17.0,55,0.00,,,0.49,VWS V14.01,2013-01-30 05:43:00,
2013-01-29 23:44:00,51.1,35.0,29.56,SW,220,14.0,18.0,54,0.00,,,0.49,VWS V14.01,2013-01-30 05:44:00,
2013-01-29 23:45:00,51.2,35.1,29.56,SW,230,16.0,18.0,54,0.00,,,0.49,VWS V14.01,2013-01-30 05:45:00,
2013-01-29 23:46:00,51.2,35.1,29.56,WSW,246,13.0,18.0,54,0.00,,,0.49,VWS V14.01,2013-01-30 05:46:00,
2013-01-29 23:47:00,51.2,35.1,29.56,SW,229,10.0,18.0,54,0.00,,,0.49,VWS V14.01,2013-01-30 05:47:00,
2013-01-29 23:48:00,51.3,35.7,29.56,SW,224,9.0,18.0,55,0.00,,,0.49,VWS V14.01,2013-01-30 05:48:00,
2013-01-29 23:49:00,51.1,35.0,29.56,SW,236,10.0,18.0,54,0.00,,,0.49,VWS V14.01,2013-01-30 05:49:00,
2013-01-29 23:50:00,51.1,35.0,29.57,SW,224,20.0,20.0,54,0.00,,,0.49,VWS V14.01,2013-01-30 05:50:00,
2013-01-29 23:51:00,51.1,35.0,29.57,SW,215,13.0,20.0,54,0.00,,,0.49,VWS V14.01,2013-01-30 05:51:00,
2013-01-29 23:52:00,51.1,35.0,29.57,SW,231,10.0,20.0,54,0.00,,,0.49,VWS V14.01,2013-01-30 05:52:00,
2013-01-29 23:53:00,51.1,35.5,29.56,SW,234,12.0,18.0,55,0.00,,,0.49,VWS V14.01,2013-01-30 05:53:00,
2013-01-29 23:54:00,51.1,35.0,29.58,SW,222,11.0,20.0,54,0.00,,,0.49,VWS V14.01,2013-01-30 05:54:00,
2013-01-29 23:55:00,51.0,35.4,29.58,SW,234,14.0,20.0,55,0.00,,,0.49,VWS V14.01,2013-01-30 05:55:00,
2013-01-29 23:56:00,51.0,35.0,29.58,SW,214,9.0,20.0,54,0.00,,,0.49,VWS V14.01,2013-01-30 05:56:00,
2013-01-29 23:57:00,50.9,34.9,29.58,SW,216,12.0,20.0,54,0.00,,,0.49,VWS V14.01,2013-01-30 05:57:00,
2013-01-29 23:58:00,51.1,35.0,29.56,SW,227,13.0,18.0,54,0.00,,,0.49,VWS V14.01,2013-01-30 05:58:00,
2013-01-29 23:59:00,50.9,34.9,29.58,SSW,213,13.0,20.0,54,0.00,,,0.49,VWS V14.01,2013-01-30 05:59:00,